<?xml version='1.0' encoding='UTF-8'?><gpx version="1.1" creator="JPX - https://github.com/jenetics/jpx" xmlns="http://www.topografix.com/GPX/1/1"><trk><trkseg><trkpt lat="55.738885886972916" lon="52.404099764640776"><ele>121.00000000000001</ele><time>2026-04-19T10:12:39.024Z</time></trkpt><trkpt lat="55.73880400460566" lon="52.40411731956924"><ele>121.0</ele><time>2026-04-19T10:16:27.999Z</time></trkpt><trkpt lat="55.73884898321062" lon="52.40399504999477"><ele>121.0</ele><time>2026-04-19T10:16:31.998Z</time></trkpt><trkpt lat="55.738890554981936" lon="52.40386513570603"><ele>121.0</ele><time>2026-04-19T10:16:34.998Z</time></trkpt><trkpt lat="55.738919057865786" lon="52.403732433645644"><ele>121.00000000000001</ele><time>2026-04-19T10:16:37.998Z</time></trkpt><trkpt lat="55.73895553099599" lon="52.40361592515514"><ele>121.0</ele><time>2026-04-19T10:16:39.998Z</time></trkpt><trkpt lat="55.73898434126064" lon="52.40344939282074"><ele>121.19999999999999</ele><time>2026-04-19T10:16:41.998Z</time></trkpt><trkpt lat="55.739014113111615" lon="52.40329389240698"><ele>121.39999999999999</ele><time>2026-04-19T10:16:43.998Z</time></trkpt><trkpt lat="55.73905097424993" lon="52.4031494624684"><ele>121.6</ele><time>2026-04-19T10:16:45.998Z</time></trkpt><trkpt lat="55.739093757671746" lon="52.402988028605684"><ele>121.8</ele><time>2026-04-19T10:16:47.998Z</time></trkpt><trkpt lat="55.73912656642563" lon="52.40283334222272"><ele>122.0</ele><time>2026-04-19T10:16:49.998Z</time></trkpt><trkpt lat="55.739151020482495" lon="52.40265757485684"><ele>122.19999999999999</ele><time>2026-04-19T10:16:51.998Z</time></trkpt><trkpt lat="55.73917698790471" lon="52.40248702832744"><ele>122.39999999999999</ele><time>2026-04-19T10:16:53.998Z</time></trkpt><trkpt lat="55.739195517674574" lon="52.40232181078853"><ele>122.60000000000001</ele><time>2026-04-19T10:16:55.998Z</time></trkpt><trkpt lat="55.739209354106215" lon="52.40214627729791"><ele>122.80000000000001</ele><time>2026-04-19T10:16:57.998Z</time></trkpt><trkpt lat="55.73922826256485" lon="52.401988645993434"><ele>123.0</ele><time>2026-04-19T10:16:59.999Z</time></trkpt><trkpt lat="55.73926297624533" lon="52.40180599844614"><ele>123.2</ele><time>2026-04-19T10:17:01.999Z</time></trkpt><trkpt lat="55.739296182479436" lon="52.40164361650756"><ele>123.4</ele><time>2026-04-19T10:17:03.999Z</time></trkpt><trkpt lat="55.73931773446416" lon="52.401474438227076"><ele>123.60000000000001</ele><time>2026-04-19T10:17:05.999Z</time></trkpt><trkpt lat="55.73935171905876" lon="52.401303641034865"><ele>123.80000000000001</ele><time>2026-04-19T10:17:07.999Z</time></trkpt><trkpt lat="55.739371773593284" lon="52.40113274856811"><ele>124.0</ele><time>2026-04-19T10:17:09.999Z</time></trkpt><trkpt lat="55.73941449615811" lon="52.40098190541243"><ele>122.4</ele><time>2026-04-19T10:17:11.999Z</time></trkpt><trkpt lat="55.73946562355245" lon="52.400827223780425"><ele>120.80000000000001</ele><time>2026-04-19T10:17:13.999Z</time></trkpt><trkpt lat="55.73953000502931" lon="52.40067974786298"><ele>119.19999999999999</ele><time>2026-04-19T10:17:15.999Z</time></trkpt><trkpt lat="55.73959822028156" lon="52.40054032255835"><ele>117.6</ele><time>2026-04-19T10:17:17.999Z</time></trkpt><trkpt lat="55.73968446391688" lon="52.40053446484806"><ele>116.0</ele><time>2026-04-19T10:17:19.999Z</time></trkpt><trkpt lat="55.73977156843533" lon="52.40059836963523"><ele>116.0</ele><time>2026-04-19T10:17:21.999Z</time></trkpt><trkpt lat="55.73991377784856" lon="52.40066032905189"><ele>116.0</ele><time>2026-04-19T10:17:24.999Z</time></trkpt><trkpt lat="55.739991445562815" lon="52.40060926038425"><ele>116.0</ele><time>2026-04-19T10:17:26.999Z</time></trkpt><trkpt lat="55.740002721120646" lon="52.40047066366801"><ele>116.0</ele><time>2026-04-19T10:17:28.999Z</time></trkpt><trkpt lat="55.74001374533342" lon="52.40032170325688"><ele>116.0</ele><time>2026-04-19T10:17:30.999Z</time></trkpt><trkpt lat="55.74002961943434" lon="52.40017416610567"><ele>115.99999999999999</ele><time>2026-04-19T10:17:32.999Z</time></trkpt><trkpt lat="55.74004872194004" lon="52.40003918906531"><ele>116.0</ele><time>2026-04-19T10:17:34.999Z</time></trkpt><trkpt lat="55.74006889423155" lon="52.39990525839156"><ele>116.0</ele><time>2026-04-19T10:17:36.999Z</time></trkpt><trkpt lat="55.740092997998374" lon="52.39976119194965"><ele>116.0</ele><time>2026-04-19T10:17:38.999Z</time></trkpt><trkpt lat="55.740109996912025" lon="52.39962780667173"><ele>115.99999999999999</ele><time>2026-04-19T10:17:40.999Z</time></trkpt><trkpt lat="55.74019120236145" lon="52.3995826645251"><ele>116.0</ele><time>2026-04-19T10:17:43.999Z</time></trkpt><trkpt lat="55.740244896783295" lon="52.39969700070591"><ele>116.0</ele><time>2026-04-19T10:17:45.999Z</time></trkpt><trkpt lat="55.74032947352384" lon="52.39971738072005"><ele>116.0</ele><time>2026-04-19T10:17:47.999Z</time></trkpt><trkpt lat="55.74041918923834" lon="52.39974828752662"><ele>116.0</ele><time>2026-04-19T10:17:49.999Z</time></trkpt><trkpt lat="55.74051432550502" lon="52.39978684543574"><ele>116.0</ele><time>2026-04-19T10:17:51.999Z</time></trkpt><trkpt lat="55.74061075271996" lon="52.399844736144644"><ele>116.0</ele><time>2026-04-19T10:17:53.999Z</time></trkpt><trkpt lat="55.74070330953798" lon="52.39990324338129"><ele>115.99999999999999</ele><time>2026-04-19T10:17:55.999Z</time></trkpt><trkpt lat="55.74079916241658" lon="52.399956862915296"><ele>116.0</ele><time>2026-04-19T10:17:57.999Z</time></trkpt><trkpt lat="55.74088815081502" lon="52.399993080586505"><ele>116.0</ele><time>2026-04-19T10:17:59.999Z</time></trkpt><trkpt lat="55.74095917724084" lon="52.40003681006956"><ele>116.0</ele><time>2026-04-19T10:18:01.999Z</time></trkpt><trkpt lat="55.74103982890958" lon="52.400079720619814"><ele>115.99999999999999</ele><time>2026-04-19T10:18:03.999Z</time></trkpt><trkpt lat="55.74112026406221" lon="52.400110333348266"><ele>116.0</ele><time>2026-04-19T10:18:05.999Z</time></trkpt><trkpt lat="55.74121663142008" lon="52.400149426572156"><ele>117.0</ele><time>2026-04-19T10:18:07.999Z</time></trkpt><trkpt lat="55.74131271689288" lon="52.40018368469503"><ele>118.0</ele><time>2026-04-19T10:18:09.999Z</time></trkpt><trkpt lat="55.74143855588357" lon="52.400278999058"><ele>119.0</ele><time>2026-04-19T10:18:12.999Z</time></trkpt><trkpt lat="55.74153361557291" lon="52.40033798584216"><ele>120.0</ele><time>2026-04-19T10:18:14.999Z</time></trkpt><trkpt lat="55.74162379822823" lon="52.400398432195395"><ele>121.0</ele><time>2026-04-19T10:18:16.999Z</time></trkpt><trkpt lat="55.7417110487188" lon="52.40044993830994"><ele>120.66666666666667</ele><time>2026-04-19T10:18:18.999Z</time></trkpt><trkpt lat="55.74178636496206" lon="52.40053116012085"><ele>120.33333333333334</ele><time>2026-04-19T10:18:20.999Z</time></trkpt><trkpt lat="55.74186519146146" lon="52.400576802269164"><ele>120.0</ele><time>2026-04-19T10:18:22.999Z</time></trkpt><trkpt lat="55.741944330502136" lon="52.40061589744148"><ele>119.66666666666666</ele><time>2026-04-19T10:18:24.999Z</time></trkpt><trkpt lat="55.7420268702421" lon="52.400637907506876"><ele>119.33333333333333</ele><time>2026-04-19T10:18:26.999Z</time></trkpt><trkpt lat="55.74210713096029" lon="52.4006728953148"><ele>119.0</ele><time>2026-04-19T10:18:28.999Z</time></trkpt><trkpt lat="55.74219874530775" lon="52.400670963196355"><ele>119.0</ele><time>2026-04-19T10:18:30.999Z</time></trkpt><trkpt lat="55.742274618834884" lon="52.40074078880902"><ele>119.0</ele><time>2026-04-19T10:18:32.999Z</time></trkpt><trkpt lat="55.74236015539656" lon="52.400752618234534"><ele>119.0</ele><time>2026-04-19T10:18:34.999Z</time></trkpt><trkpt lat="55.74244745252491" lon="52.4007222631388"><ele>119.0</ele><time>2026-04-19T10:18:36.999Z</time></trkpt><trkpt lat="55.74254970242089" lon="52.40068751368337"><ele>119.0</ele><time>2026-04-19T10:18:38.998Z</time></trkpt><trkpt lat="55.74251195513046" lon="52.400547804609275"><ele>119.0</ele><time>2026-04-19T10:18:39.998Z</time></trkpt><trkpt lat="55.74252372883339" lon="52.400375842736906"><ele>119.0</ele><time>2026-04-19T10:18:41.998Z</time></trkpt><trkpt lat="55.74254617437097" lon="52.400219580160204"><ele>119.0</ele><time>2026-04-19T10:18:43.998Z</time></trkpt><trkpt lat="55.742564756684665" lon="52.40003568495773"><ele>119.0</ele><time>2026-04-19T10:18:45.998Z</time></trkpt><trkpt lat="55.74257639871155" lon="52.399865538941455"><ele>119.0</ele><time>2026-04-19T10:18:47.998Z</time></trkpt><trkpt lat="55.74262347262233" lon="52.39974573640581"><ele>119.16666666666666</ele><time>2026-04-19T10:18:49.998Z</time></trkpt><trkpt lat="55.74264290385929" lon="52.39959757470263"><ele>119.33333333333333</ele><time>2026-04-19T10:18:51.998Z</time></trkpt><trkpt lat="55.74266447133278" lon="52.39945596439419"><ele>119.5</ele><time>2026-04-19T10:18:53.998Z</time></trkpt><trkpt lat="55.74267251236542" lon="52.39930323491974"><ele>119.66666666666666</ele><time>2026-04-19T10:18:55.998Z</time></trkpt><trkpt lat="55.74267999774503" lon="52.39916138424737"><ele>119.83333333333333</ele><time>2026-04-19T10:18:57.998Z</time></trkpt><trkpt lat="55.7426953475158" lon="52.39900111997116"><ele>120.0</ele><time>2026-04-19T10:18:59.999Z</time></trkpt><trkpt lat="55.74269990563873" lon="52.39884703586465"><ele>120.0</ele><time>2026-04-19T10:19:01.999Z</time></trkpt><trkpt lat="55.74270446557016" lon="52.398704331026245"><ele>120.0</ele><time>2026-04-19T10:19:03.999Z</time></trkpt><trkpt lat="55.74271457225685" lon="52.39858113342421"><ele>120.0</ele><time>2026-04-19T10:19:05.999Z</time></trkpt><trkpt lat="55.74272822335987" lon="52.39845214092235"><ele>120.0</ele><time>2026-04-19T10:19:07.999Z</time></trkpt><trkpt lat="55.742870752446414" lon="52.398408520197066"><ele>120.0</ele><time>2026-04-19T10:19:09.999Z</time></trkpt><trkpt lat="55.74293720387672" lon="52.398277571347066"><ele>119.8</ele><time>2026-04-19T10:19:11.999Z</time></trkpt><trkpt lat="55.74288519996392" lon="52.3980537286411"><ele>119.6</ele><time>2026-04-19T10:19:13.999Z</time></trkpt><trkpt lat="55.74283250208929" lon="52.39795738218316"><ele>119.4</ele><time>2026-04-19T10:19:18.999Z</time></trkpt><trkpt lat="55.74291521489516" lon="52.39785775732877"><ele>119.2</ele><time>2026-04-19T10:19:20.999Z</time></trkpt><trkpt lat="55.74290992325105" lon="52.39769443259122"><ele>119.0</ele><time>2026-04-19T10:19:21.999Z</time></trkpt><trkpt lat="55.74289704707919" lon="52.39755752328523"><ele>118.5</ele><time>2026-04-19T10:19:22.999Z</time></trkpt><trkpt lat="55.74294536504877" lon="52.39720359703311"><ele>118.0</ele><time>2026-04-19T10:19:24.999Z</time></trkpt><trkpt lat="55.742976411551936" lon="52.397085295764015"><ele>117.5</ele><time>2026-04-19T10:19:26.999Z</time></trkpt><trkpt lat="55.743024801113386" lon="52.39696539156446"><ele>117.0</ele><time>2026-04-19T10:19:28.999Z</time></trkpt><trkpt lat="55.743084363079426" lon="52.39683217196603"><ele>116.57142857142858</ele><time>2026-04-19T10:19:31.999Z</time></trkpt><trkpt lat="55.74312971411511" lon="52.39673354388431"><ele>116.14285714285715</ele><time>2026-04-19T10:19:33.999Z</time></trkpt><trkpt lat="55.74315489007047" lon="52.39660380170721"><ele>115.71428571428572</ele><time>2026-04-19T10:19:35.999Z</time></trkpt><trkpt lat="55.74316736556753" lon="52.39648715935109"><ele>115.28571428571428</ele><time>2026-04-19T10:19:37.999Z</time></trkpt><trkpt lat="55.74316716893998" lon="52.396368745259664"><ele>114.85714285714285</ele><time>2026-04-19T10:19:39.999Z</time></trkpt><trkpt lat="55.74309167898403" lon="52.39636743273615"><ele>114.42857142857142</ele><time>2026-04-19T10:19:41.999Z</time></trkpt><trkpt lat="55.743026598260066" lon="52.3963370888825"><ele>114.0</ele><time>2026-04-19T10:19:43.999Z</time></trkpt><trkpt lat="55.742949686569474" lon="52.39628458613557"><ele>114.0</ele><time>2026-04-19T10:19:46.999Z</time></trkpt><trkpt lat="55.74295214652266" lon="52.39614780637582"><ele>113.99999999999999</ele><time>2026-04-19T10:19:51.999Z</time></trkpt><trkpt lat="55.74298352120147" lon="52.396030323279085"><ele>114.0</ele><time>2026-04-19T10:19:57.999Z</time></trkpt><trkpt lat="55.74300443113174" lon="52.395918951864914"><ele>114.0</ele><time>2026-04-19T10:20:00.999Z</time></trkpt><trkpt lat="55.74302921619074" lon="52.395812734353335"><ele>113.99999999999999</ele><time>2026-04-19T10:20:03.999Z</time></trkpt><trkpt lat="55.74305584457872" lon="52.39570913578551"><ele>114.0</ele><time>2026-04-19T10:20:45.998Z</time></trkpt><trkpt lat="55.743074359626256" lon="52.39558972278848"><ele>114.0</ele><time>2026-04-19T10:20:48.999Z</time></trkpt><trkpt lat="55.743091137247255" lon="52.39545934438113"><ele>114.0</ele><time>2026-04-19T10:20:50.999Z</time></trkpt><trkpt lat="55.74311541722143" lon="52.39532568687344"><ele>114.0</ele><time>2026-04-19T10:20:52.999Z</time></trkpt><trkpt lat="55.74313884930955" lon="52.395194153066356"><ele>114.0</ele><time>2026-04-19T10:20:54.999Z</time></trkpt><trkpt lat="55.743160873642154" lon="52.39505797947184"><ele>114.0</ele><time>2026-04-19T10:20:56.999Z</time></trkpt><trkpt lat="55.74318551872111" lon="52.394913252186306"><ele>114.0</ele><time>2026-04-19T10:20:58.999Z</time></trkpt><trkpt lat="55.743214860253275" lon="52.39476694236067"><ele>114.0</ele><time>2026-04-19T10:21:00.999Z</time></trkpt><trkpt lat="55.74323411801003" lon="52.394621137453775"><ele>114.0</ele><time>2026-04-19T10:21:02.999Z</time></trkpt><trkpt lat="55.74326138090905" lon="52.394481503124304"><ele>114.0</ele><time>2026-04-19T10:21:04.999Z</time></trkpt><trkpt lat="55.743295191658355" lon="52.394321945769676"><ele>114.0</ele><time>2026-04-19T10:21:06.999Z</time></trkpt><trkpt lat="55.74333045991262" lon="52.39415215220153"><ele>114.0</ele><time>2026-04-19T10:21:08.999Z</time></trkpt><trkpt lat="55.74336111928316" lon="52.39397034436354"><ele>114.0</ele><time>2026-04-19T10:21:10.999Z</time></trkpt><trkpt lat="55.74339569505844" lon="52.393778069765375"><ele>114.0</ele><time>2026-04-19T10:21:12.999Z</time></trkpt><trkpt lat="55.743436924431776" lon="52.39360360680477"><ele>114.0</ele><time>2026-04-19T10:21:14.999Z</time></trkpt><trkpt lat="55.74346571802674" lon="52.39343363458928"><ele>114.0</ele><time>2026-04-19T10:21:16.999Z</time></trkpt><trkpt lat="55.74348797533844" lon="52.393252214159546"><ele>114.0</ele><time>2026-04-19T10:21:18.999Z</time></trkpt><trkpt lat="55.74352879108149" lon="52.393071148777466"><ele>114.0</ele><time>2026-04-19T10:21:20.999Z</time></trkpt><trkpt lat="55.74358357858657" lon="52.39288980616895"><ele>114.0</ele><time>2026-04-19T10:21:23Z</time></trkpt><trkpt lat="55.743630193103066" lon="52.392695753566976"><ele>114.0</ele><time>2026-04-19T10:21:25Z</time></trkpt><trkpt lat="55.74367422648471" lon="52.392523122910895"><ele>114.0</ele><time>2026-04-19T10:21:27Z</time></trkpt><trkpt lat="55.74372980850846" lon="52.39243508845076"><ele>114.0</ele><time>2026-04-19T10:21:29Z</time></trkpt><trkpt lat="55.74367872475761" lon="52.3923193370538"><ele>114.0</ele><time>2026-04-19T10:21:33Z</time></trkpt><trkpt lat="55.74360653098414" lon="52.392233111249006"><ele>113.6</ele><time>2026-04-19T10:21:36Z</time></trkpt><trkpt lat="55.74364014617526" lon="52.39207865059974"><ele>113.2</ele><time>2026-04-19T10:21:39Z</time></trkpt><trkpt lat="55.74370299638215" lon="52.39198343066284"><ele>112.79999999999998</ele><time>2026-04-19T10:21:41Z</time></trkpt><trkpt lat="55.74376184293649" lon="52.39185571899916"><ele>112.39999999999999</ele><time>2026-04-19T10:21:43Z</time></trkpt><trkpt lat="55.74382162657671" lon="52.391720297535066"><ele>112.0</ele><time>2026-04-19T10:21:45Z</time></trkpt><trkpt lat="55.74388517676666" lon="52.391576570184995"><ele>112.0</ele><time>2026-04-19T10:21:47Z</time></trkpt><trkpt lat="55.743955160682475" lon="52.39143244009201"><ele>112.0</ele><time>2026-04-19T10:21:49Z</time></trkpt><trkpt lat="55.74402105335668" lon="52.39126469844475"><ele>112.0</ele><time>2026-04-19T10:21:51Z</time></trkpt><trkpt lat="55.744056504519854" lon="52.391066261267596"><ele>112.0</ele><time>2026-04-19T10:21:53Z</time></trkpt><trkpt lat="55.74395416833239" lon="52.390793345854185"><ele>111.75</ele><time>2026-04-19T10:21:55Z</time></trkpt><trkpt lat="55.743987052136404" lon="52.39059949256102"><ele>111.5</ele><time>2026-04-19T10:21:57Z</time></trkpt><trkpt lat="55.74401963962418" lon="52.39040738623995"><ele>111.25</ele><time>2026-04-19T10:21:59Z</time></trkpt><trkpt lat="55.74412822363676" lon="52.39025772769939"><ele>111.0</ele><time>2026-04-19T10:22:01Z</time></trkpt><trkpt lat="55.744154562638656" lon="52.39007594082389"><ele>110.75</ele><time>2026-04-19T10:22:03Z</time></trkpt><trkpt lat="55.744163283172384" lon="52.38990392998649"><ele>110.5</ele><time>2026-04-19T10:22:05Z</time></trkpt><trkpt lat="55.744205892951975" lon="52.38964031845979"><ele>110.25</ele><time>2026-04-19T10:22:08Z</time></trkpt><trkpt lat="55.74424339946435" lon="52.389452586350934"><ele>110.0</ele><time>2026-04-19T10:22:10Z</time></trkpt><trkpt lat="55.744270013749485" lon="52.3892793294938"><ele>109.83333333333333</ele><time>2026-04-19T10:22:12Z</time></trkpt><trkpt lat="55.74433178538705" lon="52.3891641977401"><ele>109.66666666666666</ele><time>2026-04-19T10:22:14Z</time></trkpt><trkpt lat="55.744285353928014" lon="52.38907214658924"><ele>109.5</ele><time>2026-04-19T10:22:16Z</time></trkpt><trkpt lat="55.74422198590951" lon="52.38899732715173"><ele>109.33333333333334</ele><time>2026-04-19T10:22:18Z</time></trkpt><trkpt lat="55.74422654815776" lon="52.388836966074"><ele>109.16666666666667</ele><time>2026-04-19T10:22:21Z</time></trkpt><trkpt lat="55.74425417897003" lon="52.38870133378086"><ele>109.0</ele><time>2026-04-19T10:22:23Z</time></trkpt><trkpt lat="55.74430586751331" lon="52.38854516116457"><ele>108.66666666666667</ele><time>2026-04-19T10:22:25Z</time></trkpt><trkpt lat="55.74438596327468" lon="52.388360673459474"><ele>108.33333333333334</ele><time>2026-04-19T10:22:27Z</time></trkpt><trkpt lat="55.7444032348802" lon="52.38824838026677"><ele>108.0</ele><time>2026-04-19T10:22:28Z</time></trkpt><trkpt lat="55.74442229805701" lon="52.388129797511795"><ele>107.66666666666666</ele><time>2026-04-19T10:22:29Z</time></trkpt><trkpt lat="55.744441240615735" lon="52.38800967178932"><ele>107.33333333333333</ele><time>2026-04-19T10:22:30Z</time></trkpt><trkpt lat="55.74440279325252" lon="52.38786908133188"><ele>107.0</ele><time>2026-04-19T10:22:31Z</time></trkpt><trkpt lat="55.74442170815619" lon="52.38775271354353"><ele>106.71428571428572</ele><time>2026-04-19T10:22:32Z</time></trkpt><trkpt lat="55.7444414749374" lon="52.38763098014523"><ele>106.42857142857143</ele><time>2026-04-19T10:22:33Z</time></trkpt><trkpt lat="55.74446062533482" lon="52.38751296971704"><ele>106.14285714285714</ele><time>2026-04-19T10:22:34Z</time></trkpt><trkpt lat="55.744479740888934" lon="52.38739517398499"><ele>105.85714285714286</ele><time>2026-04-19T10:22:35Z</time></trkpt><trkpt lat="55.74449933342729" lon="52.38727443894978"><ele>105.57142857142857</ele><time>2026-04-19T10:22:36Z</time></trkpt><trkpt lat="55.744568401105056" lon="52.387177803921475"><ele>105.28571428571429</ele><time>2026-04-19T10:22:37Z</time></trkpt><trkpt lat="55.744588936746155" lon="52.387048541572895"><ele>105.0</ele><time>2026-04-19T10:22:38Z</time></trkpt><trkpt lat="55.74461183083244" lon="52.38694066239189"><ele>104.5</ele><time>2026-04-19T10:22:39Z</time></trkpt><trkpt lat="55.74465165845285" lon="52.3867233559391"><ele>104.0</ele><time>2026-04-19T10:22:41Z</time></trkpt><trkpt lat="55.74466753775076" lon="52.38661213128072"><ele>103.5</ele><time>2026-04-19T10:22:42Z</time></trkpt><trkpt lat="55.74468446544838" lon="52.386499703136174"><ele>103.0</ele><time>2026-04-19T10:22:43Z</time></trkpt><trkpt lat="55.744703009156936" lon="52.38638987989129"><ele>102.5</ele><time>2026-04-19T10:22:44Z</time></trkpt><trkpt lat="55.744742349990396" lon="52.38617709512806"><ele>102.0</ele><time>2026-04-19T10:22:46Z</time></trkpt><trkpt lat="55.744763490472934" lon="52.38605844167414"><ele>101.5</ele><time>2026-04-19T10:22:47Z</time></trkpt><trkpt lat="55.74478312977979" lon="52.38593852403337"><ele>101.0</ele><time>2026-04-19T10:22:48Z</time></trkpt><trkpt lat="55.74480333144372" lon="52.385820597127925"><ele>100.5</ele><time>2026-04-19T10:22:48.999Z</time></trkpt><trkpt lat="55.744827513223036" lon="52.38569726793257"><ele>100.0</ele><time>2026-04-19T10:22:49.999Z</time></trkpt><trkpt lat="55.744847173459576" lon="52.385575926779374"><ele>99.5</ele><time>2026-04-19T10:22:50.999Z</time></trkpt><trkpt lat="55.7448649613732" lon="52.38546341895362"><ele>99.0</ele><time>2026-04-19T10:22:51.999Z</time></trkpt><trkpt lat="55.74489897513687" lon="52.385250123940295"><ele>98.6</ele><time>2026-04-19T10:22:53.999Z</time></trkpt><trkpt lat="55.74493223362948" lon="52.385060667561724"><ele>98.2</ele><time>2026-04-19T10:22:55.999Z</time></trkpt><trkpt lat="55.74496316762645" lon="52.38487318145999"><ele>97.8</ele><time>2026-04-19T10:22:57.999Z</time></trkpt><trkpt lat="55.744989012022316" lon="52.38468450820617"><ele>97.39999999999999</ele><time>2026-04-19T10:22:59.999Z</time></trkpt><trkpt lat="55.74501777863955" lon="52.384488045038196"><ele>97.0</ele><time>2026-04-19T10:23:01.999Z</time></trkpt><trkpt lat="55.74504738745686" lon="52.38431375799022"><ele>96.39999999999999</ele><time>2026-04-19T10:23:03.999Z</time></trkpt><trkpt lat="55.745078311238984" lon="52.38411256179796"><ele>95.8</ele><time>2026-04-19T10:23:05.999Z</time></trkpt><trkpt lat="55.745112924044385" lon="52.38390157414779"><ele>95.2</ele><time>2026-04-19T10:23:07.999Z</time></trkpt><trkpt lat="55.74512884977907" lon="52.38379207859203"><ele>94.6</ele><time>2026-04-19T10:23:09Z</time></trkpt><trkpt lat="55.74515952412331" lon="52.383583021671896"><ele>94.0</ele><time>2026-04-19T10:23:11Z</time></trkpt><trkpt lat="55.74519222072888" lon="52.38337046167465"><ele>93.0</ele><time>2026-04-19T10:23:13Z</time></trkpt><trkpt lat="55.74523065099556" lon="52.38315447494747"><ele>92.0</ele><time>2026-04-19T10:23:15Z</time></trkpt><trkpt lat="55.74526686838839" lon="52.3829334040928"><ele>91.0</ele><time>2026-04-19T10:23:17Z</time></trkpt><trkpt lat="55.74528831965054" lon="52.382817913105406"><ele>90.0</ele><time>2026-04-19T10:23:18Z</time></trkpt><trkpt lat="55.7453026664075" lon="52.38269161997103"><ele>89.0</ele><time>2026-04-19T10:23:19Z</time></trkpt><trkpt lat="55.7452984373525" lon="52.382552187807704"><ele>89.0</ele><time>2026-04-19T10:23:20Z</time></trkpt><trkpt lat="55.74528873176028" lon="52.382426588550175"><ele>89.0</ele><time>2026-04-19T10:23:21Z</time></trkpt><trkpt lat="55.74531733287592" lon="52.38227224733047"><ele>89.0</ele><time>2026-04-19T10:23:23Z</time></trkpt><trkpt lat="55.74535527734196" lon="52.382120807144254"><ele>89.0</ele><time>2026-04-19T10:23:25Z</time></trkpt><trkpt lat="55.745380577180036" lon="52.38196391385077"><ele>89.0</ele><time>2026-04-19T10:23:27Z</time></trkpt><trkpt lat="55.745397009366705" lon="52.38183321881913"><ele>89.0</ele><time>2026-04-19T10:23:29Z</time></trkpt><trkpt lat="55.74541892415768" lon="52.381695549413735"><ele>88.83333333333334</ele><time>2026-04-19T10:23:31Z</time></trkpt><trkpt lat="55.7454498894777" lon="52.3815519276714"><ele>88.66666666666667</ele><time>2026-04-19T10:23:33Z</time></trkpt><trkpt lat="55.745533072560406" lon="52.381520178445534"><ele>88.5</ele><time>2026-04-19T10:23:35Z</time></trkpt><trkpt lat="55.74560947960037" lon="52.38141751467116"><ele>88.33333333333333</ele><time>2026-04-19T10:23:37Z</time></trkpt><trkpt lat="55.74563785270703" lon="52.38131566203971"><ele>88.16666666666666</ele><time>2026-04-19T10:23:38Z</time></trkpt><trkpt lat="55.74566054300497" lon="52.381208681088054"><ele>88.0</ele><time>2026-04-19T10:23:39Z</time></trkpt><trkpt lat="55.74567857507919" lon="52.38100929591132"><ele>87.66666666666666</ele><time>2026-04-19T10:23:41Z</time></trkpt><trkpt lat="55.74570706384466" lon="52.380873571726106"><ele>87.33333333333333</ele><time>2026-04-19T10:23:43Z</time></trkpt><trkpt lat="55.745727695986886" lon="52.380751262240246"><ele>87.0</ele><time>2026-04-19T10:23:45Z</time></trkpt><trkpt lat="55.745745157810276" lon="52.3806113362134"><ele>86.66666666666667</ele><time>2026-04-19T10:23:47Z</time></trkpt><trkpt lat="55.745773801244226" lon="52.38044672328758"><ele>86.33333333333334</ele><time>2026-04-19T10:23:49Z</time></trkpt><trkpt lat="55.74580443486457" lon="52.38027946871053"><ele>86.0</ele><time>2026-04-19T10:23:51Z</time></trkpt><trkpt lat="55.74583076858377" lon="52.380096859764976"><ele>85.8</ele><time>2026-04-19T10:23:53Z</time></trkpt><trkpt lat="55.74586171641558" lon="52.37991525134867"><ele>85.6</ele><time>2026-04-19T10:23:55Z</time></trkpt><trkpt lat="55.74589187431069" lon="52.379734635543"><ele>85.4</ele><time>2026-04-19T10:23:57Z</time></trkpt><trkpt lat="55.745920645429514" lon="52.37954445520297"><ele>85.2</ele><time>2026-04-19T10:23:59Z</time></trkpt><trkpt lat="55.74594657249812" lon="52.3793574960865"><ele>85.0</ele><time>2026-04-19T10:24:01Z</time></trkpt><trkpt lat="55.74597385528322" lon="52.379168067192005"><ele>84.83333333333333</ele><time>2026-04-19T10:24:03Z</time></trkpt><trkpt lat="55.746018929542075" lon="52.378952251968535"><ele>84.66666666666666</ele><time>2026-04-19T10:24:05Z</time></trkpt><trkpt lat="55.746032374131026" lon="52.37883993963353"><ele>84.5</ele><time>2026-04-19T10:24:06Z</time></trkpt><trkpt lat="55.74605227559692" lon="52.37872339166163"><ele>84.33333333333333</ele><time>2026-04-19T10:24:07Z</time></trkpt><trkpt lat="55.74607463750327" lon="52.37861027780386"><ele>84.16666666666667</ele><time>2026-04-19T10:24:08Z</time></trkpt><trkpt lat="55.74609123997033" lon="52.37848955731206"><ele>84.0</ele><time>2026-04-19T10:24:09Z</time></trkpt><trkpt lat="55.74611005529939" lon="52.3783776950592"><ele>83.80000000000001</ele><time>2026-04-19T10:24:10Z</time></trkpt><trkpt lat="55.7461439629515" lon="52.37816140512257"><ele>83.60000000000001</ele><time>2026-04-19T10:24:12Z</time></trkpt><trkpt lat="55.74617565720065" lon="52.37796771742722"><ele>83.4</ele><time>2026-04-19T10:24:14Z</time></trkpt><trkpt lat="55.746202001762384" lon="52.37778863532045"><ele>83.2</ele><time>2026-04-19T10:24:16Z</time></trkpt><trkpt lat="55.74623275137633" lon="52.37760950924794"><ele>83.0</ele><time>2026-04-19T10:24:18Z</time></trkpt><trkpt lat="55.74624576233646" lon="52.37745484356532"><ele>82.80000000000001</ele><time>2026-04-19T10:24:20.001Z</time></trkpt><trkpt lat="55.74619319985737" lon="52.37736505174528"><ele>82.6</ele><time>2026-04-19T10:24:22.001Z</time></trkpt><trkpt lat="55.74615436700447" lon="52.37745943323399"><ele>82.4</ele><time>2026-04-19T10:24:25.001Z</time></trkpt><trkpt lat="55.74620867046689" lon="52.37757256844266"><ele>82.19999999999999</ele><time>2026-04-19T10:24:28.001Z</time></trkpt><trkpt lat="55.74618970564347" lon="52.37782012742892"><ele>82.0</ele><time>2026-04-19T10:24:30.001Z</time></trkpt><trkpt lat="55.74616306496594" lon="52.37798012801353"><ele>82.0</ele><time>2026-04-19T10:24:32.001Z</time></trkpt><trkpt lat="55.746136015050595" lon="52.378129506188024"><ele>82.0</ele><time>2026-04-19T10:24:34.001Z</time></trkpt><trkpt lat="55.746114730424765" lon="52.37825551147281"><ele>82.0</ele><time>2026-04-19T10:24:36.001Z</time></trkpt><trkpt lat="55.746078131887636" lon="52.378388139325985"><ele>82.0</ele><time>2026-04-19T10:24:39.001Z</time></trkpt><trkpt lat="55.74608964489325" lon="52.37826329487808"><ele>82.0</ele><time>2026-04-19T10:24:42.001Z</time></trkpt><trkpt lat="55.74612920980043" lon="52.37815115240108"><ele>82.0</ele><time>2026-04-19T10:24:44.001Z</time></trkpt><trkpt lat="55.746166143353484" lon="52.37798428952617"><ele>82.0</ele><time>2026-04-19T10:24:46.001Z</time></trkpt><trkpt lat="55.74619572141189" lon="52.377813503485946"><ele>82.0</ele><time>2026-04-19T10:24:48.001Z</time></trkpt><trkpt lat="55.746221883117634" lon="52.37764077300902"><ele>82.0</ele><time>2026-04-19T10:24:50.001Z</time></trkpt><trkpt lat="55.74624254279006" lon="52.377491924887934"><ele>82.0</ele><time>2026-04-19T10:24:52.001Z</time></trkpt><trkpt lat="55.7462664340121" lon="52.377322546870445"><ele>82.0</ele><time>2026-04-19T10:24:54.001Z</time></trkpt><trkpt lat="55.74629425177855" lon="52.377151956348534"><ele>82.0</ele><time>2026-04-19T10:24:56Z</time></trkpt><trkpt lat="55.74634475456515" lon="52.376912282425636"><ele>82.0</ele><time>2026-04-19T10:24:59Z</time></trkpt><trkpt lat="55.746359582209635" lon="52.37674786994506"><ele>82.0</ele><time>2026-04-19T10:25:01Z</time></trkpt><trkpt lat="55.746376594403884" lon="52.37658710862269"><ele>82.0</ele><time>2026-04-19T10:25:03Z</time></trkpt><trkpt lat="55.74641668141868" lon="52.37644458135205"><ele>82.0</ele><time>2026-04-19T10:25:05Z</time></trkpt><trkpt lat="55.74644737433237" lon="52.37627914448786"><ele>82.0</ele><time>2026-04-19T10:25:07Z</time></trkpt><trkpt lat="55.74647565706807" lon="52.376116913875556"><ele>82.0</ele><time>2026-04-19T10:25:09Z</time></trkpt><trkpt lat="55.74649780501671" lon="52.37596294670152"><ele>82.0</ele><time>2026-04-19T10:25:11Z</time></trkpt><trkpt lat="55.74652191031061" lon="52.37581546708097"><ele>82.0</ele><time>2026-04-19T10:25:13Z</time></trkpt><trkpt lat="55.746552641077386" lon="52.37566118296663"><ele>82.0</ele><time>2026-04-19T10:25:15Z</time></trkpt><trkpt lat="55.74657811544805" lon="52.37550456316961"><ele>81.8</ele><time>2026-04-19T10:25:17Z</time></trkpt><trkpt lat="55.74661372617263" lon="52.37533362545124"><ele>81.6</ele><time>2026-04-19T10:25:19Z</time></trkpt><trkpt lat="55.74662712479301" lon="52.37518943383995"><ele>81.39999999999999</ele><time>2026-04-19T10:25:21Z</time></trkpt><trkpt lat="55.746652841367855" lon="52.375024981680454"><ele>81.19999999999999</ele><time>2026-04-19T10:25:23Z</time></trkpt><trkpt lat="55.74668078050821" lon="52.37486144310499"><ele>81.0</ele><time>2026-04-19T10:25:25Z</time></trkpt><trkpt lat="55.746708692364514" lon="52.374699589650994"><ele>80.8</ele><time>2026-04-19T10:25:27Z</time></trkpt><trkpt lat="55.74673732582523" lon="52.37453868266796"><ele>80.6</ele><time>2026-04-19T10:25:29Z</time></trkpt><trkpt lat="55.74676099203865" lon="52.374372761984"><ele>80.4</ele><time>2026-04-19T10:25:31Z</time></trkpt><trkpt lat="55.74678524307146" lon="52.374214554839945"><ele>80.2</ele><time>2026-04-19T10:25:33Z</time></trkpt><trkpt lat="55.74681358175847" lon="52.3740492173094"><ele>80.0</ele><time>2026-04-19T10:25:35Z</time></trkpt><trkpt lat="55.74684047799819" lon="52.373883119439085"><ele>80.0</ele><time>2026-04-19T10:25:37Z</time></trkpt><trkpt lat="55.74686520161327" lon="52.373718223527355"><ele>80.0</ele><time>2026-04-19T10:25:39Z</time></trkpt><trkpt lat="55.746898311246696" lon="52.37355723330219"><ele>80.0</ele><time>2026-04-19T10:25:41Z</time></trkpt><trkpt lat="55.74691317561586" lon="52.37340365044004"><ele>80.0</ele><time>2026-04-19T10:25:43Z</time></trkpt><trkpt lat="55.74693914056" lon="52.37327001377357"><ele>80.0</ele><time>2026-04-19T10:25:45Z</time></trkpt><trkpt lat="55.74696165682443" lon="52.37312057852256"><ele>80.0</ele><time>2026-04-19T10:25:47Z</time></trkpt><trkpt lat="55.74693474713424" lon="52.37298676839923"><ele>79.71428571428571</ele><time>2026-04-19T10:25:49Z</time></trkpt><trkpt lat="55.746862838600364" lon="52.37293540650343"><ele>79.42857142857143</ele><time>2026-04-19T10:25:51Z</time></trkpt><trkpt lat="55.74684328839263" lon="52.37280785614134"><ele>79.14285714285714</ele><time>2026-04-19T10:25:54Z</time></trkpt><trkpt lat="55.74688005855522" lon="52.372665615060015"><ele>78.85714285714286</ele><time>2026-04-19T10:25:57Z</time></trkpt><trkpt lat="55.74689448392567" lon="52.372556430378005"><ele>78.57142857142857</ele><time>2026-04-19T10:25:59Z</time></trkpt><trkpt lat="55.74691084411213" lon="52.3724455725409"><ele>78.28571428571429</ele><time>2026-04-19T10:26:01Z</time></trkpt><trkpt lat="55.74697835895437" lon="52.37238956882295"><ele>78.0</ele><time>2026-04-19T10:26:05.001Z</time></trkpt><trkpt lat="55.74704043161023" lon="52.37244839880817"><ele>78.0</ele><time>2026-04-19T10:26:08.001Z</time></trkpt><trkpt lat="55.747067248196984" lon="52.37233643361403"><ele>78.0</ele><time>2026-04-19T10:26:11.001Z</time></trkpt><trkpt lat="55.747093583161984" lon="52.3721955104406"><ele>78.0</ele><time>2026-04-19T10:26:13.001Z</time></trkpt><trkpt lat="55.74711288008232" lon="52.37207794172516"><ele>78.0</ele><time>2026-04-19T10:26:15.001Z</time></trkpt><trkpt lat="55.74713459964317" lon="52.37196243384497"><ele>78.0</ele><time>2026-04-19T10:26:17.001Z</time></trkpt><trkpt lat="55.74715863875643" lon="52.371825317745746"><ele>78.0</ele><time>2026-04-19T10:26:19.001Z</time></trkpt><trkpt lat="55.74718685185495" lon="52.37169014366835"><ele>77.83333333333333</ele><time>2026-04-19T10:26:21.001Z</time></trkpt><trkpt lat="55.747205776518214" lon="52.37153840610734"><ele>77.66666666666667</ele><time>2026-04-19T10:26:23.001Z</time></trkpt><trkpt lat="55.74722962375749" lon="52.3713937579121"><ele>77.5</ele><time>2026-04-19T10:26:25.001Z</time></trkpt><trkpt lat="55.74725618410398" lon="52.371250361513134"><ele>77.33333333333334</ele><time>2026-04-19T10:26:27.001Z</time></trkpt><trkpt lat="55.74727502683032" lon="52.37109914674552"><ele>77.16666666666667</ele><time>2026-04-19T10:26:29.001Z</time></trkpt><trkpt lat="55.74729334651738" lon="52.37093517767994"><ele>77.0</ele><time>2026-04-19T10:26:31.001Z</time></trkpt><trkpt lat="55.74730810623296" lon="52.370761904085164"><ele>77.0</ele><time>2026-04-19T10:26:33.001Z</time></trkpt><trkpt lat="55.747327393517594" lon="52.370588774522346"><ele>77.0</ele><time>2026-04-19T10:26:35.001Z</time></trkpt><trkpt lat="55.74732920997799" lon="52.37040015799599"><ele>77.0</ele><time>2026-04-19T10:26:37.001Z</time></trkpt><trkpt lat="55.747327520303806" lon="52.3702079790397"><ele>77.0</ele><time>2026-04-19T10:26:39.001Z</time></trkpt><trkpt lat="55.747327556230225" lon="52.37000922594746"><ele>77.0</ele><time>2026-04-19T10:26:41.001Z</time></trkpt><trkpt lat="55.74732690758815" lon="52.369812097298826"><ele>76.0</ele><time>2026-04-19T10:26:43.001Z</time></trkpt><trkpt lat="55.7473314783607" lon="52.36962193835488"><ele>75.0</ele><time>2026-04-19T10:26:45.001Z</time></trkpt><trkpt lat="55.74732744183821" lon="52.369419672136274"><ele>74.0</ele><time>2026-04-19T10:26:47.001Z</time></trkpt><trkpt lat="55.747323680799056" lon="52.36921034002493"><ele>73.0</ele><time>2026-04-19T10:26:49.001Z</time></trkpt><trkpt lat="55.74731860902139" lon="52.368992888640214"><ele>71.8</ele><time>2026-04-19T10:26:51.001Z</time></trkpt><trkpt lat="55.74730436926522" lon="52.36876651253008"><ele>70.6</ele><time>2026-04-19T10:26:53.001Z</time></trkpt><trkpt lat="55.747278928765326" lon="52.368656904178295"><ele>69.4</ele><time>2026-04-19T10:26:54.001Z</time></trkpt><trkpt lat="55.74725010093955" lon="52.368556649210426"><ele>68.2</ele><time>2026-04-19T10:26:55.001Z</time></trkpt><trkpt lat="55.74719660133029" lon="52.36836857492177"><ele>67.0</ele><time>2026-04-19T10:26:57.001Z</time></trkpt><trkpt lat="55.74713729711252" lon="52.36820001434369"><ele>67.0</ele><time>2026-04-19T10:26:59.001Z</time></trkpt><trkpt lat="55.74709392223166" lon="52.368032697363255"><ele>67.0</ele><time>2026-04-19T10:27:01Z</time></trkpt><trkpt lat="55.747057477182985" lon="52.36788198490515"><ele>67.0</ele><time>2026-04-19T10:27:03Z</time></trkpt><trkpt lat="55.74702512466845" lon="52.36773953736204"><ele>67.0</ele><time>2026-04-19T10:27:05Z</time></trkpt><trkpt lat="55.747000091422294" lon="52.367604140067755"><ele>67.0</ele><time>2026-04-19T10:27:07Z</time></trkpt><trkpt lat="55.7469704549678" lon="52.36749081686085"><ele>67.0</ele><time>2026-04-19T10:27:09Z</time></trkpt><trkpt lat="55.74704951932146" lon="52.367447885243536"><ele>66.16666666666666</ele><time>2026-04-19T10:27:12Z</time></trkpt><trkpt lat="55.74712220069018" lon="52.36750060774563"><ele>65.33333333333333</ele><time>2026-04-19T10:27:14Z</time></trkpt><trkpt lat="55.747195990144554" lon="52.367567245104844"><ele>64.5</ele><time>2026-04-19T10:27:16Z</time></trkpt><trkpt lat="55.74727945592183" lon="52.367608387324175"><ele>63.66666666666667</ele><time>2026-04-19T10:27:18Z</time></trkpt><trkpt lat="55.74737119161247" lon="52.36766398252935"><ele>62.833333333333336</ele><time>2026-04-19T10:27:20Z</time></trkpt><trkpt lat="55.747470360792676" lon="52.36771421991616"><ele>62.0</ele><time>2026-04-19T10:27:22Z</time></trkpt><trkpt lat="55.74757100028542" lon="52.36776252458726"><ele>62.0</ele><time>2026-04-19T10:27:24Z</time></trkpt><trkpt lat="55.747671805685194" lon="52.36780614196712"><ele>62.0</ele><time>2026-04-19T10:27:26Z</time></trkpt><trkpt lat="55.747769202518484" lon="52.36789565750633"><ele>62.0</ele><time>2026-04-19T10:27:28Z</time></trkpt><trkpt lat="55.74783184968985" lon="52.368014972981605"><ele>62.0</ele><time>2026-04-19T10:27:30Z</time></trkpt><trkpt lat="55.74788560905549" lon="52.368128959668134"><ele>62.0</ele><time>2026-04-19T10:27:32Z</time></trkpt><trkpt lat="55.74796690022262" lon="52.368184418712815"><ele>62.8</ele><time>2026-04-19T10:27:34Z</time></trkpt><trkpt lat="55.748067344611584" lon="52.36821627208529"><ele>63.6</ele><time>2026-04-19T10:27:36Z</time></trkpt><trkpt lat="55.748165464197015" lon="52.36824767044812"><ele>64.39999999999999</ele><time>2026-04-19T10:27:38Z</time></trkpt><trkpt lat="55.74826477144023" lon="52.368273027188394"><ele>65.2</ele><time>2026-04-19T10:27:40Z</time></trkpt><trkpt lat="55.748364713171064" lon="52.3683258065803"><ele>66.0</ele><time>2026-04-19T10:27:42Z</time></trkpt><trkpt lat="55.748442131641525" lon="52.36834538936476"><ele>65.6</ele><time>2026-04-19T10:27:45Z</time></trkpt><trkpt lat="55.74855122508677" lon="52.36833850880894"><ele>65.19999999999999</ele><time>2026-04-19T10:27:46Z</time></trkpt><trkpt lat="55.74864892764582" lon="52.36831327929471"><ele>64.80000000000001</ele><time>2026-04-19T10:27:48Z</time></trkpt><trkpt lat="55.74875269174538" lon="52.368299193951515"><ele>64.4</ele><time>2026-04-19T10:27:50Z</time></trkpt><trkpt lat="55.74885793227435" lon="52.36829401462913"><ele>64.0</ele><time>2026-04-19T10:27:52Z</time></trkpt><trkpt lat="55.74896577218473" lon="52.36828678520098"><ele>64.0</ele><time>2026-04-19T10:27:54Z</time></trkpt><trkpt lat="55.74907518673664" lon="52.36828068662124"><ele>64.0</ele><time>2026-04-19T10:27:56Z</time></trkpt><trkpt lat="55.74919306937989" lon="52.368271540172856"><ele>64.0</ele><time>2026-04-19T10:27:58.001Z</time></trkpt><trkpt lat="55.74930405922002" lon="52.36828759794158"><ele>64.0</ele><time>2026-04-19T10:28:00.001Z</time></trkpt><trkpt lat="55.74941269468907" lon="52.368287348313814"><ele>64.0</ele><time>2026-04-19T10:28:02.001Z</time></trkpt><trkpt lat="55.74952354342601" lon="52.368280316975735"><ele>64.5</ele><time>2026-04-19T10:28:04.001Z</time></trkpt><trkpt lat="55.749642382831894" lon="52.36827278178699"><ele>65.0</ele><time>2026-04-19T10:28:06.001Z</time></trkpt><trkpt lat="55.749753435234815" lon="52.368263690041104"><ele>65.5</ele><time>2026-04-19T10:28:08.001Z</time></trkpt><trkpt lat="55.74986466771593" lon="52.36826113957883"><ele>66.0</ele><time>2026-04-19T10:28:10.001Z</time></trkpt><trkpt lat="55.7499748907545" lon="52.368248245758345"><ele>66.0</ele><time>2026-04-19T10:28:12.001Z</time></trkpt><trkpt lat="55.75008658588077" lon="52.36823917453138"><ele>66.0</ele><time>2026-04-19T10:28:14.001Z</time></trkpt><trkpt lat="55.75019993066004" lon="52.36823263462665"><ele>66.0</ele><time>2026-04-19T10:28:16.001Z</time></trkpt><trkpt lat="55.750309607403416" lon="52.3682348787936"><ele>66.0</ele><time>2026-04-19T10:28:18.001Z</time></trkpt><trkpt lat="55.750422376686636" lon="52.36821885788045"><ele>66.0</ele><time>2026-04-19T10:28:20.001Z</time></trkpt><trkpt lat="55.7505363621564" lon="52.36821286515819"><ele>66.5</ele><time>2026-04-19T10:28:22.001Z</time></trkpt><trkpt lat="55.75065082470513" lon="52.36820340289592"><ele>67.0</ele><time>2026-04-19T10:28:24.001Z</time></trkpt><trkpt lat="55.75076202966435" lon="52.368186034878306"><ele>67.5</ele><time>2026-04-19T10:28:26.001Z</time></trkpt><trkpt lat="55.75087524600317" lon="52.36817916009505"><ele>68.0</ele><time>2026-04-19T10:28:28.001Z</time></trkpt><trkpt lat="55.75098567162141" lon="52.36817445392774"><ele>67.6</ele><time>2026-04-19T10:28:30.001Z</time></trkpt><trkpt lat="55.75109553994101" lon="52.368167482241205"><ele>67.19999999999999</ele><time>2026-04-19T10:28:32.001Z</time></trkpt><trkpt lat="55.75120162521239" lon="52.368155288522"><ele>66.8</ele><time>2026-04-19T10:28:34.001Z</time></trkpt><trkpt lat="55.75130369435357" lon="52.36815472771034"><ele>66.39999999999999</ele><time>2026-04-19T10:28:36.001Z</time></trkpt><trkpt lat="55.75140524561247" lon="52.36816819632116"><ele>66.0</ele><time>2026-04-19T10:28:38.001Z</time></trkpt><trkpt lat="55.751507057551514" lon="52.36816244189695"><ele>66.0</ele><time>2026-04-19T10:28:40.001Z</time></trkpt><trkpt lat="55.751611481308046" lon="52.36815331358718"><ele>66.0</ele><time>2026-04-19T10:28:42.001Z</time></trkpt><trkpt lat="55.75171506656345" lon="52.36814583523378"><ele>66.0</ele><time>2026-04-19T10:28:44.001Z</time></trkpt><trkpt lat="55.75180551959404" lon="52.368147236057396"><ele>66.0</ele><time>2026-04-19T10:28:46.001Z</time></trkpt><trkpt lat="55.75189234691913" lon="52.36814279381408"><ele>66.0</ele><time>2026-04-19T10:28:48.001Z</time></trkpt><trkpt lat="55.75198195333291" lon="52.36814297520014"><ele>66.0</ele><time>2026-04-19T10:28:50.001Z</time></trkpt><trkpt lat="55.75207118682329" lon="52.368138756461704"><ele>66.0</ele><time>2026-04-19T10:28:52.001Z</time></trkpt><trkpt lat="55.752162371257285" lon="52.368136333684745"><ele>66.0</ele><time>2026-04-19T10:28:54.001Z</time></trkpt><trkpt lat="55.75225382223072" lon="52.36813541082459"><ele>66.0</ele><time>2026-04-19T10:28:56.001Z</time></trkpt><trkpt lat="55.75233702065542" lon="52.36813317174174"><ele>66.0</ele><time>2026-04-19T10:28:58.001Z</time></trkpt><trkpt lat="55.75243970620061" lon="52.36814014976477"><ele>66.0</ele><time>2026-04-19T10:29:00.001Z</time></trkpt><trkpt lat="55.75253776971937" lon="52.36814147147806"><ele>66.0</ele><time>2026-04-19T10:29:02.001Z</time></trkpt><trkpt lat="55.7526318589502" lon="52.36815906798876"><ele>66.0</ele><time>2026-04-19T10:29:04.001Z</time></trkpt><trkpt lat="55.7527279671811" lon="52.3681670262896"><ele>66.0</ele><time>2026-04-19T10:29:06.001Z</time></trkpt><trkpt lat="55.75281826462239" lon="52.36818420857765"><ele>66.0</ele><time>2026-04-19T10:29:08Z</time></trkpt><trkpt lat="55.7529062796782" lon="52.368193286303"><ele>66.75</ele><time>2026-04-19T10:29:10Z</time></trkpt><trkpt lat="55.75302160528831" lon="52.36819141508823"><ele>67.5</ele><time>2026-04-19T10:29:13Z</time></trkpt><trkpt lat="55.75317492627108" lon="52.368214389145514"><ele>68.25</ele><time>2026-04-19T10:29:16Z</time></trkpt><trkpt lat="55.75326551148728" lon="52.36822282716877"><ele>69.0</ele><time>2026-04-19T10:29:18Z</time></trkpt><trkpt lat="55.753355990347345" lon="52.36824364532013"><ele>69.0</ele><time>2026-04-19T10:29:20Z</time></trkpt><trkpt lat="55.75344826232177" lon="52.36825018674675"><ele>69.0</ele><time>2026-04-19T10:29:22Z</time></trkpt><trkpt lat="55.753540392939435" lon="52.368264386386386"><ele>69.0</ele><time>2026-04-19T10:29:24Z</time></trkpt><trkpt lat="55.753636262213256" lon="52.36828493458087"><ele>69.0</ele><time>2026-04-19T10:29:26Z</time></trkpt><trkpt lat="55.75372435843729" lon="52.3682887421937"><ele>69.0</ele><time>2026-04-19T10:29:28Z</time></trkpt><trkpt lat="55.753818596856235" lon="52.36829596815923"><ele>68.60000000000001</ele><time>2026-04-19T10:29:30Z</time></trkpt><trkpt lat="55.75391043152848" lon="52.368305706671784"><ele>68.2</ele><time>2026-04-19T10:29:32Z</time></trkpt><trkpt lat="55.75400707496759" lon="52.368317392260565"><ele>67.80000000000001</ele><time>2026-04-19T10:29:34Z</time></trkpt><trkpt lat="55.75409993984699" lon="52.368329083924465"><ele>67.4</ele><time>2026-04-19T10:29:36Z</time></trkpt><trkpt lat="55.754185819269395" lon="52.368339496542404"><ele>67.0</ele><time>2026-04-19T10:29:39Z</time></trkpt><trkpt lat="55.75432941028581" lon="52.36836239512951"><ele>66.4</ele><time>2026-04-19T10:29:41Z</time></trkpt><trkpt lat="55.75442028301762" lon="52.3683707118302"><ele>65.80000000000001</ele><time>2026-04-19T10:29:43Z</time></trkpt><trkpt lat="55.75450646157613" lon="52.36837971927724"><ele>65.2</ele><time>2026-04-19T10:29:45Z</time></trkpt><trkpt lat="55.7545960278539" lon="52.36838887966842"><ele>64.60000000000001</ele><time>2026-04-19T10:29:47.001Z</time></trkpt><trkpt lat="55.75468765740149" lon="52.368397901788306"><ele>64.0</ele><time>2026-04-19T10:29:49.001Z</time></trkpt><trkpt lat="55.75477985419253" lon="52.3684125520618"><ele>63.99999999999999</ele><time>2026-04-19T10:29:51.001Z</time></trkpt><trkpt lat="55.754864569325406" lon="52.36842494897599"><ele>64.0</ele><time>2026-04-19T10:29:53.001Z</time></trkpt><trkpt lat="55.75494705124221" lon="52.36843127895721"><ele>64.0</ele><time>2026-04-19T10:29:55.001Z</time></trkpt><trkpt lat="55.7550346645905" lon="52.36843927617654"><ele>64.0</ele><time>2026-04-19T10:29:57.001Z</time></trkpt><trkpt lat="55.755124722220486" lon="52.36845493404994"><ele>63.99999999999999</ele><time>2026-04-19T10:29:59.001Z</time></trkpt><trkpt lat="55.75518824407242" lon="52.36846296912843"><ele>64.0</ele><time>2026-04-19T10:30:01.001Z</time></trkpt><trkpt lat="55.75525910191453" lon="52.36847727526462"><ele>63.400000000000006</ele><time>2026-04-19T10:30:03.001Z</time></trkpt><trkpt lat="55.75533731074777" lon="52.3684775498693"><ele>62.800000000000004</ele><time>2026-04-19T10:30:04.001Z</time></trkpt><trkpt lat="55.755430664127054" lon="52.368493198229864"><ele>62.199999999999996</ele><time>2026-04-19T10:30:06.001Z</time></trkpt><trkpt lat="55.75552268064927" lon="52.36852823386403"><ele>61.599999999999994</ele><time>2026-04-19T10:30:08.001Z</time></trkpt><trkpt lat="55.755611943077774" lon="52.36858015352247"><ele>61.0</ele><time>2026-04-19T10:30:10.001Z</time></trkpt><trkpt lat="55.755702668017214" lon="52.36864037148449"><ele>61.0</ele><time>2026-04-19T10:30:12.001Z</time></trkpt><trkpt lat="55.755791509893015" lon="52.36869291176744"><ele>60.99999999999999</ele><time>2026-04-19T10:30:14.001Z</time></trkpt><trkpt lat="55.75588327026928" lon="52.36874936115695"><ele>60.99999999999999</ele><time>2026-04-19T10:30:16.001Z</time></trkpt><trkpt lat="55.75597656063143" lon="52.36880519529648"><ele>61.0</ele><time>2026-04-19T10:30:18.001Z</time></trkpt><trkpt lat="55.756073128823616" lon="52.36886241489863"><ele>61.0</ele><time>2026-04-19T10:30:20.001Z</time></trkpt><trkpt lat="55.75617004832714" lon="52.36891514306804"><ele>61.8</ele><time>2026-04-19T10:30:22.001Z</time></trkpt><trkpt lat="55.756265023929956" lon="52.36897655808773"><ele>62.599999999999994</ele><time>2026-04-19T10:30:24.001Z</time></trkpt><trkpt lat="55.75636162662242" lon="52.36903437805773"><ele>63.4</ele><time>2026-04-19T10:30:26.001Z</time></trkpt><trkpt lat="55.75645338000289" lon="52.36909225601586"><ele>64.2</ele><time>2026-04-19T10:30:28.001Z</time></trkpt><trkpt lat="55.756548944561544" lon="52.36914564020034"><ele>65.0</ele><time>2026-04-19T10:30:30.001Z</time></trkpt><trkpt lat="55.756650935387796" lon="52.36920091214263"><ele>65.0</ele><time>2026-04-19T10:30:32.001Z</time></trkpt><trkpt lat="55.75674816538715" lon="52.3692558935947"><ele>65.0</ele><time>2026-04-19T10:30:34.001Z</time></trkpt><trkpt lat="55.75683798035311" lon="52.36930407181951"><ele>65.0</ele><time>2026-04-19T10:30:36Z</time></trkpt><trkpt lat="55.756919248927474" lon="52.36935471131678"><ele>65.0</ele><time>2026-04-19T10:30:38Z</time></trkpt><trkpt lat="55.75700064273434" lon="52.369397520120394"><ele>65.0</ele><time>2026-04-19T10:30:40Z</time></trkpt><trkpt lat="55.7570790348874" lon="52.36944147062238"><ele>65.0</ele><time>2026-04-19T10:30:42Z</time></trkpt><trkpt lat="55.75715255332344" lon="52.36947952161223"><ele>64.71428571428572</ele><time>2026-04-19T10:30:44Z</time></trkpt><trkpt lat="55.75720779391998" lon="52.36941344023633"><ele>64.42857142857143</ele><time>2026-04-19T10:30:46Z</time></trkpt><trkpt lat="55.75724434561122" lon="52.369300787205084"><ele>64.14285714285714</ele><time>2026-04-19T10:30:50Z</time></trkpt><trkpt lat="55.757201593162264" lon="52.369195295898166"><ele>63.85714285714286</ele><time>2026-04-19T10:30:53Z</time></trkpt><trkpt lat="55.75719156334659" lon="52.36931077925416"><ele>63.57142857142857</ele><time>2026-04-19T10:33:50Z</time></trkpt><trkpt lat="55.75719993131928" lon="52.36944796466476"><ele>63.285714285714285</ele><time>2026-04-19T10:33:54Z</time></trkpt><trkpt lat="55.75725457944448" lon="52.36956080226838"><ele>63.0</ele><time>2026-04-19T10:33:56Z</time></trkpt><trkpt lat="55.757328206608854" lon="52.36959502673261"><ele>63.0</ele><time>2026-04-19T10:33:58Z</time></trkpt><trkpt lat="55.757399459732284" lon="52.36963922979088"><ele>63.0</ele><time>2026-04-19T10:34:00Z</time></trkpt><trkpt lat="55.7574776971564" lon="52.36967653873878"><ele>63.0</ele><time>2026-04-19T10:34:02Z</time></trkpt><trkpt lat="55.75756238301449" lon="52.36972554545253"><ele>63.0</ele><time>2026-04-19T10:34:04Z</time></trkpt><trkpt lat="55.75764721373958" lon="52.36977911660631"><ele>63.0</ele><time>2026-04-19T10:34:06Z</time></trkpt><trkpt lat="55.75773762159862" lon="52.369826831580525"><ele>63.0</ele><time>2026-04-19T10:34:08Z</time></trkpt><trkpt lat="55.757824218010676" lon="52.36987759081914"><ele>63.0</ele><time>2026-04-19T10:34:10Z</time></trkpt><trkpt lat="55.75791377678017" lon="52.36993274514073"><ele>63.0</ele><time>2026-04-19T10:34:12Z</time></trkpt><trkpt lat="55.75800677904947" lon="52.369980750923894"><ele>63.0</ele><time>2026-04-19T10:34:14Z</time></trkpt><trkpt lat="55.75809543823421" lon="52.37003388365781"><ele>63.0</ele><time>2026-04-19T10:34:16Z</time></trkpt><trkpt lat="55.75818461061776" lon="52.37008642926285"><ele>63.0</ele><time>2026-04-19T10:34:18Z</time></trkpt><trkpt lat="55.75827084345989" lon="52.37014061265405"><ele>63.0</ele><time>2026-04-19T10:34:20Z</time></trkpt><trkpt lat="55.758400739882475" lon="52.37021678565726"><ele>63.0</ele><time>2026-04-19T10:34:23Z</time></trkpt><trkpt lat="55.75848964189053" lon="52.370272360170446"><ele>63.0</ele><time>2026-04-19T10:34:25Z</time></trkpt><trkpt lat="55.7585798092567" lon="52.37031794878347"><ele>63.0</ele><time>2026-04-19T10:34:27Z</time></trkpt><trkpt lat="55.758672016127406" lon="52.37036472003609"><ele>63.0</ele><time>2026-04-19T10:34:29Z</time></trkpt><trkpt lat="55.758760426733005" lon="52.37042227523811"><ele>63.2</ele><time>2026-04-19T10:34:31Z</time></trkpt><trkpt lat="55.7588473258044" lon="52.37047367427426"><ele>63.4</ele><time>2026-04-19T10:34:33Z</time></trkpt><trkpt lat="55.75894383933708" lon="52.37052450081266"><ele>63.60000000000001</ele><time>2026-04-19T10:34:35Z</time></trkpt><trkpt lat="55.75903275343117" lon="52.370580906848154"><ele>63.800000000000004</ele><time>2026-04-19T10:34:37Z</time></trkpt><trkpt lat="55.75911711941938" lon="52.370647103121094"><ele>64.0</ele><time>2026-04-19T10:34:39.001Z</time></trkpt><trkpt lat="55.75921187307793" lon="52.37069173181337"><ele>64.0</ele><time>2026-04-19T10:34:41.001Z</time></trkpt><trkpt lat="55.75930473787798" lon="52.37074973823076"><ele>64.0</ele><time>2026-04-19T10:34:43.001Z</time></trkpt><trkpt lat="55.75939745908491" lon="52.37080504585656"><ele>64.0</ele><time>2026-04-19T10:34:45.001Z</time></trkpt><trkpt lat="55.75954477372928" lon="52.37088001727713"><ele>64.0</ele><time>2026-04-19T10:34:48.001Z</time></trkpt><trkpt lat="55.75963762070107" lon="52.370938530564686"><ele>64.0</ele><time>2026-04-19T10:34:50.001Z</time></trkpt><trkpt lat="55.75972688078764" lon="52.370993110898745"><ele>63.6</ele><time>2026-04-19T10:34:52.001Z</time></trkpt><trkpt lat="55.759816935429136" lon="52.3710476128877"><ele>63.2</ele><time>2026-04-19T10:34:54.001Z</time></trkpt><trkpt lat="55.759908876555514" lon="52.37110494242419"><ele>62.800000000000004</ele><time>2026-04-19T10:34:56.001Z</time></trkpt><trkpt lat="55.75999863871566" lon="52.37115449364097"><ele>62.400000000000006</ele><time>2026-04-19T10:34:58.001Z</time></trkpt><trkpt lat="55.760084087045065" lon="52.371205647571514"><ele>62.0</ele><time>2026-04-19T10:35:00.001Z</time></trkpt><trkpt lat="55.76017683802223" lon="52.37126362479192"><ele>61.6</ele><time>2026-04-19T10:35:02.001Z</time></trkpt><trkpt lat="55.76027437148677" lon="52.37131853670821"><ele>61.2</ele><time>2026-04-19T10:35:04.001Z</time></trkpt><trkpt lat="55.760368887900846" lon="52.37138440522857"><ele>60.8</ele><time>2026-04-19T10:35:06.001Z</time></trkpt><trkpt lat="55.760462337714976" lon="52.37143822586409"><ele>60.4</ele><time>2026-04-19T10:35:08.001Z</time></trkpt><trkpt lat="55.760561600628556" lon="52.37149215568351"><ele>60.0</ele><time>2026-04-19T10:35:10.001Z</time></trkpt><trkpt lat="55.76064033250442" lon="52.371538100958325"><ele>60.4</ele><time>2026-04-19T10:35:13.001Z</time></trkpt><trkpt lat="55.76074787104045" lon="52.37159713439202"><ele>60.8</ele><time>2026-04-19T10:35:14.001Z</time></trkpt><trkpt lat="55.760840948204454" lon="52.371630708463265"><ele>61.2</ele><time>2026-04-19T10:35:16.001Z</time></trkpt><trkpt lat="55.76093567602091" lon="52.371673919550275"><ele>61.6</ele><time>2026-04-19T10:35:18.001Z</time></trkpt><trkpt lat="55.76102860016591" lon="52.371733215596485"><ele>62.0</ele><time>2026-04-19T10:35:20.001Z</time></trkpt><trkpt lat="55.76112194180883" lon="52.37179107050905"><ele>62.0</ele><time>2026-04-19T10:35:22.001Z</time></trkpt><trkpt lat="55.76121246706169" lon="52.37186617893319"><ele>62.0</ele><time>2026-04-19T10:35:24.001Z</time></trkpt><trkpt lat="55.761301904894744" lon="52.371936021761144"><ele>62.0</ele><time>2026-04-19T10:35:26Z</time></trkpt><trkpt lat="55.76138912619344" lon="52.37200636280972"><ele>62.0</ele><time>2026-04-19T10:35:28Z</time></trkpt><trkpt lat="55.76147706023341" lon="52.37206669107778"><ele>62.0</ele><time>2026-04-19T10:35:30Z</time></trkpt><trkpt lat="55.761569295112295" lon="52.37213285541402"><ele>61.75</ele><time>2026-04-19T10:35:32Z</time></trkpt><trkpt lat="55.76164825022794" lon="52.37221435892856"><ele>61.5</ele><time>2026-04-19T10:35:34Z</time></trkpt><trkpt lat="55.7617207403774" lon="52.372318284464356"><ele>61.25</ele><time>2026-04-19T10:35:36Z</time></trkpt><trkpt lat="55.76180502314818" lon="52.37245701774032"><ele>61.0</ele><time>2026-04-19T10:35:39Z</time></trkpt><trkpt lat="55.76192698968474" lon="52.37267971030617"><ele>61.0</ele><time>2026-04-19T10:35:42Z</time></trkpt><trkpt lat="55.761987823360215" lon="52.37280627639412"><ele>60.99999999999999</ele><time>2026-04-19T10:35:44Z</time></trkpt><trkpt lat="55.762051432461064" lon="52.37292739073863"><ele>60.99999999999999</ele><time>2026-04-19T10:35:46Z</time></trkpt><trkpt lat="55.762115127493765" lon="52.37304421015814"><ele>61.0</ele><time>2026-04-19T10:35:48Z</time></trkpt><trkpt lat="55.762177723905346" lon="52.37314984831315"><ele>61.0</ele><time>2026-04-19T10:35:50Z</time></trkpt><trkpt lat="55.76224941254854" lon="52.37325496226823"><ele>61.599999999999994</ele><time>2026-04-19T10:35:52Z</time></trkpt><trkpt lat="55.76231253908249" lon="52.37338370371415"><ele>62.199999999999996</ele><time>2026-04-19T10:35:54Z</time></trkpt><trkpt lat="55.7623776963138" lon="52.37351037862408"><ele>62.800000000000004</ele><time>2026-04-19T10:35:56Z</time></trkpt><trkpt lat="55.76244240041685" lon="52.37364397102973"><ele>63.400000000000006</ele><time>2026-04-19T10:35:58Z</time></trkpt><trkpt lat="55.76251019213475" lon="52.37377983534442"><ele>64.0</ele><time>2026-04-19T10:36:00Z</time></trkpt><trkpt lat="55.76257444939882" lon="52.37391089389307"><ele>64.5</ele><time>2026-04-19T10:36:02Z</time></trkpt><trkpt lat="55.762635627379424" lon="52.374009050931136"><ele>65.0</ele><time>2026-04-19T10:36:04Z</time></trkpt><trkpt lat="55.76267674950634" lon="52.3741292549158"><ele>65.5</ele><time>2026-04-19T10:36:07Z</time></trkpt><trkpt lat="55.76269358290883" lon="52.37430908931766"><ele>66.0</ele><time>2026-04-19T10:36:08Z</time></trkpt><trkpt lat="55.76268111191095" lon="52.374464339670325"><ele>66.5</ele><time>2026-04-19T10:36:10Z</time></trkpt><trkpt lat="55.76266283016416" lon="52.374615749995144"><ele>67.0</ele><time>2026-04-19T10:36:12Z</time></trkpt><trkpt lat="55.762638496209455" lon="52.37472777994541"><ele>67.5</ele><time>2026-04-19T10:36:14Z</time></trkpt><trkpt lat="55.76262409653885" lon="52.37486066124974"><ele>68.0</ele><time>2026-04-19T10:36:17.001Z</time></trkpt><trkpt lat="55.76255878891708" lon="52.374959432151456"><ele>68.5</ele><time>2026-04-19T10:36:19.001Z</time></trkpt><trkpt lat="55.762503410102276" lon="52.37504495177635"><ele>69.0</ele><time>2026-04-19T10:36:21.001Z</time></trkpt><trkpt lat="55.76242784005949" lon="52.37510070407439"><ele>69.5</ele><time>2026-04-19T10:36:23.001Z</time></trkpt><trkpt lat="55.762339245397605" lon="52.37516033595695"><ele>70.0</ele><time>2026-04-19T10:36:25.001Z</time></trkpt><trkpt lat="55.76228466611579" lon="52.375302756442785"><ele>70.0</ele><time>2026-04-19T10:36:28.001Z</time></trkpt><trkpt lat="55.762233519747994" lon="52.375419922850135"><ele>70.0</ele><time>2026-04-19T10:36:32.001Z</time></trkpt><trkpt lat="55.762177975880235" lon="52.37553676315815"><ele>70.0</ele><time>2026-04-19T10:36:35.001Z</time></trkpt><trkpt lat="55.76213277969748" lon="52.37564282486759"><ele>70.0</ele><time>2026-04-19T10:36:38.001Z</time></trkpt><trkpt lat="55.76208211840288" lon="52.375723842238884"><ele>70.0</ele><time>2026-04-19T10:36:41.001Z</time></trkpt><trkpt lat="55.762019741235385" lon="52.37582272908719"><ele>70.0</ele><time>2026-04-19T10:36:49.001Z</time></trkpt><trkpt lat="55.76196884849718" lon="52.3758927421016"><ele>70.33333333333333</ele><time>2026-04-19T10:36:52.001Z</time></trkpt><trkpt lat="55.76190343561548" lon="52.37600052266841"><ele>70.66666666666666</ele><time>2026-04-19T10:36:56.001Z</time></trkpt><trkpt lat="55.76184859716996" lon="52.37608983968647"><ele>71.0</ele><time>2026-04-19T10:37:00.001Z</time></trkpt><trkpt lat="55.761887166124666" lon="52.37618186474474"><ele>71.33333333333333</ele><time>2026-04-19T10:37:04.001Z</time></trkpt><trkpt lat="55.76193393813166" lon="52.3762823790378"><ele>71.66666666666667</ele><time>2026-04-19T10:37:08.001Z</time></trkpt><trkpt lat="55.761992487051415" lon="52.37637269406647"><ele>72.0</ele><time>2026-04-19T10:37:11.001Z</time></trkpt><trkpt lat="55.76209312680456" lon="52.37654932161657"><ele>72.0</ele><time>2026-04-19T10:37:13.001Z</time></trkpt><trkpt lat="55.76212938484841" lon="52.376659888971254"><ele>72.0</ele><time>2026-04-19T10:37:15.001Z</time></trkpt><trkpt lat="55.762150629034686" lon="52.37677302538005"><ele>72.0</ele><time>2026-04-19T10:37:19.001Z</time></trkpt><trkpt lat="55.76219697468771" lon="52.37686051464427"><ele>72.0</ele><time>2026-04-19T10:37:23.002Z</time></trkpt><trkpt lat="55.76226481845921" lon="52.37698541986211"><ele>72.0</ele><time>2026-04-19T10:37:26.002Z</time></trkpt><trkpt lat="55.76234098585907" lon="52.37707929438938"><ele>72.0</ele><time>2026-04-19T10:37:29.002Z</time></trkpt><trkpt lat="55.76243229204771" lon="52.377179558253225"><ele>72.2</ele><time>2026-04-19T10:37:32Z</time></trkpt><trkpt lat="55.76250332059059" lon="52.3772705308182"><ele>72.4</ele><time>2026-04-19T10:37:36Z</time></trkpt><trkpt lat="55.762587676381656" lon="52.377360363488556"><ele>72.6</ele><time>2026-04-19T10:37:38Z</time></trkpt><trkpt lat="55.762645394203474" lon="52.37746876614048"><ele>72.8</ele><time>2026-04-19T10:37:40Z</time></trkpt><trkpt lat="55.76277510026579" lon="52.3775528957056"><ele>73.0</ele><time>2026-04-19T10:37:41Z</time></trkpt><trkpt lat="55.7628353488262" lon="52.377653026438836"><ele>72.14285714285714</ele><time>2026-04-19T10:37:43Z</time></trkpt><trkpt lat="55.76288876910538" lon="52.37774744820332"><ele>71.28571428571429</ele><time>2026-04-19T10:37:46Z</time></trkpt><trkpt lat="55.76289910515832" lon="52.377861938406255"><ele>70.42857142857143</ele><time>2026-04-19T10:37:49Z</time></trkpt><trkpt lat="55.762888596791264" lon="52.37799330109577"><ele>69.57142857142857</ele><time>2026-04-19T10:37:52Z</time></trkpt><trkpt lat="55.76287951119716" lon="52.378115798278856"><ele>68.71428571428571</ele><time>2026-04-19T10:37:54Z</time></trkpt><trkpt lat="55.76286593576219" lon="52.37827134616158"><ele>67.85714285714286</ele><time>2026-04-19T10:37:57Z</time></trkpt><trkpt lat="55.762869130438865" lon="52.37839963530278"><ele>67.0</ele><time>2026-04-19T10:37:59.001Z</time></trkpt><trkpt lat="55.762832735560146" lon="52.37849767305318"><ele>66.66666666666666</ele><time>2026-04-19T10:38:02.001Z</time></trkpt><trkpt lat="55.762840461485766" lon="52.378647723090936"><ele>66.33333333333333</ele><time>2026-04-19T10:38:05.001Z</time></trkpt><trkpt lat="55.76286381430398" lon="52.37877969842587"><ele>66.0</ele><time>2026-04-19T10:38:08.001Z</time></trkpt><trkpt lat="55.76285710834565" lon="52.37891649267696"><ele>65.66666666666667</ele><time>2026-04-19T10:38:11.001Z</time></trkpt><trkpt lat="55.76286574820187" lon="52.37906659058084"><ele>65.33333333333334</ele><time>2026-04-19T10:38:13.001Z</time></trkpt><trkpt lat="55.762867107570735" lon="52.379221799127684"><ele>65.0</ele><time>2026-04-19T10:38:16.001Z</time></trkpt><trkpt lat="55.762873994170874" lon="52.37934013885406"><ele>64.83333333333334</ele><time>2026-04-19T10:38:19.001Z</time></trkpt><trkpt lat="55.762887726579564" lon="52.379472196520915"><ele>64.66666666666667</ele><time>2026-04-19T10:38:22.001Z</time></trkpt><trkpt lat="55.762860623678854" lon="52.379589132477065"><ele>64.5</ele><time>2026-04-19T10:38:25.001Z</time></trkpt><trkpt lat="55.762808441908575" lon="52.37969479061716"><ele>64.33333333333333</ele><time>2026-04-19T10:38:28.001Z</time></trkpt><trkpt lat="55.76274412168478" lon="52.379781738880034"><ele>64.16666666666666</ele><time>2026-04-19T10:38:31.001Z</time></trkpt><trkpt lat="55.76267517714706" lon="52.379847107865864"><ele>64.0</ele><time>2026-04-19T10:38:34.001Z</time></trkpt><trkpt lat="55.7626571300422" lon="52.37998578795524"><ele>63.83333333333333</ele><time>2026-04-19T10:38:37.001Z</time></trkpt><trkpt lat="55.76266632334851" lon="52.38013583377751"><ele>63.666666666666664</ele><time>2026-04-19T10:38:39.001Z</time></trkpt><trkpt lat="55.762709831778835" lon="52.38024075989502"><ele>63.5</ele><time>2026-04-19T10:38:41.001Z</time></trkpt><trkpt lat="55.76273889492164" lon="52.380341017226606"><ele>63.33333333333333</ele><time>2026-04-19T10:38:43.001Z</time></trkpt><trkpt lat="55.76281259051999" lon="52.38053915601151"><ele>63.166666666666664</ele><time>2026-04-19T10:38:45.001Z</time></trkpt><trkpt lat="55.76288013148293" lon="52.38064982688083"><ele>63.0</ele><time>2026-04-19T10:38:47.001Z</time></trkpt><trkpt lat="55.76293872867647" lon="52.38078786988205"><ele>63.0</ele><time>2026-04-19T10:38:49.001Z</time></trkpt><trkpt lat="55.762954969569954" lon="52.380962881292504"><ele>63.0</ele><time>2026-04-19T10:38:51.001Z</time></trkpt><trkpt lat="55.76295519922232" lon="52.38114321271228"><ele>63.0</ele><time>2026-04-19T10:38:53.001Z</time></trkpt><trkpt lat="55.76296284677344" lon="52.38133036660796"><ele>63.0</ele><time>2026-04-19T10:38:55.001Z</time></trkpt><trkpt lat="55.76296936907698" lon="52.38152766679455"><ele>63.0</ele><time>2026-04-19T10:38:57.001Z</time></trkpt><trkpt lat="55.762975158797985" lon="52.381709231116844"><ele>63.0</ele><time>2026-04-19T10:38:59.001Z</time></trkpt><trkpt lat="55.76297860841999" lon="52.381911669491195"><ele>63.0</ele><time>2026-04-19T10:39:01.001Z</time></trkpt><trkpt lat="55.76296202427517" lon="52.38210606262869"><ele>63.0</ele><time>2026-04-19T10:39:03.001Z</time></trkpt><trkpt lat="55.762963637247985" lon="52.38231686515547"><ele>63.0</ele><time>2026-04-19T10:39:05.001Z</time></trkpt><trkpt lat="55.76295938705045" lon="52.38249756448575"><ele>63.0</ele><time>2026-04-19T10:39:07.001Z</time></trkpt><trkpt lat="55.76296262044888" lon="52.38261040230003"><ele>63.0</ele><time>2026-04-19T10:39:09.001Z</time></trkpt><trkpt lat="55.76295625517065" lon="52.382746045590785"><ele>63.0</ele><time>2026-04-19T10:39:10.001Z</time></trkpt><trkpt lat="55.76296179587724" lon="52.38291521624182"><ele>63.0</ele><time>2026-04-19T10:39:12.001Z</time></trkpt><trkpt lat="55.76295094738888" lon="52.383061454033026"><ele>63.0</ele><time>2026-04-19T10:39:14.001Z</time></trkpt><trkpt lat="55.76296885762877" lon="52.38323821441481"><ele>63.0</ele><time>2026-04-19T10:39:15.001Z</time></trkpt><trkpt lat="55.76297994688482" lon="52.383412871511645"><ele>63.166666666666664</ele><time>2026-04-19T10:39:17.002Z</time></trkpt><trkpt lat="55.76298200529777" lon="52.38357618230456"><ele>63.33333333333333</ele><time>2026-04-19T10:39:19.002Z</time></trkpt><trkpt lat="55.76299042513525" lon="52.38373550959698"><ele>63.5</ele><time>2026-04-19T10:39:21.002Z</time></trkpt><trkpt lat="55.763000175402865" lon="52.38388727846589"><ele>63.666666666666664</ele><time>2026-04-19T10:39:23.002Z</time></trkpt><trkpt lat="55.76300108241448" lon="52.384039660276294"><ele>63.83333333333333</ele><time>2026-04-19T10:39:25.002Z</time></trkpt><trkpt lat="55.76300142519595" lon="52.38420279052918"><ele>64.0</ele><time>2026-04-19T10:39:27.002Z</time></trkpt><trkpt lat="55.76300727611675" lon="52.3843658493838"><ele>64.0</ele><time>2026-04-19T10:39:29.002Z</time></trkpt><trkpt lat="55.76300986611602" lon="52.38452372030616"><ele>64.0</ele><time>2026-04-19T10:39:31.002Z</time></trkpt><trkpt lat="55.76300498596809" lon="52.384693854607704"><ele>64.0</ele><time>2026-04-19T10:39:33.002Z</time></trkpt><trkpt lat="55.76300362097513" lon="52.38486883498455"><ele>64.0</ele><time>2026-04-19T10:39:35.002Z</time></trkpt><trkpt lat="55.76299965093324" lon="52.38503364540015"><ele>64.0</ele><time>2026-04-19T10:39:38.001Z</time></trkpt><trkpt lat="55.76299891375971" lon="52.38535768243073"><ele>64.2</ele><time>2026-04-19T10:39:41.001Z</time></trkpt><trkpt lat="55.762992529916865" lon="52.385534137799"><ele>64.4</ele><time>2026-04-19T10:39:43.001Z</time></trkpt><trkpt lat="55.76299564339819" lon="52.38569546304999"><ele>64.6</ele><time>2026-04-19T10:39:45.001Z</time></trkpt><trkpt lat="55.762993006130785" lon="52.385850047159046"><ele>64.8</ele><time>2026-04-19T10:39:47.001Z</time></trkpt><trkpt lat="55.76299267727985" lon="52.386006276058225"><ele>65.0</ele><time>2026-04-19T10:39:49.001Z</time></trkpt><trkpt lat="55.76299231135213" lon="52.38617154246443"><ele>65.0</ele><time>2026-04-19T10:39:51.001Z</time></trkpt><trkpt lat="55.76299290424806" lon="52.38633351056939"><ele>65.0</ele><time>2026-04-19T10:39:53.001Z</time></trkpt><trkpt lat="55.76299751052982" lon="52.3864900491439"><ele>65.0</ele><time>2026-04-19T10:39:55.001Z</time></trkpt><trkpt lat="55.762991016386934" lon="52.386642491404984"><ele>65.0</ele><time>2026-04-19T10:39:57.001Z</time></trkpt><trkpt lat="55.76298394972797" lon="52.38680592721235"><ele>65.0</ele><time>2026-04-19T10:40:00.001Z</time></trkpt><trkpt lat="55.762986107437584" lon="52.38711948705249"><ele>65.4</ele><time>2026-04-19T10:40:03.001Z</time></trkpt><trkpt lat="55.762989516264845" lon="52.387289515019305"><ele>65.8</ele><time>2026-04-19T10:40:05.001Z</time></trkpt><trkpt lat="55.762988730163116" lon="52.38745995131827"><ele>66.2</ele><time>2026-04-19T10:40:07.001Z</time></trkpt><trkpt lat="55.76299138986966" lon="52.387628119983304"><ele>66.6</ele><time>2026-04-19T10:40:09.001Z</time></trkpt><trkpt lat="55.76299627515655" lon="52.38779433332793"><ele>67.0</ele><time>2026-04-19T10:40:11.001Z</time></trkpt><trkpt lat="55.76300480283532" lon="52.38795857637989"><ele>66.8</ele><time>2026-04-19T10:40:13.001Z</time></trkpt><trkpt lat="55.76300869475374" lon="52.38812350341245"><ele>66.6</ele><time>2026-04-19T10:40:15.001Z</time></trkpt><trkpt lat="55.76301430019047" lon="52.388315346411524"><ele>66.39999999999999</ele><time>2026-04-19T10:40:17.001Z</time></trkpt><trkpt lat="55.76301161834778" lon="52.388492026239966"><ele>66.2</ele><time>2026-04-19T10:40:19.001Z</time></trkpt><trkpt lat="55.763018118403004" lon="52.38867401422541"><ele>66.0</ele><time>2026-04-19T10:40:21.001Z</time></trkpt><trkpt lat="55.76302712577261" lon="52.38882777616543"><ele>65.75</ele><time>2026-04-19T10:40:23.001Z</time></trkpt><trkpt lat="55.763020297556125" lon="52.38912571224832"><ele>65.5</ele><time>2026-04-19T10:40:26.001Z</time></trkpt><trkpt lat="55.7630032313532" lon="52.38928915872157"><ele>65.25</ele><time>2026-04-19T10:40:28.001Z</time></trkpt><trkpt lat="55.76293701277087" lon="52.38942154277171"><ele>65.0</ele><time>2026-04-19T10:40:30.001Z</time></trkpt><trkpt lat="55.76285900148597" lon="52.38952754945546"><ele>65.0</ele><time>2026-04-19T10:40:32.001Z</time></trkpt><trkpt lat="55.76276496013736" lon="52.38962330461044"><ele>65.0</ele><time>2026-04-19T10:40:34.001Z</time></trkpt><trkpt lat="55.76267228619955" lon="52.38967558153071"><ele>65.0</ele><time>2026-04-19T10:40:36.001Z</time></trkpt><trkpt lat="55.76258077166397" lon="52.38967653455783"><ele>65.0</ele><time>2026-04-19T10:40:38.001Z</time></trkpt><trkpt lat="55.76250074952203" lon="52.38963054370347"><ele>65.0</ele><time>2026-04-19T10:40:40.001Z</time></trkpt><trkpt lat="55.762427295764766" lon="52.38959511311216"><ele>66.0</ele><time>2026-04-19T10:40:42.001Z</time></trkpt><trkpt lat="55.76235489586479" lon="52.38957994282282"><ele>67.0</ele><time>2026-04-19T10:40:44.001Z</time></trkpt><trkpt lat="55.762285008804525" lon="52.389592186327356"><ele>68.0</ele><time>2026-04-19T10:40:46.001Z</time></trkpt><trkpt lat="55.76222613666885" lon="52.389719184394664"><ele>69.0</ele><time>2026-04-19T10:40:50.001Z</time></trkpt><trkpt lat="55.762189724423365" lon="52.38989534229356"><ele>70.0</ele><time>2026-04-19T10:40:53.001Z</time></trkpt><trkpt lat="55.762171481424566" lon="52.390031583289165"><ele>71.0</ele><time>2026-04-19T10:40:56.001Z</time></trkpt><trkpt lat="55.76214821882514" lon="52.390316800331696"><ele>71.0</ele><time>2026-04-19T10:40:57.001Z</time></trkpt><trkpt lat="55.76215787830636" lon="52.390468542711744"><ele>71.0</ele><time>2026-04-19T10:40:59.001Z</time></trkpt><trkpt lat="55.76216204322331" lon="52.390619341882044"><ele>71.0</ele><time>2026-04-19T10:41:01.001Z</time></trkpt><trkpt lat="55.76215143022755" lon="52.390746434489614"><ele>71.0</ele><time>2026-04-19T10:41:03.001Z</time></trkpt><trkpt lat="55.762133810647214" lon="52.3908837049117"><ele>71.0</ele><time>2026-04-19T10:41:05.001Z</time></trkpt><trkpt lat="55.762114144522315" lon="52.39102560372762"><ele>71.0</ele><time>2026-04-19T10:41:07.001Z</time></trkpt><trkpt lat="55.76208753144511" lon="52.39115915308982"><ele>70.83333333333334</ele><time>2026-04-19T10:41:09.001Z</time></trkpt><trkpt lat="55.7620434581903" lon="52.39127425589326"><ele>70.66666666666667</ele><time>2026-04-19T10:41:11.001Z</time></trkpt><trkpt lat="55.76199711569243" lon="52.39137804269739"><ele>70.5</ele><time>2026-04-19T10:41:13.001Z</time></trkpt><trkpt lat="55.76193900438555" lon="52.3914786399701"><ele>70.33333333333333</ele><time>2026-04-19T10:41:15.001Z</time></trkpt><trkpt lat="55.76187938372152" lon="52.391564568407134"><ele>70.16666666666666</ele><time>2026-04-19T10:41:19.001Z</time></trkpt><trkpt lat="55.761828542049486" lon="52.39163228841719"><ele>70.0</ele><time>2026-04-19T10:41:21.002Z</time></trkpt><trkpt lat="55.76177787572535" lon="52.39173181776201"><ele>70.28571428571429</ele><time>2026-04-19T10:41:23.002Z</time></trkpt><trkpt lat="55.76172227262428" lon="52.39186422294579"><ele>70.57142857142857</ele><time>2026-04-19T10:41:26.002Z</time></trkpt><trkpt lat="55.761664848843886" lon="52.391961953402586"><ele>70.85714285714286</ele><time>2026-04-19T10:41:29.002Z</time></trkpt><trkpt lat="55.76161899807546" lon="52.39205346637127"><ele>71.14285714285714</ele><time>2026-04-19T10:41:31.002Z</time></trkpt><trkpt lat="55.761570438378364" lon="52.39213498372647"><ele>71.42857142857143</ele><time>2026-04-19T10:41:33.002Z</time></trkpt><trkpt lat="55.76152601616211" lon="52.3922146105636"><ele>71.71428571428572</ele><time>2026-04-19T10:41:35.002Z</time></trkpt><trkpt lat="55.761466963107026" lon="52.392282511579154"><ele>72.0</ele><time>2026-04-19T10:41:39.002Z</time></trkpt><trkpt lat="55.761407094383394" lon="52.39239264494805"><ele>72.16666666666667</ele><time>2026-04-19T10:41:43.001Z</time></trkpt><trkpt lat="55.76136318167946" lon="52.392478919667994"><ele>72.33333333333333</ele><time>2026-04-19T10:41:46.001Z</time></trkpt><trkpt lat="55.76131658818823" lon="52.39258893261628"><ele>72.5</ele><time>2026-04-19T10:41:48.001Z</time></trkpt><trkpt lat="55.76123669034171" lon="52.39270662373391"><ele>72.66666666666666</ele><time>2026-04-19T10:41:51.001Z</time></trkpt><trkpt lat="55.761167668926994" lon="52.392815948390464"><ele>72.83333333333333</ele><time>2026-04-19T10:41:53.001Z</time></trkpt><trkpt lat="55.76111118819689" lon="52.39290248051142"><ele>73.0</ele><time>2026-04-19T10:41:56.001Z</time></trkpt><trkpt lat="55.76106489857276" lon="52.39299602539794"><ele>73.33333333333333</ele><time>2026-04-19T10:41:58.001Z</time></trkpt><trkpt lat="55.761015821743776" lon="52.39312601523161"><ele>73.66666666666666</ele><time>2026-04-19T10:42:00.001Z</time></trkpt><trkpt lat="55.760978261240204" lon="52.39321997302128"><ele>74.0</ele><time>2026-04-19T10:42:02.001Z</time></trkpt><trkpt lat="55.76094685660971" lon="52.39332128035525"><ele>74.33333333333333</ele><time>2026-04-19T10:42:04.001Z</time></trkpt><trkpt lat="55.760915518789936" lon="52.393490988164864"><ele>74.66666666666667</ele><time>2026-04-19T10:42:07.001Z</time></trkpt><trkpt lat="55.76091237454827" lon="52.39360435849603"><ele>75.0</ele><time>2026-04-19T10:42:09.001Z</time></trkpt><trkpt lat="55.76093119349667" lon="52.39374559904958"><ele>75.0</ele><time>2026-04-19T10:42:12.001Z</time></trkpt><trkpt lat="55.76101999782045" lon="52.39372319709541"><ele>75.0</ele><time>2026-04-19T10:42:15.001Z</time></trkpt><trkpt lat="55.76109585323858" lon="52.393686963533995"><ele>75.0</ele><time>2026-04-19T10:42:18.001Z</time></trkpt><trkpt lat="55.761161506476974" lon="52.393679542501275"><ele>75.0</ele><time>2026-04-19T10:42:20.001Z</time></trkpt><trkpt lat="55.761225627921675" lon="52.39367349204327"><ele>75.0</ele><time>2026-04-19T10:42:22.001Z</time></trkpt><trkpt lat="55.76129829777067" lon="52.39366260831392"><ele>75.0</ele><time>2026-04-19T10:42:24.001Z</time></trkpt><trkpt lat="55.761386066369205" lon="52.39367171432328"><ele>74.66666666666667</ele><time>2026-04-19T10:42:26.001Z</time></trkpt><trkpt lat="55.761451363678994" lon="52.393704324720716"><ele>74.33333333333333</ele><time>2026-04-19T10:42:28.001Z</time></trkpt><trkpt lat="55.7615746510349" lon="52.393792248891316"><ele>74.0</ele><time>2026-04-19T10:42:30.001Z</time></trkpt><trkpt lat="55.761654360313635" lon="52.39383383205495"><ele>73.66666666666666</ele><time>2026-04-19T10:42:31.001Z</time></trkpt><trkpt lat="55.76172883343935" lon="52.393868047490166"><ele>73.33333333333333</ele><time>2026-04-19T10:42:32.001Z</time></trkpt><trkpt lat="55.761794824516514" lon="52.39389945353174"><ele>73.0</ele><time>2026-04-19T10:42:33.001Z</time></trkpt><trkpt lat="55.761854479380446" lon="52.39394377438457"><ele>72.6</ele><time>2026-04-19T10:42:34.001Z</time></trkpt><trkpt lat="55.76193050631952" lon="52.39399063601864"><ele>72.19999999999999</ele><time>2026-04-19T10:42:35.001Z</time></trkpt><trkpt lat="55.7620125180914" lon="52.39408790566752"><ele>71.8</ele><time>2026-04-19T10:42:37.001Z</time></trkpt><trkpt lat="55.7620953219644" lon="52.39417709397696"><ele>71.39999999999999</ele><time>2026-04-19T10:42:39.001Z</time></trkpt><trkpt lat="55.762173633731074" lon="52.39427662856007"><ele>71.0</ele><time>2026-04-19T10:42:41.001Z</time></trkpt><trkpt lat="55.762248459053026" lon="52.39439573812094"><ele>71.0</ele><time>2026-04-19T10:42:43.001Z</time></trkpt><trkpt lat="55.76232892151639" lon="52.39451203689178"><ele>71.0</ele><time>2026-04-19T10:42:45.001Z</time></trkpt><trkpt lat="55.762404797859176" lon="52.39462563276307"><ele>71.0</ele><time>2026-04-19T10:42:47.001Z</time></trkpt><trkpt lat="55.76247711166713" lon="52.39474623912996"><ele>71.0</ele><time>2026-04-19T10:42:49.001Z</time></trkpt><trkpt lat="55.76254532450473" lon="52.39487825327957"><ele>71.0</ele><time>2026-04-19T10:42:51.001Z</time></trkpt><trkpt lat="55.76260067962988" lon="52.394995896040534"><ele>71.0</ele><time>2026-04-19T10:42:53.001Z</time></trkpt><trkpt lat="55.76265118703329" lon="52.39510014786704"><ele>71.0</ele><time>2026-04-19T10:42:56.001Z</time></trkpt><trkpt lat="55.762751325112866" lon="52.39524482344399"><ele>71.0</ele><time>2026-04-19T10:42:57.001Z</time></trkpt><trkpt lat="55.76281929732314" lon="52.39536548085656"><ele>71.0</ele><time>2026-04-19T10:42:59.001Z</time></trkpt><trkpt lat="55.762888065060146" lon="52.39549723532343"><ele>71.0</ele><time>2026-04-19T10:43:01.001Z</time></trkpt><trkpt lat="55.76295169465113" lon="52.39562493301312"><ele>71.2</ele><time>2026-04-19T10:43:03.001Z</time></trkpt><trkpt lat="55.763021180851105" lon="52.39575986779896"><ele>71.39999999999999</ele><time>2026-04-19T10:43:05.001Z</time></trkpt><trkpt lat="55.76308868880054" lon="52.395885446303176"><ele>71.6</ele><time>2026-04-19T10:43:07.001Z</time></trkpt><trkpt lat="55.763158759236205" lon="52.39601353948874"><ele>71.8</ele><time>2026-04-19T10:43:09.001Z</time></trkpt><trkpt lat="55.763231015931176" lon="52.396151483139754"><ele>72.0</ele><time>2026-04-19T10:43:11.001Z</time></trkpt><trkpt lat="55.76330180439832" lon="52.39628399375146"><ele>72.4</ele><time>2026-04-19T10:43:13.001Z</time></trkpt><trkpt lat="55.76336881921077" lon="52.396421697308746"><ele>72.80000000000001</ele><time>2026-04-19T10:43:15.001Z</time></trkpt><trkpt lat="55.763441533549624" lon="52.39655351882683"><ele>73.2</ele><time>2026-04-19T10:43:17.001Z</time></trkpt><trkpt lat="55.76351064208797" lon="52.39668287741976"><ele>73.60000000000001</ele><time>2026-04-19T10:43:19.001Z</time></trkpt><trkpt lat="55.76357975797994" lon="52.39681527531701"><ele>74.0</ele><time>2026-04-19T10:43:21.001Z</time></trkpt><trkpt lat="55.763628316061734" lon="52.39691720097467"><ele>74.2</ele><time>2026-04-19T10:43:24.001Z</time></trkpt><trkpt lat="55.76372523005758" lon="52.39707772606221"><ele>74.4</ele><time>2026-04-19T10:43:25.001Z</time></trkpt><trkpt lat="55.76379929405873" lon="52.3971964229922"><ele>74.6</ele><time>2026-04-19T10:43:27.001Z</time></trkpt><trkpt lat="55.76388133296468" lon="52.39729629858222"><ele>74.8</ele><time>2026-04-19T10:43:29.002Z</time></trkpt><trkpt lat="55.76396299520716" lon="52.3974279613492"><ele>75.0</ele><time>2026-04-19T10:43:31.002Z</time></trkpt><trkpt lat="55.764042419241314" lon="52.39755394891273"><ele>75.2</ele><time>2026-04-19T10:43:33.002Z</time></trkpt><trkpt lat="55.76411857230964" lon="52.39769500100487"><ele>75.4</ele><time>2026-04-19T10:43:35.002Z</time></trkpt><trkpt lat="55.764193092688956" lon="52.39783865327792"><ele>75.6</ele><time>2026-04-19T10:43:37.002Z</time></trkpt><trkpt lat="55.764267948131" lon="52.397974017593974"><ele>75.8</ele><time>2026-04-19T10:43:39.002Z</time></trkpt><trkpt lat="55.76434068365563" lon="52.398112335993886"><ele>76.0</ele><time>2026-04-19T10:43:41.002Z</time></trkpt><trkpt lat="55.76440891356185" lon="52.39825205043026"><ele>74.39999999999999</ele><time>2026-04-19T10:43:43.002Z</time></trkpt><trkpt lat="55.764482610864285" lon="52.39839097859196"><ele>72.8</ele><time>2026-04-19T10:43:45.002Z</time></trkpt><trkpt lat="55.76454594913198" lon="52.39852344338702"><ele>71.19999999999999</ele><time>2026-04-19T10:43:47.002Z</time></trkpt><trkpt lat="55.76463285679226" lon="52.398662477256906"><ele>69.6</ele><time>2026-04-19T10:43:49.001Z</time></trkpt><trkpt lat="55.764700127780436" lon="52.39879038137584"><ele>68.0</ele><time>2026-04-19T10:43:51.001Z</time></trkpt><trkpt lat="55.76476238248213" lon="52.39890249074306"><ele>67.75</ele><time>2026-04-19T10:43:53.001Z</time></trkpt><trkpt lat="55.76488439303592" lon="52.39911088429489"><ele>67.5</ele><time>2026-04-19T10:43:56.001Z</time></trkpt><trkpt lat="55.76495852267259" lon="52.3992419254927"><ele>67.25</ele><time>2026-04-19T10:43:58.001Z</time></trkpt><trkpt lat="55.765023252689616" lon="52.39936766081325"><ele>67.0</ele><time>2026-04-19T10:44:00.001Z</time></trkpt><trkpt lat="55.76509088809227" lon="52.3994994851548"><ele>67.0</ele><time>2026-04-19T10:44:02.001Z</time></trkpt><trkpt lat="55.765167674475144" lon="52.399621126235935"><ele>67.0</ele><time>2026-04-19T10:44:04.001Z</time></trkpt><trkpt lat="55.76523531837201" lon="52.39975323208725"><ele>67.0</ele><time>2026-04-19T10:44:06.001Z</time></trkpt><trkpt lat="55.765307921600694" lon="52.39988232915145"><ele>67.0</ele><time>2026-04-19T10:44:08.001Z</time></trkpt><trkpt lat="55.76537180835728" lon="52.4000002660332"><ele>67.0</ele><time>2026-04-19T10:44:10.001Z</time></trkpt><trkpt lat="55.76544381989889" lon="52.40014141606244"><ele>66.8</ele><time>2026-04-19T10:44:12.001Z</time></trkpt><trkpt lat="55.7655200133316" lon="52.40028428069002"><ele>66.6</ele><time>2026-04-19T10:44:14.001Z</time></trkpt><trkpt lat="55.765587409747155" lon="52.40041759670259"><ele>66.39999999999999</ele><time>2026-04-19T10:44:16.001Z</time></trkpt><trkpt lat="55.76566385239498" lon="52.40055944108684"><ele>66.2</ele><time>2026-04-19T10:44:18.001Z</time></trkpt><trkpt lat="55.76574230735293" lon="52.40069559460992"><ele>66.0</ele><time>2026-04-19T10:44:20.001Z</time></trkpt><trkpt lat="55.76581161343652" lon="52.4008380728633"><ele>66.0</ele><time>2026-04-19T10:44:22.001Z</time></trkpt><trkpt lat="55.7658836588465" lon="52.40097786007081"><ele>66.0</ele><time>2026-04-19T10:44:24.001Z</time></trkpt><trkpt lat="55.765998716876034" lon="52.401171281067676"><ele>66.0</ele><time>2026-04-19T10:44:27.001Z</time></trkpt><trkpt lat="55.766073821744904" lon="52.401311020893814"><ele>66.0</ele><time>2026-04-19T10:44:29.001Z</time></trkpt><trkpt lat="55.76614932042551" lon="52.401456060723476"><ele>66.8</ele><time>2026-04-19T10:44:31.001Z</time></trkpt><trkpt lat="55.76622230224056" lon="52.40159039910657"><ele>67.6</ele><time>2026-04-19T10:44:33.001Z</time></trkpt><trkpt lat="55.76629921340479" lon="52.40172694047214"><ele>68.4</ele><time>2026-04-19T10:44:35.001Z</time></trkpt><trkpt lat="55.76637252464152" lon="52.40186376726868"><ele>69.2</ele><time>2026-04-19T10:44:37.001Z</time></trkpt><trkpt lat="55.76644526608783" lon="52.40199054434639"><ele>70.0</ele><time>2026-04-19T10:44:39.001Z</time></trkpt><trkpt lat="55.766520674164575" lon="52.402120430766935"><ele>70.6</ele><time>2026-04-19T10:44:41.001Z</time></trkpt><trkpt lat="55.76659741941825" lon="52.40225717494845"><ele>71.2</ele><time>2026-04-19T10:44:43.001Z</time></trkpt><trkpt lat="55.76666704641191" lon="52.40239619480146"><ele>71.8</ele><time>2026-04-19T10:44:45.001Z</time></trkpt><trkpt lat="55.766732418796174" lon="52.40253961508925"><ele>72.4</ele><time>2026-04-19T10:44:47.001Z</time></trkpt><trkpt lat="55.766803779377746" lon="52.402690792042556"><ele>73.0</ele><time>2026-04-19T10:44:49.001Z</time></trkpt><trkpt lat="55.76687380011031" lon="52.40282882925623"><ele>71.8</ele><time>2026-04-19T10:44:51.001Z</time></trkpt><trkpt lat="55.7669204334802" lon="52.40292911214078"><ele>70.6</ele><time>2026-04-19T10:44:53.001Z</time></trkpt><trkpt lat="55.76697148277574" lon="52.40304450995987"><ele>69.4</ele><time>2026-04-19T10:44:54.001Z</time></trkpt><trkpt lat="55.76704091478847" lon="52.403181223011"><ele>68.2</ele><time>2026-04-19T10:44:56.001Z</time></trkpt><trkpt lat="55.76709129748098" lon="52.4032953918937"><ele>67.0</ele><time>2026-04-19T10:44:59.001Z</time></trkpt><trkpt lat="55.767170172748195" lon="52.40347930672991"><ele>67.0</ele><time>2026-04-19T10:45:00.001Z</time></trkpt><trkpt lat="55.76722337914174" lon="52.40361856085165"><ele>67.0</ele><time>2026-04-19T10:45:02.001Z</time></trkpt><trkpt lat="55.767281585660285" lon="52.403761813902996"><ele>67.0</ele><time>2026-04-19T10:45:04.001Z</time></trkpt><trkpt lat="55.767339906492914" lon="52.40390542125085"><ele>67.0</ele><time>2026-04-19T10:45:06.001Z</time></trkpt><trkpt lat="55.767384898179245" lon="52.40404921440817"><ele>67.0</ele><time>2026-04-19T10:45:08.001Z</time></trkpt><trkpt lat="55.76743572232678" lon="52.40419017826901"><ele>67.4</ele><time>2026-04-19T10:45:10.001Z</time></trkpt><trkpt lat="55.76748021144787" lon="52.40433572406266"><ele>67.80000000000001</ele><time>2026-04-19T10:45:12.001Z</time></trkpt><trkpt lat="55.76752917482556" lon="52.40447955350703"><ele>68.2</ele><time>2026-04-19T10:45:14.001Z</time></trkpt><trkpt lat="55.76758301631645" lon="52.40463287349874"><ele>68.60000000000001</ele><time>2026-04-19T10:45:16.001Z</time></trkpt><trkpt lat="55.767628398469625" lon="52.404790020625185"><ele>69.0</ele><time>2026-04-19T10:45:18.001Z</time></trkpt><trkpt lat="55.76767957020954" lon="52.40494412646165"><ele>68.25</ele><time>2026-04-19T10:45:20.001Z</time></trkpt><trkpt lat="55.767723441446144" lon="52.40512898196928"><ele>67.5</ele><time>2026-04-19T10:45:23.001Z</time></trkpt><trkpt lat="55.76780890194246" lon="52.4053723195491"><ele>66.75</ele><time>2026-04-19T10:45:26.001Z</time></trkpt><trkpt lat="55.76783012233638" lon="52.405528376781874"><ele>66.0</ele><time>2026-04-19T10:45:28.001Z</time></trkpt><trkpt lat="55.7678651228751" lon="52.405682725190715"><ele>66.0</ele><time>2026-04-19T10:45:30.001Z</time></trkpt><trkpt lat="55.76789162239361" lon="52.40583511777478"><ele>66.0</ele><time>2026-04-19T10:45:32.001Z</time></trkpt><trkpt lat="55.76792499088694" lon="52.405986164727224"><ele>66.0</ele><time>2026-04-19T10:45:34.002Z</time></trkpt><trkpt lat="55.767953217123875" lon="52.40613452786301"><ele>66.0</ele><time>2026-04-19T10:45:36.002Z</time></trkpt><trkpt lat="55.76797241593808" lon="52.406285051769245"><ele>66.0</ele><time>2026-04-19T10:45:38.002Z</time></trkpt><trkpt lat="55.76800451206247" lon="52.406461912046716"><ele>66.39999999999999</ele><time>2026-04-19T10:45:40.002Z</time></trkpt><trkpt lat="55.76803302168131" lon="52.40663320502472"><ele>66.8</ele><time>2026-04-19T10:45:42.002Z</time></trkpt><trkpt lat="55.76805216875163" lon="52.406798669038096"><ele>67.19999999999999</ele><time>2026-04-19T10:45:44.002Z</time></trkpt><trkpt lat="55.76805695486963" lon="52.406932628488704"><ele>67.6</ele><time>2026-04-19T10:45:46.002Z</time></trkpt><trkpt lat="55.768100015895136" lon="52.40710455691876"><ele>68.0</ele><time>2026-04-19T10:45:48.002Z</time></trkpt><trkpt lat="55.768119086269785" lon="52.40725210232043"><ele>68.16666666666667</ele><time>2026-04-19T10:45:50.002Z</time></trkpt><trkpt lat="55.76814329342344" lon="52.40739372045629"><ele>68.33333333333334</ele><time>2026-04-19T10:45:52.002Z</time></trkpt><trkpt lat="55.76816107716699" lon="52.40753864638395"><ele>68.5</ele><time>2026-04-19T10:45:54.002Z</time></trkpt><trkpt lat="55.768179454740824" lon="52.407671499647975"><ele>68.66666666666667</ele><time>2026-04-19T10:45:56.001Z</time></trkpt><trkpt lat="55.768200763077765" lon="52.40781988810324"><ele>68.83333333333333</ele><time>2026-04-19T10:45:58.001Z</time></trkpt><trkpt lat="55.76821520557865" lon="52.407975769884644"><ele>69.0</ele><time>2026-04-19T10:46:00.001Z</time></trkpt><trkpt lat="55.768246786948254" lon="52.40813121736898"><ele>69.2</ele><time>2026-04-19T10:46:02.001Z</time></trkpt><trkpt lat="55.76826069931626" lon="52.40828865815802"><ele>69.4</ele><time>2026-04-19T10:46:04.001Z</time></trkpt><trkpt lat="55.76828292356136" lon="52.408442293581125"><ele>69.6</ele><time>2026-04-19T10:46:06.001Z</time></trkpt><trkpt lat="55.76830229576494" lon="52.408585190047944"><ele>69.8</ele><time>2026-04-19T10:46:08.001Z</time></trkpt><trkpt lat="55.76831149708201" lon="52.40875135748057"><ele>70.0</ele><time>2026-04-19T10:46:10.001Z</time></trkpt><trkpt lat="55.76834530003227" lon="52.408985703297915"><ele>70.0</ele><time>2026-04-19T10:46:13.001Z</time></trkpt><trkpt lat="55.76837135579728" lon="52.40912069763846"><ele>70.0</ele><time>2026-04-19T10:46:15.001Z</time></trkpt><trkpt lat="55.768388007809115" lon="52.40926586553119"><ele>70.0</ele><time>2026-04-19T10:46:17.001Z</time></trkpt><trkpt lat="55.76840934246646" lon="52.409410036697224"><ele>70.0</ele><time>2026-04-19T10:46:19.001Z</time></trkpt><trkpt lat="55.768424127705394" lon="52.40955329037404"><ele>70.0</ele><time>2026-04-19T10:46:21.001Z</time></trkpt><trkpt lat="55.768436232630116" lon="52.40969177161624"><ele>70.0</ele><time>2026-04-19T10:46:23.001Z</time></trkpt><trkpt lat="55.76845787725906" lon="52.40982773300072"><ele>70.0</ele><time>2026-04-19T10:46:25.001Z</time></trkpt><trkpt lat="55.76848121224429" lon="52.409956407801154"><ele>70.0</ele><time>2026-04-19T10:46:27.001Z</time></trkpt><trkpt lat="55.768520049021156" lon="52.41007427284289"><ele>70.0</ele><time>2026-04-19T10:46:29.001Z</time></trkpt><trkpt lat="55.768534189506155" lon="52.41022157593003"><ele>70.0</ele><time>2026-04-19T10:46:31.001Z</time></trkpt><trkpt lat="55.76854824891794" lon="52.410365477400866"><ele>70.0</ele><time>2026-04-19T10:46:34.001Z</time></trkpt><trkpt lat="55.768604962847206" lon="52.41062220737333"><ele>69.0</ele><time>2026-04-19T10:46:37.001Z</time></trkpt><trkpt lat="55.76862957428253" lon="52.41074630504393"><ele>68.0</ele><time>2026-04-19T10:46:39.001Z</time></trkpt><trkpt lat="55.7686579692534" lon="52.410857348925155"><ele>67.0</ele><time>2026-04-19T10:46:41.001Z</time></trkpt><trkpt lat="55.76868078026099" lon="52.411003639268735"><ele>66.0</ele><time>2026-04-19T10:46:44.001Z</time></trkpt><trkpt lat="55.76870820275278" lon="52.41116797998004"><ele>65.0</ele><time>2026-04-19T10:46:47.001Z</time></trkpt><trkpt lat="55.76873096117813" lon="52.41127751018458"><ele>64.0</ele><time>2026-04-19T10:46:49.001Z</time></trkpt><trkpt lat="55.76875532790478" lon="52.411386579864974"><ele>63.99999999999999</ele><time>2026-04-19T10:46:51.001Z</time></trkpt><trkpt lat="55.76878408496078" lon="52.41155707906833"><ele>64.0</ele><time>2026-04-19T10:46:54.001Z</time></trkpt><trkpt lat="55.76881613288395" lon="52.41166362110707"><ele>64.0</ele><time>2026-04-19T10:46:56.001Z</time></trkpt><trkpt lat="55.76886190721168" lon="52.41181624308114"><ele>64.0</ele><time>2026-04-19T10:46:59.001Z</time></trkpt><trkpt lat="55.768886434002376" lon="52.4119220823506"><ele>63.99999999999999</ele><time>2026-04-19T10:47:01.001Z</time></trkpt><trkpt lat="55.768915706547915" lon="52.41205290711415"><ele>64.0</ele><time>2026-04-19T10:47:05.001Z</time></trkpt><trkpt lat="55.768948403450544" lon="52.412181611366485"><ele>64.5</ele><time>2026-04-19T10:47:08.001Z</time></trkpt><trkpt lat="55.76898418395838" lon="52.41232681573658"><ele>65.0</ele><time>2026-04-19T10:47:10.001Z</time></trkpt><trkpt lat="55.76903683419649" lon="52.41244438155716"><ele>65.5</ele><time>2026-04-19T10:47:13.001Z</time></trkpt><trkpt lat="55.76907181819983" lon="52.41254293913444"><ele>66.0</ele><time>2026-04-19T10:47:15.001Z</time></trkpt><trkpt lat="55.7691049448067" lon="52.41264769886976"><ele>66.5</ele><time>2026-04-19T10:47:17.001Z</time></trkpt><trkpt lat="55.76913964089765" lon="52.41276047712191"><ele>67.0</ele><time>2026-04-19T10:47:19.001Z</time></trkpt><trkpt lat="55.76919001540927" lon="52.412866768209916"><ele>67.0</ele><time>2026-04-19T10:47:21.001Z</time></trkpt><trkpt lat="55.769239726213186" lon="52.41298566203068"><ele>67.0</ele><time>2026-04-19T10:47:23.001Z</time></trkpt><trkpt lat="55.76928743358544" lon="52.413104585921374"><ele>67.0</ele><time>2026-04-19T10:47:25.001Z</time></trkpt><trkpt lat="55.76933556983076" lon="52.41321214041314"><ele>67.0</ele><time>2026-04-19T10:47:27.001Z</time></trkpt><trkpt lat="55.769376093472324" lon="52.41331121087699"><ele>67.0</ele><time>2026-04-19T10:47:29.001Z</time></trkpt><trkpt lat="55.76941664338747" lon="52.4134172208533"><ele>67.0</ele><time>2026-04-19T10:47:31.001Z</time></trkpt><trkpt lat="55.76946263392021" lon="52.41351939001845"><ele>66.83333333333333</ele><time>2026-04-19T10:47:33.001Z</time></trkpt><trkpt lat="55.769511978534375" lon="52.41363183703455"><ele>66.66666666666666</ele><time>2026-04-19T10:47:36.001Z</time></trkpt><trkpt lat="55.76958404381679" lon="52.413776098355235"><ele>66.5</ele><time>2026-04-19T10:47:38.001Z</time></trkpt><trkpt lat="55.76963822763097" lon="52.41388362586374"><ele>66.33333333333333</ele><time>2026-04-19T10:47:40.002Z</time></trkpt><trkpt lat="55.76969341137783" lon="52.41399519724568"><ele>66.16666666666667</ele><time>2026-04-19T10:47:42.002Z</time></trkpt><trkpt lat="55.76974160692179" lon="52.41411523673035"><ele>66.0</ele><time>2026-04-19T10:47:44.002Z</time></trkpt><trkpt lat="55.76979506598543" lon="52.41422086971153"><ele>66.0</ele><time>2026-04-19T10:47:46.002Z</time></trkpt><trkpt lat="55.769855805655205" lon="52.41431453388218"><ele>66.0</ele><time>2026-04-19T10:47:48.002Z</time></trkpt><trkpt lat="55.76990629565536" lon="52.41440414285048"><ele>66.0</ele><time>2026-04-19T10:47:50.002Z</time></trkpt><trkpt lat="55.76996358814013" lon="52.41449436046399"><ele>66.0</ele><time>2026-04-19T10:47:52.002Z</time></trkpt><trkpt lat="55.77002167282974" lon="52.41460218884234"><ele>66.0</ele><time>2026-04-19T10:47:54.002Z</time></trkpt><trkpt lat="55.77007387717981" lon="52.41471427758442"><ele>66.0</ele><time>2026-04-19T10:47:56.002Z</time></trkpt><trkpt lat="55.770137578085894" lon="52.41482500568808"><ele>65.83333333333333</ele><time>2026-04-19T10:47:58.002Z</time></trkpt><trkpt lat="55.77019789814413" lon="52.41492316365017"><ele>65.66666666666667</ele><time>2026-04-19T10:48:00.002Z</time></trkpt><trkpt lat="55.770251126775015" lon="52.41503626863182"><ele>65.5</ele><time>2026-04-19T10:48:02.001Z</time></trkpt><trkpt lat="55.77030583387576" lon="52.41514694313323"><ele>65.33333333333334</ele><time>2026-04-19T10:48:04.001Z</time></trkpt><trkpt lat="55.77036329291049" lon="52.41525540561105"><ele>65.16666666666667</ele><time>2026-04-19T10:48:06.001Z</time></trkpt><trkpt lat="55.770422429067445" lon="52.415355283136385"><ele>65.0</ele><time>2026-04-19T10:48:08.001Z</time></trkpt><trkpt lat="55.7704787907164" lon="52.41546589188934"><ele>65.4</ele><time>2026-04-19T10:48:10.001Z</time></trkpt><trkpt lat="55.77053282152652" lon="52.41557614932982"><ele>65.8</ele><time>2026-04-19T10:48:12.001Z</time></trkpt><trkpt lat="55.770589374363134" lon="52.4156927912072"><ele>66.2</ele><time>2026-04-19T10:48:14.001Z</time></trkpt><trkpt lat="55.77067149415178" lon="52.41584791034539"><ele>66.6</ele><time>2026-04-19T10:48:17.001Z</time></trkpt><trkpt lat="55.77073181125992" lon="52.41596020222026"><ele>67.0</ele><time>2026-04-19T10:48:19.001Z</time></trkpt><trkpt lat="55.77078801087499" lon="52.416070868861794"><ele>67.0</ele><time>2026-04-19T10:48:21.001Z</time></trkpt><trkpt lat="55.770847125541906" lon="52.41617149461363"><ele>67.0</ele><time>2026-04-19T10:48:23.001Z</time></trkpt><trkpt lat="55.770913802968096" lon="52.41627801993548"><ele>67.0</ele><time>2026-04-19T10:48:25.001Z</time></trkpt><trkpt lat="55.77097553956111" lon="52.41637772657067"><ele>67.0</ele><time>2026-04-19T10:48:27Z</time></trkpt><trkpt lat="55.771027755655936" lon="52.416502299858834"><ele>67.0</ele><time>2026-04-19T10:48:29Z</time></trkpt><trkpt lat="55.77108497592637" lon="52.41661435845072"><ele>67.0</ele><time>2026-04-19T10:48:31Z</time></trkpt><trkpt lat="55.77114982017819" lon="52.4167252629241"><ele>67.0</ele><time>2026-04-19T10:48:33Z</time></trkpt><trkpt lat="55.77120880078846" lon="52.41684353379897"><ele>67.0</ele><time>2026-04-19T10:48:35Z</time></trkpt><trkpt lat="55.77126911357764" lon="52.416959465350864"><ele>67.0</ele><time>2026-04-19T10:48:37Z</time></trkpt><trkpt lat="55.77132457541628" lon="52.417081119053464"><ele>67.0</ele><time>2026-04-19T10:48:39Z</time></trkpt><trkpt lat="55.77137454856587" lon="52.4171726058594"><ele>67.0</ele><time>2026-04-19T10:48:42Z</time></trkpt><trkpt lat="55.771424867112785" lon="52.41727328840164"><ele>67.0</ele><time>2026-04-19T10:48:45Z</time></trkpt><trkpt lat="55.77148694536017" lon="52.41739101453449"><ele>67.0</ele><time>2026-04-19T10:48:48Z</time></trkpt><trkpt lat="55.77152053573536" lon="52.417489192904064"><ele>67.0</ele><time>2026-04-19T10:48:50Z</time></trkpt><trkpt lat="55.77155169240633" lon="52.41759948681151"><ele>67.0</ele><time>2026-04-19T10:48:52Z</time></trkpt><trkpt lat="55.77158534159151" lon="52.41770589830371"><ele>67.0</ele><time>2026-04-19T10:48:54Z</time></trkpt><trkpt lat="55.77161495922537" lon="52.41782067755134"><ele>67.0</ele><time>2026-04-19T10:48:56Z</time></trkpt><trkpt lat="55.77164301828964" lon="52.41794038019041"><ele>67.0</ele><time>2026-04-19T10:48:58Z</time></trkpt><trkpt lat="55.77167730879574" lon="52.418051754057245"><ele>67.0</ele><time>2026-04-19T10:49:00Z</time></trkpt><trkpt lat="55.77169392811297" lon="52.41817512660896"><ele>67.0</ele><time>2026-04-19T10:49:02Z</time></trkpt><trkpt lat="55.771697709721664" lon="52.41830231056969"><ele>67.0</ele><time>2026-04-19T10:49:04Z</time></trkpt><trkpt lat="55.77169183747203" lon="52.41843032113353"><ele>67.0</ele><time>2026-04-19T10:49:06Z</time></trkpt><trkpt lat="55.77169395768931" lon="52.418554387935906"><ele>67.0</ele><time>2026-04-19T10:49:08Z</time></trkpt><trkpt lat="55.77168558703668" lon="52.418677918794025"><ele>67.0</ele><time>2026-04-19T10:49:10Z</time></trkpt><trkpt lat="55.771674309646556" lon="52.41879372301152"><ele>67.0</ele><time>2026-04-19T10:49:12Z</time></trkpt><trkpt lat="55.77166215556857" lon="52.41891309282399"><ele>67.0</ele><time>2026-04-19T10:49:14Z</time></trkpt><trkpt lat="55.77166444549825" lon="52.41907097645295"><ele>67.0</ele><time>2026-04-19T10:49:17Z</time></trkpt><trkpt lat="55.77167401023341" lon="52.4192308135795"><ele>67.0</ele><time>2026-04-19T10:49:20Z</time></trkpt><trkpt lat="55.77168052876261" lon="52.419386913836284"><ele>67.0</ele><time>2026-04-19T10:49:23Z</time></trkpt><trkpt lat="55.77168677257444" lon="52.419507841298845"><ele>67.0</ele><time>2026-04-19T10:49:25Z</time></trkpt><trkpt lat="55.77169156863711" lon="52.41962307801665"><ele>67.0</ele><time>2026-04-19T10:49:27Z</time></trkpt><trkpt lat="55.77170349043326" lon="52.41978894277628"><ele>67.0</ele><time>2026-04-19T10:49:30Z</time></trkpt><trkpt lat="55.7716994482022" lon="52.41994729508641"><ele>67.2</ele><time>2026-04-19T10:49:33Z</time></trkpt><trkpt lat="55.7717067913189" lon="52.420106635956074"><ele>67.4</ele><time>2026-04-19T10:49:36Z</time></trkpt><trkpt lat="55.77172677631473" lon="52.42026448666817"><ele>67.6</ele><time>2026-04-19T10:49:39Z</time></trkpt><trkpt lat="55.771746844574714" lon="52.42042083318572"><ele>67.8</ele><time>2026-04-19T10:49:42Z</time></trkpt><trkpt lat="55.771752929349674" lon="52.42057780838263"><ele>68.0</ele><time>2026-04-19T10:49:45.001Z</time></trkpt><trkpt lat="55.77180318630289" lon="52.420717594585135"><ele>68.0</ele><time>2026-04-19T10:49:48.001Z</time></trkpt><trkpt lat="55.7718368716075" lon="52.42083519654829"><ele>68.0</ele><time>2026-04-19T10:49:50.001Z</time></trkpt><trkpt lat="55.77185391296816" lon="52.42100076679225"><ele>68.0</ele><time>2026-04-19T10:49:53.001Z</time></trkpt><trkpt lat="55.77188710457355" lon="52.42110983763555"><ele>68.0</ele><time>2026-04-19T10:49:56.001Z</time></trkpt><trkpt lat="55.771924554826846" lon="52.421228849882354"><ele>68.0</ele><time>2026-04-19T10:49:59.001Z</time></trkpt><trkpt lat="55.7719715523239" lon="52.42131446970405"><ele>68.0</ele><time>2026-04-19T10:50:01.001Z</time></trkpt><trkpt lat="55.77201712159006" lon="52.42142040720999"><ele>68.0</ele><time>2026-04-19T10:50:04.001Z</time></trkpt><trkpt lat="55.772061522851246" lon="52.42152733864795"><ele>68.0</ele><time>2026-04-19T10:50:07Z</time></trkpt><trkpt lat="55.772120163903544" lon="52.421614229439605"><ele>68.0</ele><time>2026-04-19T10:50:10Z</time></trkpt><trkpt lat="55.77216485536012" lon="52.421707620203534"><ele>68.0</ele><time>2026-04-19T10:50:12Z</time></trkpt><trkpt lat="55.77223306368321" lon="52.421824402089136"><ele>68.0</ele><time>2026-04-19T10:50:14Z</time></trkpt><trkpt lat="55.772291379690834" lon="52.42190055609327"><ele>68.0</ele><time>2026-04-19T10:50:16Z</time></trkpt><trkpt lat="55.7723450232389" lon="52.421996015371626"><ele>68.0</ele><time>2026-04-19T10:50:18Z</time></trkpt><trkpt lat="55.77237226176816" lon="52.42211441733588"><ele>68.0</ele><time>2026-04-19T10:50:20Z</time></trkpt><trkpt lat="55.772428597273766" lon="52.422236111912014"><ele>68.0</ele><time>2026-04-19T10:50:23Z</time></trkpt><trkpt lat="55.77248167242958" lon="52.422317788457356"><ele>68.0</ele><time>2026-04-19T10:50:25Z</time></trkpt><trkpt lat="55.772533899004756" lon="52.42241600289495"><ele>68.0</ele><time>2026-04-19T10:50:27Z</time></trkpt><trkpt lat="55.772572681810885" lon="52.422530944409075"><ele>68.0</ele><time>2026-04-19T10:50:29Z</time></trkpt><trkpt lat="55.77261474566081" lon="52.42264446465004"><ele>68.33333333333334</ele><time>2026-04-19T10:50:31Z</time></trkpt><trkpt lat="55.772662599324214" lon="52.42275970024584"><ele>68.66666666666667</ele><time>2026-04-19T10:50:33Z</time></trkpt><trkpt lat="55.7727093691015" lon="52.4228825921658"><ele>69.0</ele><time>2026-04-19T10:50:35Z</time></trkpt><trkpt lat="55.77276092517201" lon="52.422992988737526"><ele>69.33333333333333</ele><time>2026-04-19T10:50:37Z</time></trkpt><trkpt lat="55.77281528256807" lon="52.42309765734035"><ele>69.66666666666666</ele><time>2026-04-19T10:50:39Z</time></trkpt><trkpt lat="55.772871588559184" lon="52.423203662161264"><ele>70.0</ele><time>2026-04-19T10:50:41Z</time></trkpt><trkpt lat="55.77291861015274" lon="52.423306953336706"><ele>70.33333333333333</ele><time>2026-04-19T10:50:43Z</time></trkpt><trkpt lat="55.77297942984825" lon="52.42339715045568"><ele>70.66666666666666</ele><time>2026-04-19T10:50:45Z</time></trkpt><trkpt lat="55.77302620503886" lon="52.42349565420835"><ele>71.0</ele><time>2026-04-19T10:50:49Z</time></trkpt><trkpt lat="55.77308397137179" lon="52.423560873557385"><ele>71.33333333333333</ele><time>2026-04-19T10:50:52Z</time></trkpt><trkpt lat="55.77312874495112" lon="52.42365551550787"><ele>71.66666666666667</ele><time>2026-04-19T10:50:56Z</time></trkpt><trkpt lat="55.77319238666043" lon="52.42377219513433"><ele>72.0</ele><time>2026-04-19T10:50:59Z</time></trkpt><trkpt lat="55.773253190753245" lon="52.42384461600295"><ele>72.16666666666667</ele><time>2026-04-19T10:51:01Z</time></trkpt><trkpt lat="55.77332157379819" lon="52.42389559069172"><ele>72.33333333333333</ele><time>2026-04-19T10:51:03Z</time></trkpt><trkpt lat="55.77339236749391" lon="52.42394329437744"><ele>72.5</ele><time>2026-04-19T10:51:05Z</time></trkpt><trkpt lat="55.77345262157885" lon="52.424036601298184"><ele>72.66666666666666</ele><time>2026-04-19T10:51:07Z</time></trkpt><trkpt lat="55.77350878630742" lon="52.42413645583955"><ele>72.83333333333333</ele><time>2026-04-19T10:51:09Z</time></trkpt><trkpt lat="55.77356771037732" lon="52.42423120850237"><ele>73.0</ele><time>2026-04-19T10:51:11Z</time></trkpt><trkpt lat="55.77363425221244" lon="52.42432781468048"><ele>73.0</ele><time>2026-04-19T10:51:13Z</time></trkpt><trkpt lat="55.77368917337327" lon="52.42444994351616"><ele>73.0</ele><time>2026-04-19T10:51:15Z</time></trkpt><trkpt lat="55.77374453899691" lon="52.42457299915991"><ele>73.0</ele><time>2026-04-19T10:51:17Z</time></trkpt><trkpt lat="55.77379684006396" lon="52.42470676970981"><ele>73.0</ele><time>2026-04-19T10:51:19Z</time></trkpt><trkpt lat="55.77385835128368" lon="52.424817095011825"><ele>73.0</ele><time>2026-04-19T10:51:21Z</time></trkpt><trkpt lat="55.77390397701715" lon="52.424929005483904"><ele>73.0</ele><time>2026-04-19T10:51:23Z</time></trkpt><trkpt lat="55.77392329147001" lon="52.4250538294121"><ele>73.8</ele><time>2026-04-19T10:51:26Z</time></trkpt><trkpt lat="55.774002307871" lon="52.42524581198883"><ele>74.6</ele><time>2026-04-19T10:51:28Z</time></trkpt><trkpt lat="55.77406765653295" lon="52.425353319909135"><ele>75.4</ele><time>2026-04-19T10:51:30Z</time></trkpt><trkpt lat="55.77413000558456" lon="52.42546036653711"><ele>76.2</ele><time>2026-04-19T10:51:32Z</time></trkpt><trkpt lat="55.7741902584886" lon="52.42556641561911"><ele>77.0</ele><time>2026-04-19T10:51:34Z</time></trkpt><trkpt lat="55.774252439526514" lon="52.42566737452591"><ele>77.0</ele><time>2026-04-19T10:51:36Z</time></trkpt><trkpt lat="55.77430943575722" lon="52.425784880143965"><ele>77.0</ele><time>2026-04-19T10:51:38Z</time></trkpt><trkpt lat="55.77436932590816" lon="52.42589067984423"><ele>77.0</ele><time>2026-04-19T10:51:40Z</time></trkpt><trkpt lat="55.7744313739661" lon="52.42599232598978"><ele>77.0</ele><time>2026-04-19T10:51:42Z</time></trkpt><trkpt lat="55.774484210968055" lon="52.426102313128986"><ele>77.0</ele><time>2026-04-19T10:51:44.001Z</time></trkpt><trkpt lat="55.77455354136319" lon="52.426181460185006"><ele>77.0</ele><time>2026-04-19T10:51:46.001Z</time></trkpt><trkpt lat="55.774628247507025" lon="52.426272886714656"><ele>76.2</ele><time>2026-04-19T10:51:49.001Z</time></trkpt><trkpt lat="55.774756615019186" lon="52.426378258332306"><ele>75.4</ele><time>2026-04-19T10:51:52.001Z</time></trkpt><trkpt lat="55.77481944724285" lon="52.42645446131144"><ele>74.6</ele><time>2026-04-19T10:51:54.001Z</time></trkpt><trkpt lat="55.774887482218006" lon="52.426529808362616"><ele>73.8</ele><time>2026-04-19T10:51:56.001Z</time></trkpt><trkpt lat="55.77495409266125" lon="52.426599141508625"><ele>73.0</ele><time>2026-04-19T10:51:58.001Z</time></trkpt><trkpt lat="55.77502573096789" lon="52.426666478114335"><ele>73.0</ele><time>2026-04-19T10:52:00.001Z</time></trkpt><trkpt lat="55.77509771223854" lon="52.42673448834616"><ele>73.0</ele><time>2026-04-19T10:52:02.001Z</time></trkpt><trkpt lat="55.77517210547258" lon="52.426798906394176"><ele>73.0</ele><time>2026-04-19T10:52:04.001Z</time></trkpt><trkpt lat="55.77524792416314" lon="52.42687356547891"><ele>73.0</ele><time>2026-04-19T10:52:06.001Z</time></trkpt><trkpt lat="55.775325357176484" lon="52.42693779281709"><ele>73.0</ele><time>2026-04-19T10:52:08.001Z</time></trkpt><trkpt lat="55.77540534780418" lon="52.426998577842475"><ele>73.0</ele><time>2026-04-19T10:52:10.001Z</time></trkpt><trkpt lat="55.77548950947303" lon="52.427077277742484"><ele>72.66666666666666</ele><time>2026-04-19T10:52:13Z</time></trkpt><trkpt lat="55.77557382235522" lon="52.427089049747735"><ele>72.33333333333333</ele><time>2026-04-19T10:52:14Z</time></trkpt><trkpt lat="55.775658267794235" lon="52.42713068921667"><ele>72.0</ele><time>2026-04-19T10:52:16Z</time></trkpt><trkpt lat="55.77573980975143" lon="52.42717819923194"><ele>71.66666666666667</ele><time>2026-04-19T10:52:18Z</time></trkpt><trkpt lat="55.775820500277824" lon="52.4272174069862"><ele>71.33333333333334</ele><time>2026-04-19T10:52:20Z</time></trkpt><trkpt lat="55.77590948549587" lon="52.42725480569161"><ele>71.0</ele><time>2026-04-19T10:52:22Z</time></trkpt><trkpt lat="55.775999752130495" lon="52.427295185343596"><ele>70.8</ele><time>2026-04-19T10:52:24Z</time></trkpt><trkpt lat="55.77609367876204" lon="52.427347679484114"><ele>70.6</ele><time>2026-04-19T10:52:26Z</time></trkpt><trkpt lat="55.77619434120427" lon="52.42739064987105"><ele>70.4</ele><time>2026-04-19T10:52:28Z</time></trkpt><trkpt lat="55.77629482720985" lon="52.4274329295253"><ele>70.2</ele><time>2026-04-19T10:52:30Z</time></trkpt><trkpt lat="55.77638968216941" lon="52.42747952397342"><ele>70.0</ele><time>2026-04-19T10:52:32Z</time></trkpt><trkpt lat="55.77646214207716" lon="52.4275372536435"><ele>70.0</ele><time>2026-04-19T10:52:34Z</time></trkpt><trkpt lat="55.77658949733408" lon="52.427599572721746"><ele>70.0</ele><time>2026-04-19T10:52:37Z</time></trkpt><trkpt lat="55.776674072918794" lon="52.427636737336535"><ele>70.0</ele><time>2026-04-19T10:52:39Z</time></trkpt><trkpt lat="55.77676219767642" lon="52.42767613941465"><ele>70.0</ele><time>2026-04-19T10:52:41Z</time></trkpt><trkpt lat="55.776846602271895" lon="52.427724128070615"><ele>70.0</ele><time>2026-04-19T10:52:43Z</time></trkpt><trkpt lat="55.77693179977313" lon="52.42777036683035"><ele>69.83333333333333</ele><time>2026-04-19T10:52:45Z</time></trkpt><trkpt lat="55.777016690862034" lon="52.42781089040769"><ele>69.66666666666666</ele><time>2026-04-19T10:52:47Z</time></trkpt><trkpt lat="55.777093974566576" lon="52.42785282886352"><ele>69.5</ele><time>2026-04-19T10:52:49Z</time></trkpt><trkpt lat="55.77716412981418" lon="52.42789724472387"><ele>69.33333333333333</ele><time>2026-04-19T10:52:51Z</time></trkpt><trkpt lat="55.77724305016629" lon="52.42793775890262"><ele>69.16666666666667</ele><time>2026-04-19T10:52:53Z</time></trkpt><trkpt lat="55.77731946665583" lon="52.42797948338706"><ele>69.0</ele><time>2026-04-19T10:52:55Z</time></trkpt><trkpt lat="55.7774014647972" lon="52.428010703261286"><ele>69.0</ele><time>2026-04-19T10:52:57Z</time></trkpt><trkpt lat="55.77747635015786" lon="52.42802797085798"><ele>69.0</ele><time>2026-04-19T10:52:59Z</time></trkpt><trkpt lat="55.777554861054455" lon="52.428068385812566"><ele>69.0</ele><time>2026-04-19T10:53:01Z</time></trkpt><trkpt lat="55.77763604986432" lon="52.42810331597655"><ele>69.0</ele><time>2026-04-19T10:53:03Z</time></trkpt><trkpt lat="55.77771041653377" lon="52.42815122048194"><ele>69.0</ele><time>2026-04-19T10:53:05Z</time></trkpt><trkpt lat="55.7777855933008" lon="52.42819163937851"><ele>69.0</ele><time>2026-04-19T10:53:07Z</time></trkpt><trkpt lat="55.77785570219224" lon="52.42825708758458"><ele>68.66666666666667</ele><time>2026-04-19T10:53:09Z</time></trkpt><trkpt lat="55.77792451192888" lon="52.42830762334733"><ele>68.33333333333333</ele><time>2026-04-19T10:53:11Z</time></trkpt><trkpt lat="55.777990810704914" lon="52.42834643106451"><ele>68.0</ele><time>2026-04-19T10:53:13Z</time></trkpt><trkpt lat="55.77805477810397" lon="52.428382433072024"><ele>67.66666666666666</ele><time>2026-04-19T10:53:15Z</time></trkpt><trkpt lat="55.77814684355924" lon="52.42834454878556"><ele>67.33333333333333</ele><time>2026-04-19T10:53:18Z</time></trkpt><trkpt lat="55.77820941124685" lon="52.428408219980334"><ele>67.0</ele><time>2026-04-19T10:53:20Z</time></trkpt><trkpt lat="55.77826937900959" lon="52.428517822482725"><ele>67.0</ele><time>2026-04-19T10:53:23Z</time></trkpt><trkpt lat="55.778344687438874" lon="52.428538536770176"><ele>67.0</ele><time>2026-04-19T10:53:26Z</time></trkpt><trkpt lat="55.77843127417244" lon="52.42849752872117"><ele>67.0</ele><time>2026-04-19T10:53:29Z</time></trkpt><trkpt lat="55.77851880928214" lon="52.42849729689439"><ele>67.0</ele><time>2026-04-19T10:53:32Z</time></trkpt><trkpt lat="55.778581309185824" lon="52.42846342442491"><ele>67.0</ele><time>2026-04-19T10:53:35Z</time></trkpt><trkpt lat="55.77864859509273" lon="52.428482308125396"><ele>67.0</ele><time>2026-04-19T10:53:38Z</time></trkpt><trkpt lat="55.778716962421036" lon="52.42846682631325"><ele>67.28571428571429</ele><time>2026-04-19T10:53:41Z</time></trkpt><trkpt lat="55.778780352025734" lon="52.42846870938387"><ele>67.57142857142857</ele><time>2026-04-19T10:53:45.001Z</time></trkpt><trkpt lat="55.778855259766125" lon="52.428537017137835"><ele>67.85714285714286</ele><time>2026-04-19T10:54:42Z</time></trkpt><trkpt lat="55.77890914820331" lon="52.42861271818133"><ele>68.14285714285714</ele><time>2026-04-19T10:54:44Z</time></trkpt><trkpt lat="55.778985406028085" lon="52.428698417053624"><ele>68.42857142857143</ele><time>2026-04-19T10:54:47Z</time></trkpt><trkpt lat="55.779045846918486" lon="52.428747784249545"><ele>68.71428571428572</ele><time>2026-04-19T10:54:49Z</time></trkpt><trkpt lat="55.77909421804492" lon="52.42882370520691"><ele>69.0</ele><time>2026-04-19T10:54:51Z</time></trkpt><trkpt lat="55.779122785786534" lon="52.42894606166965"><ele>69.14285714285714</ele><time>2026-04-19T10:54:54Z</time></trkpt><trkpt lat="55.77910731907863" lon="52.42908732168241"><ele>69.28571428571429</ele><time>2026-04-19T10:54:58Z</time></trkpt><trkpt lat="55.779104886207826" lon="52.42921688221116"><ele>69.42857142857143</ele><time>2026-04-19T10:55:02Z</time></trkpt><trkpt lat="55.77906854937584" lon="52.42931658833103"><ele>69.57142857142857</ele><time>2026-04-19T10:55:09Z</time></trkpt><trkpt lat="55.77903823345418" lon="52.42945195221386"><ele>69.71428571428572</ele><time>2026-04-19T10:55:12Z</time></trkpt><trkpt lat="55.77899290708618" lon="52.42953861756503"><ele>69.85714285714286</ele><time>2026-04-19T10:55:14Z</time></trkpt><trkpt lat="55.77892665608237" lon="52.429555164034845"><ele>70.0</ele><time>2026-04-19T10:55:16Z</time></trkpt><trkpt lat="55.778842979928314" lon="52.42958037823037"><ele>70.0</ele><time>2026-04-19T10:55:19Z</time></trkpt><trkpt lat="55.77875767559538" lon="52.4296222146157"><ele>70.0</ele><time>2026-04-19T10:55:22Z</time></trkpt><trkpt lat="55.778681175974825" lon="52.429714805336964"><ele>70.0</ele><time>2026-04-19T10:55:25Z</time></trkpt><trkpt lat="55.778639370032074" lon="52.42982478972208"><ele>70.0</ele><time>2026-04-19T10:55:27Z</time></trkpt><trkpt lat="55.77860023850545" lon="52.42992221807995"><ele>70.0</ele><time>2026-04-19T10:55:29Z</time></trkpt><trkpt lat="55.77855785976581" lon="52.430014793411175"><ele>70.0</ele><time>2026-04-19T10:55:31Z</time></trkpt><trkpt lat="55.778515760452244" lon="52.43010607150531"><ele>70.0</ele><time>2026-04-19T10:55:33Z</time></trkpt><trkpt lat="55.77847665927935" lon="52.43020363890036"><ele>70.0</ele><time>2026-04-19T10:55:35Z</time></trkpt><trkpt lat="55.7784294063879" lon="52.430317642429976"><ele>70.0</ele><time>2026-04-19T10:55:38.001Z</time></trkpt><trkpt lat="55.778378581617666" lon="52.430417741429466"><ele>70.0</ele><time>2026-04-19T10:55:41.001Z</time></trkpt><trkpt lat="55.77836591262714" lon="52.430539310274085"><ele>70.0</ele><time>2026-04-19T10:55:44.001Z</time></trkpt><trkpt lat="55.77844350344984" lon="52.43055368490679"><ele>70.0</ele><time>2026-04-19T10:55:49.001Z</time></trkpt><trkpt lat="55.77850348306371" lon="52.43049537514388"><ele>70.0</ele><time>2026-04-19T10:55:54.001Z</time></trkpt><trkpt lat="55.7784454195027" lon="52.43059307653344"><ele>70.0</ele><time>2026-04-19T10:56:09.001Z</time></trkpt><trkpt lat="55.77842323943567" lon="52.43070327969325"><ele>70.0</ele><time>2026-04-19T10:56:13.001Z</time></trkpt><trkpt lat="55.77845168859564" lon="52.430805190948725"><ele>70.0</ele><time>2026-04-19T10:56:17.001Z</time></trkpt><trkpt lat="55.77838716850464" lon="52.43073220508407"><ele>70.0</ele><time>2026-04-19T10:57:23Z</time></trkpt><trkpt lat="55.77846314267508" lon="52.43075719245202"><ele>70.0</ele><time>2026-04-19T10:58:22.001Z</time></trkpt><trkpt lat="55.7784001983375" lon="52.43073225276263"><ele>70.0</ele><time>2026-04-19T11:00:09.001Z</time></trkpt><trkpt lat="55.77836237833433" lon="52.43061252043622"><ele>70.0</ele><time>2026-04-19T11:00:14.001Z</time></trkpt><trkpt lat="55.77830874361556" lon="52.430532887205366"><ele>70.0</ele><time>2026-04-19T11:00:18.001Z</time></trkpt><trkpt lat="55.7782613031819" lon="52.43061782852511"><ele>70.0</ele><time>2026-04-19T11:00:21.001Z</time></trkpt><trkpt lat="55.77822624791415" lon="52.430748630622865"><ele>70.0</ele><time>2026-04-19T11:00:24.001Z</time></trkpt><trkpt lat="55.778164554578915" lon="52.43086508501486"><ele>70.0</ele><time>2026-04-19T11:00:27.001Z</time></trkpt><trkpt lat="55.77811924955803" lon="52.43097941378466"><ele>70.0</ele><time>2026-04-19T11:00:30.001Z</time></trkpt><trkpt lat="55.77806846101102" lon="52.43109650780621"><ele>70.0</ele><time>2026-04-19T11:00:33.001Z</time></trkpt><trkpt lat="55.77801434037715" lon="52.431213625522105"><ele>70.16666666666666</ele><time>2026-04-19T11:00:36.001Z</time></trkpt><trkpt lat="55.77796604010584" lon="52.43132995597109"><ele>70.33333333333333</ele><time>2026-04-19T11:00:39Z</time></trkpt><trkpt lat="55.77791455282997" lon="52.431451572268195"><ele>70.5</ele><time>2026-04-19T11:00:42Z</time></trkpt><trkpt lat="55.77786422500678" lon="52.43154771196323"><ele>70.66666666666667</ele><time>2026-04-19T11:00:44Z</time></trkpt><trkpt lat="55.77780952983186" lon="52.431669539119376"><ele>70.83333333333334</ele><time>2026-04-19T11:00:47Z</time></trkpt><trkpt lat="55.77776689586236" lon="52.43175404507161"><ele>71.0</ele><time>2026-04-19T11:00:49Z</time></trkpt><trkpt lat="55.77770859775933" lon="52.431872965185185"><ele>70.83333333333334</ele><time>2026-04-19T11:00:52Z</time></trkpt><trkpt lat="55.77764961673503" lon="52.431999135670665"><ele>70.66666666666667</ele><time>2026-04-19T11:00:55Z</time></trkpt><trkpt lat="55.77760380188144" lon="52.432085016666235"><ele>70.5</ele><time>2026-04-19T11:00:57Z</time></trkpt><trkpt lat="55.777557940760786" lon="52.43222288442202"><ele>70.33333333333333</ele><time>2026-04-19T11:01:00Z</time></trkpt><trkpt lat="55.777517889147404" lon="52.43233983438766"><ele>70.16666666666666</ele><time>2026-04-19T11:01:03Z</time></trkpt><trkpt lat="55.77748139052048" lon="52.43245698982174"><ele>70.0</ele><time>2026-04-19T11:01:07Z</time></trkpt><trkpt lat="55.77743386756784" lon="52.43256248556533"><ele>70.33333333333333</ele><time>2026-04-19T11:01:10Z</time></trkpt><trkpt lat="55.77738285923374" lon="52.43267528688862"><ele>70.66666666666666</ele><time>2026-04-19T11:01:13Z</time></trkpt><trkpt lat="55.7773322543096" lon="52.432772665943716"><ele>71.0</ele><time>2026-04-19T11:01:16Z</time></trkpt><trkpt lat="55.77728548906642" lon="52.43286600443966"><ele>71.33333333333333</ele><time>2026-04-19T11:01:19Z</time></trkpt><trkpt lat="55.77723251224829" lon="52.43294952971374"><ele>71.66666666666667</ele><time>2026-04-19T11:01:22.001Z</time></trkpt><trkpt lat="55.77718018842447" lon="52.4330190202256"><ele>72.0</ele><time>2026-04-19T11:01:25.001Z</time></trkpt><trkpt lat="55.77711607312444" lon="52.43313461369421"><ele>72.33333333333333</ele><time>2026-04-19T11:01:29.001Z</time></trkpt><trkpt lat="55.77707020486239" lon="52.43323555085104"><ele>72.66666666666667</ele><time>2026-04-19T11:01:32.001Z</time></trkpt><trkpt lat="55.77702078447477" lon="52.433340177772"><ele>73.0</ele><time>2026-04-19T11:01:35.001Z</time></trkpt><trkpt lat="55.77697509779382" lon="52.433445852787536"><ele>73.33333333333334</ele><time>2026-04-19T11:01:38.001Z</time></trkpt><trkpt lat="55.776928907517565" lon="52.43354174231633"><ele>73.66666666666667</ele><time>2026-04-19T11:01:41.001Z</time></trkpt><trkpt lat="55.776882494560915" lon="52.43364448405362"><ele>74.0</ele><time>2026-04-19T11:01:44.001Z</time></trkpt><trkpt lat="55.77683082105247" lon="52.433753161136565"><ele>74.66666666666667</ele><time>2026-04-19T11:01:48.001Z</time></trkpt><trkpt lat="55.77677946566667" lon="52.43385304043022"><ele>75.33333333333334</ele><time>2026-04-19T11:01:51.001Z</time></trkpt><trkpt lat="55.776722050858936" lon="52.43396680138217"><ele>76.0</ele><time>2026-04-19T11:01:54.001Z</time></trkpt><trkpt lat="55.776660933203004" lon="52.434083166143154"><ele>76.66666666666667</ele><time>2026-04-19T11:01:58.001Z</time></trkpt><trkpt lat="55.77661880334593" lon="52.43422963422863"><ele>77.33333333333333</ele><time>2026-04-19T11:02:01.001Z</time></trkpt><trkpt lat="55.77655998601523" lon="52.43433152540593"><ele>78.0</ele><time>2026-04-19T11:02:04.001Z</time></trkpt><trkpt lat="55.776511256654736" lon="52.43441871942277"><ele>78.0</ele><time>2026-04-19T11:02:07.001Z</time></trkpt><trkpt lat="55.77646905788454" lon="52.43450322420325"><ele>78.0</ele><time>2026-04-19T11:02:09.001Z</time></trkpt><trkpt lat="55.776423618611766" lon="52.43459457569828"><ele>78.0</ele><time>2026-04-19T11:02:12.001Z</time></trkpt><trkpt lat="55.77637545832364" lon="52.43468889502815"><ele>78.0</ele><time>2026-04-19T11:02:15.001Z</time></trkpt><trkpt lat="55.77632966351484" lon="52.43476854082345"><ele>78.0</ele><time>2026-04-19T11:02:17.001Z</time></trkpt><trkpt lat="55.77628252368015" lon="52.434843999714296"><ele>78.0</ele><time>2026-04-19T11:02:20.001Z</time></trkpt><trkpt lat="55.776218232935506" lon="52.434949966330684"><ele>78.0</ele><time>2026-04-19T11:02:23.001Z</time></trkpt><trkpt lat="55.77617100136817" lon="52.43503520022843"><ele>78.16666666666667</ele><time>2026-04-19T11:02:26.001Z</time></trkpt><trkpt lat="55.776119754264094" lon="52.43511921726627"><ele>78.33333333333333</ele><time>2026-04-19T11:02:29.001Z</time></trkpt><trkpt lat="55.77607125474559" lon="52.43520551034229"><ele>78.5</ele><time>2026-04-19T11:02:32.001Z</time></trkpt><trkpt lat="55.77601292569125" lon="52.43529381493898"><ele>78.66666666666666</ele><time>2026-04-19T11:02:35.002Z</time></trkpt><trkpt lat="55.775949575934206" lon="52.43539418592211"><ele>78.83333333333333</ele><time>2026-04-19T11:02:38.002Z</time></trkpt><trkpt lat="55.775887961235966" lon="52.435488513093745"><ele>79.0</ele><time>2026-04-19T11:02:41.002Z</time></trkpt><trkpt lat="55.775820984601" lon="52.43559043243633"><ele>79.33333333333333</ele><time>2026-04-19T11:02:44Z</time></trkpt><trkpt lat="55.77574604139076" lon="52.43570254547179"><ele>79.66666666666666</ele><time>2026-04-19T11:02:47Z</time></trkpt><trkpt lat="55.775697537193864" lon="52.43578706694321"><ele>80.0</ele><time>2026-04-19T11:02:50Z</time></trkpt><trkpt lat="55.7756344057238" lon="52.435881307655876"><ele>80.33333333333333</ele><time>2026-04-19T11:02:52Z</time></trkpt><trkpt lat="55.775580104775706" lon="52.43601091255767"><ele>80.66666666666667</ele><time>2026-04-19T11:02:56Z</time></trkpt><trkpt lat="55.77551605067286" lon="52.436096060717155"><ele>81.0</ele><time>2026-04-19T11:02:59Z</time></trkpt><trkpt lat="55.77546004111167" lon="52.43618742281994"><ele>81.0</ele><time>2026-04-19T11:03:02Z</time></trkpt><trkpt lat="55.7754068964418" lon="52.43626867349074"><ele>81.0</ele><time>2026-04-19T11:03:05Z</time></trkpt><trkpt lat="55.775365316873234" lon="52.436363656157106"><ele>81.0</ele><time>2026-04-19T11:03:07Z</time></trkpt><trkpt lat="55.775358018911895" lon="52.43648312982976"><ele>81.0</ele><time>2026-04-19T11:03:10Z</time></trkpt><trkpt lat="55.77534545642976" lon="52.436601398289476"><ele>81.0</ele><time>2026-04-19T11:03:13Z</time></trkpt><trkpt lat="55.77529368246649" lon="52.43670329592255"><ele>81.0</ele><time>2026-04-19T11:03:17.001Z</time></trkpt><trkpt lat="55.775225008567695" lon="52.43676105395039"><ele>81.0</ele><time>2026-04-19T11:03:42.001Z</time></trkpt><trkpt lat="55.77516263293096" lon="52.43684394852078"><ele>81.16666666666667</ele><time>2026-04-19T11:03:45.001Z</time></trkpt><trkpt lat="55.77508781006566" lon="52.43691623292888"><ele>81.33333333333333</ele><time>2026-04-19T11:03:48.001Z</time></trkpt><trkpt lat="55.77501414127423" lon="52.4369201503072"><ele>81.5</ele><time>2026-04-19T11:03:51.001Z</time></trkpt><trkpt lat="55.77493457684531" lon="52.436905899339855"><ele>81.66666666666666</ele><time>2026-04-19T11:03:54.001Z</time></trkpt><trkpt lat="55.774852946778395" lon="52.43692945039592"><ele>81.83333333333333</ele><time>2026-04-19T11:03:57.001Z</time></trkpt><trkpt lat="55.7747770294801" lon="52.436996681378155"><ele>82.0</ele><time>2026-04-19T11:04:01.001Z</time></trkpt><trkpt lat="55.774711904297874" lon="52.43706936180955"><ele>82.0</ele><time>2026-04-19T11:04:04.001Z</time></trkpt><trkpt lat="55.774644449347626" lon="52.437147627401025"><ele>82.0</ele><time>2026-04-19T11:04:07.001Z</time></trkpt><trkpt lat="55.77458549878713" lon="52.43720846195266"><ele>82.0</ele><time>2026-04-19T11:04:10.001Z</time></trkpt><trkpt lat="55.77452275359296" lon="52.43727387105252"><ele>82.0</ele><time>2026-04-19T11:04:13.001Z</time></trkpt><trkpt lat="55.77445794492363" lon="52.43735195806611"><ele>82.0</ele><time>2026-04-19T11:04:15.001Z</time></trkpt><trkpt lat="55.77438292451033" lon="52.43743139738188"><ele>82.0</ele><time>2026-04-19T11:04:18.001Z</time></trkpt><trkpt lat="55.77430159890625" lon="52.43750608274965"><ele>82.33333333333333</ele><time>2026-04-19T11:04:21.001Z</time></trkpt><trkpt lat="55.77422811955561" lon="52.437588120175974"><ele>82.66666666666666</ele><time>2026-04-19T11:04:24.001Z</time></trkpt><trkpt lat="55.77414796842209" lon="52.43766483357659"><ele>83.0</ele><time>2026-04-19T11:04:27.002Z</time></trkpt><trkpt lat="55.77406164531223" lon="52.437715133420824"><ele>83.33333333333333</ele><time>2026-04-19T11:04:30.002Z</time></trkpt><trkpt lat="55.773986586846696" lon="52.43775755630527"><ele>83.66666666666667</ele><time>2026-04-19T11:04:33.002Z</time></trkpt><trkpt lat="55.773921200095195" lon="52.43781184264719"><ele>84.0</ele><time>2026-04-19T11:04:36.002Z</time></trkpt><trkpt lat="55.77385520314224" lon="52.43787287767106"><ele>84.0</ele><time>2026-04-19T11:04:39.002Z</time></trkpt><trkpt lat="55.77378788116067" lon="52.43792994059056"><ele>84.0</ele><time>2026-04-19T11:04:42.002Z</time></trkpt><trkpt lat="55.77372194260741" lon="52.43797855932777"><ele>84.0</ele><time>2026-04-19T11:04:44.002Z</time></trkpt><trkpt lat="55.7736278163102" lon="52.43804675888046"><ele>84.0</ele><time>2026-04-19T11:04:47.002Z</time></trkpt><trkpt lat="55.77356385597551" lon="52.4380988942184"><ele>84.0</ele><time>2026-04-19T11:04:49Z</time></trkpt><trkpt lat="55.773495535849605" lon="52.438150917125874"><ele>84.0</ele><time>2026-04-19T11:04:51Z</time></trkpt><trkpt lat="55.77343245755046" lon="52.43819787704594"><ele>84.14285714285714</ele><time>2026-04-19T11:04:53Z</time></trkpt><trkpt lat="55.7733655103345" lon="52.438245860275686"><ele>84.28571428571428</ele><time>2026-04-19T11:04:56Z</time></trkpt><trkpt lat="55.773300979757344" lon="52.43829018892861"><ele>84.42857142857143</ele><time>2026-04-19T11:04:58Z</time></trkpt><trkpt lat="55.77324035466337" lon="52.438333235097566"><ele>84.57142857142857</ele><time>2026-04-19T11:04:59Z</time></trkpt><trkpt lat="55.77317818578643" lon="52.43837679539869"><ele>84.71428571428571</ele><time>2026-04-19T11:05:01Z</time></trkpt><trkpt lat="55.773100571068134" lon="52.43842351744845"><ele>84.85714285714286</ele><time>2026-04-19T11:05:04Z</time></trkpt><trkpt lat="55.773028753597664" lon="52.438468536078524"><ele>85.0</ele><time>2026-04-19T11:05:07Z</time></trkpt><trkpt lat="55.77296642595994" lon="52.438500262919504"><ele>85.0</ele><time>2026-04-19T11:05:09.001Z</time></trkpt><trkpt lat="55.77289246880376" lon="52.43854965651151"><ele>85.0</ele><time>2026-04-19T11:05:12.001Z</time></trkpt><trkpt lat="55.77282366457876" lon="52.43859238214305"><ele>85.0</ele><time>2026-04-19T11:05:14.001Z</time></trkpt><trkpt lat="55.7727400777755" lon="52.43864853825635"><ele>85.0</ele><time>2026-04-19T11:05:17.001Z</time></trkpt><trkpt lat="55.77266387058151" lon="52.438683575977684"><ele>85.0</ele><time>2026-04-19T11:05:19.001Z</time></trkpt><trkpt lat="55.77258344056049" lon="52.438732983087824"><ele>85.0</ele><time>2026-04-19T11:05:22.001Z</time></trkpt><trkpt lat="55.77251007464838" lon="52.43876786680289"><ele>85.6</ele><time>2026-04-19T11:05:24.001Z</time></trkpt><trkpt lat="55.772436360291536" lon="52.43881016824927"><ele>86.2</ele><time>2026-04-19T11:05:27.001Z</time></trkpt><trkpt lat="55.772348726600015" lon="52.438855219203994"><ele>86.80000000000001</ele><time>2026-04-19T11:05:30.001Z</time></trkpt><trkpt lat="55.77226058855606" lon="52.43889747972315"><ele>87.4</ele><time>2026-04-19T11:05:31.001Z</time></trkpt><trkpt lat="55.77216886035235" lon="52.43894477793582"><ele>88.0</ele><time>2026-04-19T11:05:34.001Z</time></trkpt><trkpt lat="55.77207770011835" lon="52.43898629760324"><ele>88.0</ele><time>2026-04-19T11:05:37.001Z</time></trkpt><trkpt lat="55.77201433698648" lon="52.43901540668857"><ele>88.0</ele><time>2026-04-19T11:05:39.001Z</time></trkpt><trkpt lat="55.77192370417612" lon="52.43905793136903"><ele>88.0</ele><time>2026-04-19T11:05:42.001Z</time></trkpt><trkpt lat="55.77183990491184" lon="52.439113571091426"><ele>88.0</ele><time>2026-04-19T11:05:45.001Z</time></trkpt><trkpt lat="55.77177174336775" lon="52.439147893640424"><ele>88.0</ele><time>2026-04-19T11:05:48.001Z</time></trkpt><trkpt lat="55.771685370086786" lon="52.43918932580649"><ele>88.0</ele><time>2026-04-19T11:05:51.001Z</time></trkpt><trkpt lat="55.77160964889809" lon="52.43921572376165"><ele>88.16666666666666</ele><time>2026-04-19T11:05:54.001Z</time></trkpt><trkpt lat="55.77152279770522" lon="52.43925057567152"><ele>88.33333333333333</ele><time>2026-04-19T11:05:57.001Z</time></trkpt><trkpt lat="55.771439897359706" lon="52.43927715728105"><ele>88.5</ele><time>2026-04-19T11:06:00.001Z</time></trkpt><trkpt lat="55.77135127299137" lon="52.439318607246314"><ele>88.66666666666667</ele><time>2026-04-19T11:06:03.001Z</time></trkpt><trkpt lat="55.77126712353624" lon="52.4393523697016"><ele>88.83333333333334</ele><time>2026-04-19T11:06:06.001Z</time></trkpt><trkpt lat="55.771189067840744" lon="52.43939693631437"><ele>89.0</ele><time>2026-04-19T11:06:09.001Z</time></trkpt><trkpt lat="55.77111135684473" lon="52.439426755680934"><ele>89.0</ele><time>2026-04-19T11:06:12.001Z</time></trkpt><trkpt lat="55.771028850827186" lon="52.439457674066574"><ele>89.0</ele><time>2026-04-19T11:06:15.001Z</time></trkpt><trkpt lat="55.770937447408784" lon="52.43949165403829"><ele>89.0</ele><time>2026-04-19T11:06:18.002Z</time></trkpt><trkpt lat="55.77084447221541" lon="52.4395300490758"><ele>89.0</ele><time>2026-04-19T11:06:21.002Z</time></trkpt><trkpt lat="55.77075220790456" lon="52.439561343983584"><ele>89.0</ele><time>2026-04-19T11:06:24.001Z</time></trkpt><trkpt lat="55.7706632829116" lon="52.43959986821576"><ele>89.16666666666667</ele><time>2026-04-19T11:06:27.001Z</time></trkpt><trkpt lat="55.77058188621047" lon="52.439632859666624"><ele>89.33333333333334</ele><time>2026-04-19T11:06:30.001Z</time></trkpt><trkpt lat="55.77049234183851" lon="52.43966684397685"><ele>89.5</ele><time>2026-04-19T11:06:33.001Z</time></trkpt><trkpt lat="55.7704082600551" lon="52.43970199948301"><ele>89.66666666666667</ele><time>2026-04-19T11:06:36.001Z</time></trkpt><trkpt lat="55.770344730895864" lon="52.439732651953236"><ele>89.83333333333333</ele><time>2026-04-19T11:06:38.001Z</time></trkpt><trkpt lat="55.77025144039167" lon="52.4397726779927"><ele>90.0</ele><time>2026-04-19T11:06:41.001Z</time></trkpt><trkpt lat="55.77018858465566" lon="52.43979339324057"><ele>90.5</ele><time>2026-04-19T11:06:43.001Z</time></trkpt><trkpt lat="55.77009984721138" lon="52.439830215082594"><ele>91.0</ele><time>2026-04-19T11:06:46.001Z</time></trkpt><trkpt lat="55.7700100381905" lon="52.43987585103333"><ele>91.5</ele><time>2026-04-19T11:06:49.001Z</time></trkpt><trkpt lat="55.76994697447654" lon="52.43990468705767"><ele>92.0</ele><time>2026-04-19T11:06:51.001Z</time></trkpt><trkpt lat="55.76985990626041" lon="52.4399414453872"><ele>92.5</ele><time>2026-04-19T11:06:54.001Z</time></trkpt><trkpt lat="55.76977600616571" lon="52.43997679191295"><ele>93.0</ele><time>2026-04-19T11:06:56.999Z</time></trkpt><trkpt lat="55.76969454909358" lon="52.44001346354097"><ele>93.00000000000001</ele><time>2026-04-19T11:06:59.999Z</time></trkpt><trkpt lat="55.76962601624373" lon="52.440047316611725"><ele>93.0</ele><time>2026-04-19T11:07:02.999Z</time></trkpt><trkpt lat="55.76955133998316" lon="52.44008253731818"><ele>93.0</ele><time>2026-04-19T11:07:05.999Z</time></trkpt><trkpt lat="55.76948541527321" lon="52.44016202908647"><ele>93.0</ele><time>2026-04-19T11:07:09Z</time></trkpt><trkpt lat="55.7694484936856" lon="52.440270197442956"><ele>93.0</ele><time>2026-04-19T11:07:12Z</time></trkpt><trkpt lat="55.769385069262654" lon="52.44028422355097"><ele>93.00000000000001</ele><time>2026-04-19T11:07:15Z</time></trkpt><trkpt lat="55.76930991478635" lon="52.440273382730155"><ele>93.0</ele><time>2026-04-19T11:07:18Z</time></trkpt><trkpt lat="55.769229852589916" lon="52.440280475573644"><ele>93.0</ele><time>2026-04-19T11:07:21Z</time></trkpt><trkpt lat="55.76914759495471" lon="52.44029092126272"><ele>93.0</ele><time>2026-04-19T11:07:24Z</time></trkpt><trkpt lat="55.769073047022" lon="52.44032546602137"><ele>93.0</ele><time>2026-04-19T11:07:27Z</time></trkpt><trkpt lat="55.76899711253815" lon="52.44037719346429"><ele>93.0</ele><time>2026-04-19T11:07:30Z</time></trkpt><trkpt lat="55.76892415074177" lon="52.44042066642543"><ele>93.0</ele><time>2026-04-19T11:07:33Z</time></trkpt><trkpt lat="55.76885555582777" lon="52.44046527478823"><ele>93.0</ele><time>2026-04-19T11:07:36Z</time></trkpt><trkpt lat="55.76878804332537" lon="52.44051268609863"><ele>93.00000000000001</ele><time>2026-04-19T11:07:39Z</time></trkpt><trkpt lat="55.76872606163669" lon="52.44055186461741"><ele>93.0</ele><time>2026-04-19T11:07:42Z</time></trkpt><trkpt lat="55.76865703892024" lon="52.4405085596999"><ele>93.0</ele><time>2026-04-19T11:07:48Z</time></trkpt><trkpt lat="55.768636676889486" lon="52.44039605762273"><ele>93.0</ele><time>2026-04-19T11:07:51Z</time></trkpt><trkpt lat="55.76860917664403" lon="52.440267624098276"><ele>93.0</ele><time>2026-04-19T11:07:56Z</time></trkpt><trkpt lat="55.76857536332146" lon="52.440169283298445"><ele>93.00000000000001</ele><time>2026-04-19T11:08:00Z</time></trkpt><trkpt lat="55.7686176460289" lon="52.44007675166795"><ele>93.0</ele><time>2026-04-19T11:08:12Z</time></trkpt><trkpt lat="55.768702862286894" lon="52.440014869141145"><ele>93.0</ele><time>2026-04-19T11:08:16Z</time></trkpt><trkpt lat="55.76875007516165" lon="52.43992600566315"><ele>93.0</ele><time>2026-04-19T11:08:19.001Z</time></trkpt><trkpt lat="55.76871321861503" lon="52.43979635144121"><ele>93.0</ele><time>2026-04-19T11:08:23.001Z</time></trkpt><trkpt lat="55.768682072623626" lon="52.439669930659726"><ele>93.0</ele><time>2026-04-19T11:08:27.001Z</time></trkpt><trkpt lat="55.768659748581555" lon="52.43956163100492"><ele>93.0</ele><time>2026-04-19T11:08:30.001Z</time></trkpt><trkpt lat="55.76864449047452" lon="52.43942049799689"><ele>93.0</ele><time>2026-04-19T11:08:34.001Z</time></trkpt><trkpt lat="55.768637241832444" lon="52.43927714901772"><ele>93.14285714285715</ele><time>2026-04-19T11:08:38.001Z</time></trkpt><trkpt lat="55.76862866333087" lon="52.439139977786"><ele>93.28571428571429</ele><time>2026-04-19T11:08:42.001Z</time></trkpt><trkpt lat="55.768637723068515" lon="52.43902061975526"><ele>93.42857142857143</ele><time>2026-04-19T11:08:46.001Z</time></trkpt><trkpt lat="55.76865815960507" lon="52.43890655020442"><ele>93.57142857142858</ele><time>2026-04-19T11:08:50.001Z</time></trkpt><trkpt lat="55.76865007793372" lon="52.43878506004282"><ele>93.71428571428571</ele><time>2026-04-19T11:08:53.001Z</time></trkpt><trkpt lat="55.76858562650361" lon="52.43871914163593"><ele>93.85714285714286</ele><time>2026-04-19T11:08:58.001Z</time></trkpt><trkpt lat="55.76851859675573" lon="52.438749223458814"><ele>94.0</ele><time>2026-04-19T11:09:01Z</time></trkpt><trkpt lat="55.76845117151795" lon="52.43876787008253"><ele>94.66666666666666</ele><time>2026-04-19T11:09:04Z</time></trkpt><trkpt lat="55.768378238144486" lon="52.438847793718494"><ele>95.33333333333333</ele><time>2026-04-19T11:09:08Z</time></trkpt><trkpt lat="55.76830783531995" lon="52.43890994146872"><ele>96.0</ele><time>2026-04-19T11:09:11Z</time></trkpt><trkpt lat="55.76823650874967" lon="52.438970056963505"><ele>96.66666666666666</ele><time>2026-04-19T11:09:14Z</time></trkpt><trkpt lat="55.768165441220816" lon="52.43896159065214"><ele>97.33333333333333</ele><time>2026-04-19T11:09:17Z</time></trkpt><trkpt lat="55.768093456616654" lon="52.438903038591505"><ele>98.0</ele><time>2026-04-19T11:09:20Z</time></trkpt><trkpt lat="55.76801526755432" lon="52.43889613875503"><ele>98.0</ele><time>2026-04-19T11:09:23Z</time></trkpt><trkpt lat="55.767945162299924" lon="52.4388296706137"><ele>98.0</ele><time>2026-04-19T11:09:26Z</time></trkpt><trkpt lat="55.76788755584668" lon="52.438748539521455"><ele>98.0</ele><time>2026-04-19T11:09:30Z</time></trkpt><trkpt lat="55.767852099147596" lon="52.4386332563569"><ele>98.0</ele><time>2026-04-19T11:09:33Z</time></trkpt><trkpt lat="55.76785993290167" lon="52.43850504821633"><ele>98.0</ele><time>2026-04-19T11:09:35Z</time></trkpt><trkpt lat="55.76787199872308" lon="52.43837737310931"><ele>98.0</ele><time>2026-04-19T11:09:37Z</time></trkpt><trkpt lat="55.767860016827406" lon="52.43824692366523"><ele>98.0</ele><time>2026-04-19T11:09:39Z</time></trkpt><trkpt lat="55.7678303036454" lon="52.43812113823673"><ele>98.0</ele><time>2026-04-19T11:09:41Z</time></trkpt><trkpt lat="55.767782001371444" lon="52.43802411838359"><ele>98.0</ele><time>2026-04-19T11:09:43Z</time></trkpt><trkpt lat="55.76772725711798" lon="52.43793969399756"><ele>98.0</ele><time>2026-04-19T11:09:45Z</time></trkpt><trkpt lat="55.76767895618392" lon="52.43784828455489"><ele>98.0</ele><time>2026-04-19T11:09:47Z</time></trkpt><trkpt lat="55.767632077582874" lon="52.43776083802832"><ele>98.0</ele><time>2026-04-19T11:09:49Z</time></trkpt><trkpt lat="55.76758290745165" lon="52.437665251731744"><ele>98.0</ele><time>2026-04-19T11:09:51Z</time></trkpt><trkpt lat="55.767531360947714" lon="52.43757339919999"><ele>98.0</ele><time>2026-04-19T11:09:53Z</time></trkpt><trkpt lat="55.76745602962501" lon="52.43754007927237"><ele>98.28571428571429</ele><time>2026-04-19T11:09:56Z</time></trkpt><trkpt lat="55.76738724415555" lon="52.4374718564122"><ele>98.57142857142857</ele><time>2026-04-19T11:09:59Z</time></trkpt><trkpt lat="55.76733982596884" lon="52.437380263852134"><ele>98.85714285714286</ele><time>2026-04-19T11:10:01Z</time></trkpt><trkpt lat="55.76729888752335" lon="52.437286207795594"><ele>99.14285714285714</ele><time>2026-04-19T11:10:03Z</time></trkpt><trkpt lat="55.76725142368745" lon="52.43719476016696"><ele>99.42857142857143</ele><time>2026-04-19T11:10:05Z</time></trkpt><trkpt lat="55.76720556717389" lon="52.43710543223547"><ele>99.71428571428572</ele><time>2026-04-19T11:10:07Z</time></trkpt><trkpt lat="55.767160217239734" lon="52.43702338350197"><ele>100.0</ele><time>2026-04-19T11:10:09.001Z</time></trkpt><trkpt lat="55.767119988884275" lon="52.43692413370616"><ele>100.00000000000001</ele><time>2026-04-19T11:10:11.001Z</time></trkpt><trkpt lat="55.76707056469166" lon="52.43683694146476"><ele>100.0</ele><time>2026-04-19T11:10:13.001Z</time></trkpt><trkpt lat="55.7670163657726" lon="52.43675195148558"><ele>100.0</ele><time>2026-04-19T11:10:15.001Z</time></trkpt><trkpt lat="55.76694917664962" lon="52.43663292490993"><ele>100.0</ele><time>2026-04-19T11:10:18.001Z</time></trkpt><trkpt lat="55.7668856798112" lon="52.43653665825836"><ele>100.00000000000001</ele><time>2026-04-19T11:10:21.001Z</time></trkpt><trkpt lat="55.766815039986724" lon="52.43659023337457"><ele>100.0</ele><time>2026-04-19T11:10:26.001Z</time></trkpt><trkpt lat="55.7667499545314" lon="52.43652811039888"><ele>100.50000000000001</ele><time>2026-04-19T11:10:31.001Z</time></trkpt><trkpt lat="55.766772210253" lon="52.43640344761552"><ele>101.0</ele><time>2026-04-19T11:10:34.001Z</time></trkpt><trkpt lat="55.76681127658906" lon="52.43628270946475"><ele>101.5</ele><time>2026-04-19T11:10:37.001Z</time></trkpt><trkpt lat="55.76677455644121" lon="52.43614567516441"><ele>102.0</ele><time>2026-04-19T11:10:41.001Z</time></trkpt><trkpt lat="55.76671259787893" lon="52.43602550182728"><ele>102.50000000000001</ele><time>2026-04-19T11:10:44.001Z</time></trkpt><trkpt lat="55.76667140349759" lon="52.43593655968311"><ele>103.0</ele><time>2026-04-19T11:10:46.001Z</time></trkpt><trkpt lat="55.76661411484342" lon="52.43580480539803"><ele>103.00000000000001</ele><time>2026-04-19T11:10:49.001Z</time></trkpt><trkpt lat="55.76655602152318" lon="52.435681898477895"><ele>103.0</ele><time>2026-04-19T11:10:52.001Z</time></trkpt><trkpt lat="55.7665153880804" lon="52.43559575577338"><ele>103.0</ele><time>2026-04-19T11:10:54.001Z</time></trkpt><trkpt lat="55.76645900360227" lon="52.43547688816583"><ele>103.0</ele><time>2026-04-19T11:10:57.001Z</time></trkpt><trkpt lat="55.766418910751554" lon="52.435383873336555"><ele>103.00000000000001</ele><time>2026-04-19T11:10:59.001Z</time></trkpt><trkpt lat="55.76635422135446" lon="52.435303224357874"><ele>103.0</ele><time>2026-04-19T11:11:02.001Z</time></trkpt><trkpt lat="55.76626388765194" lon="52.43529467409985"><ele>102.99999999999999</ele><time>2026-04-19T11:11:05.001Z</time></trkpt><trkpt lat="55.76618395352839" lon="52.43523922118654"><ele>103.0</ele><time>2026-04-19T11:11:08Z</time></trkpt><trkpt lat="55.766133544273565" lon="52.43516748324275"><ele>103.0</ele><time>2026-04-19T11:11:10Z</time></trkpt><trkpt lat="55.76608634845058" lon="52.43507661565972"><ele>103.0</ele><time>2026-04-19T11:11:12Z</time></trkpt><trkpt lat="55.76604073329723" lon="52.43497732628219"><ele>103.0</ele><time>2026-04-19T11:11:14Z</time></trkpt><trkpt lat="55.76598635662148" lon="52.43488630696225"><ele>102.99999999999999</ele><time>2026-04-19T11:11:16Z</time></trkpt><trkpt lat="55.765934657198194" lon="52.434792872035985"><ele>103.0</ele><time>2026-04-19T11:11:18Z</time></trkpt><trkpt lat="55.76588673742531" lon="52.43470751648714"><ele>102.85714285714285</ele><time>2026-04-19T11:11:20Z</time></trkpt><trkpt lat="55.76584253934288" lon="52.434609128056536"><ele>102.71428571428571</ele><time>2026-04-19T11:11:22Z</time></trkpt><trkpt lat="55.76579457628649" lon="52.43452188975552"><ele>102.57142857142857</ele><time>2026-04-19T11:11:24Z</time></trkpt><trkpt lat="55.765747488503116" lon="52.434434572810616"><ele>102.42857142857142</ele><time>2026-04-19T11:11:26Z</time></trkpt><trkpt lat="55.76569742354128" lon="52.434343770536984"><ele>102.28571428571429</ele><time>2026-04-19T11:11:28Z</time></trkpt><trkpt lat="55.76564514741152" lon="52.43426424351647"><ele>102.14285714285714</ele><time>2026-04-19T11:11:30Z</time></trkpt><trkpt lat="55.76559139996378" lon="52.4341755616471"><ele>102.0</ele><time>2026-04-19T11:11:32Z</time></trkpt><trkpt lat="55.76554557168052" lon="52.43408449587856"><ele>102.0</ele><time>2026-04-19T11:11:34Z</time></trkpt><trkpt lat="55.765485193447944" lon="52.43402203419808"><ele>102.0</ele><time>2026-04-19T11:11:36Z</time></trkpt><trkpt lat="55.76541288226716" lon="52.43397716336799"><ele>102.0</ele><time>2026-04-19T11:11:38Z</time></trkpt><trkpt lat="55.765376111316826" lon="52.43388044028468"><ele>102.0</ele><time>2026-04-19T11:11:40Z</time></trkpt><trkpt lat="55.76533423284745" lon="52.43378599280201"><ele>102.0</ele><time>2026-04-19T11:11:42Z</time></trkpt><trkpt lat="55.76528328285549" lon="52.433701293837935"><ele>102.0</ele><time>2026-04-19T11:11:44Z</time></trkpt><trkpt lat="55.76523641864382" lon="52.433626437881145"><ele>102.0</ele><time>2026-04-19T11:11:46Z</time></trkpt><trkpt lat="55.765186990576936" lon="52.43355210034646"><ele>102.33333333333333</ele><time>2026-04-19T11:11:48Z</time></trkpt><trkpt lat="55.76513464173433" lon="52.43348490701399"><ele>102.66666666666666</ele><time>2026-04-19T11:11:50Z</time></trkpt><trkpt lat="55.76508441669733" lon="52.43341066180916"><ele>103.0</ele><time>2026-04-19T11:11:52Z</time></trkpt><trkpt lat="55.76501127417084" lon="52.43331291047668"><ele>103.33333333333333</ele><time>2026-04-19T11:11:55Z</time></trkpt><trkpt lat="55.764940518444305" lon="52.43322084202301"><ele>103.66666666666666</ele><time>2026-04-19T11:11:58Z</time></trkpt><trkpt lat="55.7649928032342" lon="52.43309150844105"><ele>104.0</ele><time>2026-04-19T11:12:03Z</time></trkpt><trkpt lat="55.76506438220726" lon="52.43299881506589"><ele>103.66666666666666</ele><time>2026-04-19T11:12:06Z</time></trkpt><trkpt lat="55.76511061898042" lon="52.432918171711364"><ele>103.33333333333333</ele><time>2026-04-19T11:12:08Z</time></trkpt><trkpt lat="55.76514119449304" lon="52.43281047932918"><ele>103.0</ele><time>2026-04-19T11:12:11Z</time></trkpt><trkpt lat="55.76508435502496" lon="52.432709622751005"><ele>102.66666666666666</ele><time>2026-04-19T11:12:14.001Z</time></trkpt><trkpt lat="55.76502243290168" lon="52.432584877054374"><ele>102.33333333333333</ele><time>2026-04-19T11:12:17.001Z</time></trkpt><trkpt lat="55.76495779473001" lon="52.43246975827709"><ele>102.0</ele><time>2026-04-19T11:12:20.001Z</time></trkpt><trkpt lat="55.76489501592833" lon="52.432355428967725"><ele>102.0</ele><time>2026-04-19T11:12:23.001Z</time></trkpt><trkpt lat="55.76482811820478" lon="52.4322402985964"><ele>102.0</ele><time>2026-04-19T11:12:26.001Z</time></trkpt><trkpt lat="55.764758379097756" lon="52.432147756708225"><ele>102.0</ele><time>2026-04-19T11:12:29.001Z</time></trkpt><trkpt lat="55.764695907915744" lon="52.4320859648215"><ele>102.0</ele><time>2026-04-19T11:12:32.001Z</time></trkpt><trkpt lat="55.76461909267474" lon="52.432045486801385"><ele>102.0</ele><time>2026-04-19T11:12:35.001Z</time></trkpt><trkpt lat="55.76456405511506" lon="52.432105392995496"><ele>102.0</ele><time>2026-04-19T11:12:38.001Z</time></trkpt><trkpt lat="55.76449208677287" lon="52.432047493492405"><ele>101.83333333333333</ele><time>2026-04-19T11:12:43.001Z</time></trkpt><trkpt lat="55.76444687955845" lon="52.431903134622715"><ele>101.66666666666666</ele><time>2026-04-19T11:12:46.001Z</time></trkpt><trkpt lat="55.764397687232616" lon="52.43180660519763"><ele>101.5</ele><time>2026-04-19T11:12:48.001Z</time></trkpt><trkpt lat="55.76432861547694" lon="52.431693594980594"><ele>101.33333333333333</ele><time>2026-04-19T11:12:51.001Z</time></trkpt><trkpt lat="55.764272930018045" lon="52.43159942833123"><ele>101.16666666666666</ele><time>2026-04-19T11:12:54.001Z</time></trkpt><trkpt lat="55.76422036999663" lon="52.43150149026081"><ele>101.0</ele><time>2026-04-19T11:12:57.001Z</time></trkpt><trkpt lat="55.76419643673471" lon="52.43138006423931"><ele>101.16666666666666</ele><time>2026-04-19T11:13:01.001Z</time></trkpt><trkpt lat="55.764140976704965" lon="52.431278071541946"><ele>101.33333333333333</ele><time>2026-04-19T11:13:04.001Z</time></trkpt><trkpt lat="55.76409285098988" lon="52.43116832946891"><ele>101.5</ele><time>2026-04-19T11:13:07.001Z</time></trkpt><trkpt lat="55.76403224211289" lon="52.43107719727808"><ele>101.66666666666666</ele><time>2026-04-19T11:13:10.001Z</time></trkpt><trkpt lat="55.763974569635224" lon="52.43097589777767"><ele>101.83333333333333</ele><time>2026-04-19T11:13:13Z</time></trkpt><trkpt lat="55.763916020147406" lon="52.43089613778219"><ele>102.0</ele><time>2026-04-19T11:13:16Z</time></trkpt><trkpt lat="55.76384350100586" lon="52.4307839344447"><ele>102.0</ele><time>2026-04-19T11:13:19Z</time></trkpt><trkpt lat="55.763799626016876" lon="52.43068893260056"><ele>102.0</ele><time>2026-04-19T11:13:21Z</time></trkpt><trkpt lat="55.76374261178436" lon="52.43058890586836"><ele>102.0</ele><time>2026-04-19T11:13:24Z</time></trkpt><trkpt lat="55.76368497270727" lon="52.43048394095985"><ele>102.0</ele><time>2026-04-19T11:13:27Z</time></trkpt><trkpt lat="55.76362098638543" lon="52.43036897343434"><ele>102.0</ele><time>2026-04-19T11:13:30Z</time></trkpt><trkpt lat="55.763559617483466" lon="52.43027109172524"><ele>102.0</ele><time>2026-04-19T11:13:33Z</time></trkpt><trkpt lat="55.76350542757228" lon="52.43018224318383"><ele>102.33333333333333</ele><time>2026-04-19T11:13:36Z</time></trkpt><trkpt lat="55.76345804579832" lon="52.430103127849755"><ele>102.66666666666666</ele><time>2026-04-19T11:13:38Z</time></trkpt><trkpt lat="55.76338836264998" lon="52.429994182764084"><ele>103.0</ele><time>2026-04-19T11:13:41Z</time></trkpt><trkpt lat="55.76333739553812" lon="52.42988675413408"><ele>103.33333333333333</ele><time>2026-04-19T11:13:44Z</time></trkpt><trkpt lat="55.763283453844544" lon="52.429774735512154"><ele>103.66666666666666</ele><time>2026-04-19T11:13:47Z</time></trkpt><trkpt lat="55.763201695362014" lon="52.42970679007438"><ele>104.0</ele><time>2026-04-19T11:13:50Z</time></trkpt><trkpt lat="55.76314186946621" lon="52.42957808348162"><ele>103.99999999999999</ele><time>2026-04-19T11:13:53Z</time></trkpt><trkpt lat="55.76309496403606" lon="52.42949463147388"><ele>104.0</ele><time>2026-04-19T11:13:55Z</time></trkpt><trkpt lat="55.763031664548436" lon="52.429374483827104"><ele>104.0</ele><time>2026-04-19T11:13:58Z</time></trkpt><trkpt lat="55.762974985388624" lon="52.42925649165801"><ele>104.0</ele><time>2026-04-19T11:14:01Z</time></trkpt><trkpt lat="55.76293384314372" lon="52.429170956785875"><ele>103.99999999999999</ele><time>2026-04-19T11:14:03Z</time></trkpt><trkpt lat="55.76288450610226" lon="52.4290504276437"><ele>104.0</ele><time>2026-04-19T11:14:06Z</time></trkpt><trkpt lat="55.76282486115951" lon="52.42895561535457"><ele>103.99999999999999</ele><time>2026-04-19T11:14:08Z</time></trkpt><trkpt lat="55.76276768607949" lon="52.42886132006009"><ele>104.0</ele><time>2026-04-19T11:14:11Z</time></trkpt><trkpt lat="55.7627263749187" lon="52.42868034609002"><ele>104.0</ele><time>2026-04-19T11:14:14Z</time></trkpt><trkpt lat="55.76265402556146" lon="52.42857654953122"><ele>104.0</ele><time>2026-04-19T11:14:16.001Z</time></trkpt><trkpt lat="55.76258728735084" lon="52.42848730510234"><ele>103.99999999999999</ele><time>2026-04-19T11:14:18.001Z</time></trkpt><trkpt lat="55.762539876350324" lon="52.428392928341225"><ele>104.0</ele><time>2026-04-19T11:14:21.001Z</time></trkpt><trkpt lat="55.76246041870145" lon="52.42831349774707"><ele>103.99999999999999</ele><time>2026-04-19T11:14:24.001Z</time></trkpt><trkpt lat="55.76240217813178" lon="52.42824982502547"><ele>104.0</ele><time>2026-04-19T11:14:26.001Z</time></trkpt><trkpt lat="55.7623360195921" lon="52.428167007482294"><ele>104.0</ele><time>2026-04-19T11:14:29.001Z</time></trkpt><trkpt lat="55.7622703196939" lon="52.42807383541308"><ele>104.0</ele><time>2026-04-19T11:14:32.001Z</time></trkpt><trkpt lat="55.76220007758158" lon="52.42796037564707"><ele>103.99999999999999</ele><time>2026-04-19T11:14:35.001Z</time></trkpt><trkpt lat="55.76213900352738" lon="52.427914792803094"><ele>104.0</ele><time>2026-04-19T11:14:38.001Z</time></trkpt><trkpt lat="55.76211766976836" lon="52.427804979"><ele>103.99999999999999</ele><time>2026-04-19T11:14:40.001Z</time></trkpt><trkpt lat="55.762062396259175" lon="52.427692543252505"><ele>104.0</ele><time>2026-04-19T11:14:43.001Z</time></trkpt><trkpt lat="55.762011162579014" lon="52.427589402139866"><ele>104.0</ele><time>2026-04-19T11:14:46.001Z</time></trkpt><trkpt lat="55.76193008280198" lon="52.42746644562852"><ele>104.0</ele><time>2026-04-19T11:14:49.001Z</time></trkpt><trkpt lat="55.76187964346611" lon="52.42739527883571"><ele>103.99999999999999</ele><time>2026-04-19T11:14:51.001Z</time></trkpt><trkpt lat="55.761814538632464" lon="52.42730917762395"><ele>104.0</ele><time>2026-04-19T11:14:54.001Z</time></trkpt><trkpt lat="55.76177067454769" lon="52.42721748253748"><ele>104.49999999999999</ele><time>2026-04-19T11:14:56.001Z</time></trkpt><trkpt lat="55.76172496858451" lon="52.4271114758301"><ele>105.0</ele><time>2026-04-19T11:14:58.001Z</time></trkpt><trkpt lat="55.761670267642906" lon="52.42703768445502"><ele>105.5</ele><time>2026-04-19T11:15:00.001Z</time></trkpt><trkpt lat="55.76160826108021" lon="52.42690797177486"><ele>106.0</ele><time>2026-04-19T11:15:03.001Z</time></trkpt><trkpt lat="55.76155201482983" lon="52.4268075357343"><ele>106.49999999999999</ele><time>2026-04-19T11:15:05.001Z</time></trkpt><trkpt lat="55.76149444205426" lon="52.42670747954449"><ele>107.0</ele><time>2026-04-19T11:15:07.001Z</time></trkpt><trkpt lat="55.7614420935482" lon="52.42661095048492"><ele>107.00000000000001</ele><time>2026-04-19T11:15:09.001Z</time></trkpt><trkpt lat="55.761394408880996" lon="52.426536943953565"><ele>107.0</ele><time>2026-04-19T11:15:11.001Z</time></trkpt><trkpt lat="55.76134715265078" lon="52.42645202690748"><ele>107.0</ele><time>2026-04-19T11:15:13.001Z</time></trkpt><trkpt lat="55.761298057951755" lon="52.426355123877954"><ele>107.0</ele><time>2026-04-19T11:15:15.001Z</time></trkpt><trkpt lat="55.7612512121841" lon="52.42627583848423"><ele>107.0</ele><time>2026-04-19T11:15:17.001Z</time></trkpt><trkpt lat="55.76120618306269" lon="52.42619566809801"><ele>107.00000000000001</ele><time>2026-04-19T11:15:19Z</time></trkpt><trkpt lat="55.76116060465005" lon="52.42610167368584"><ele>107.0</ele><time>2026-04-19T11:15:21Z</time></trkpt><trkpt lat="55.76110813053487" lon="52.426015978194194"><ele>107.00000000000001</ele><time>2026-04-19T11:15:23Z</time></trkpt><trkpt lat="55.761060704434854" lon="52.42594074022752"><ele>107.0</ele><time>2026-04-19T11:15:25Z</time></trkpt><trkpt lat="55.761024434295656" lon="52.42584697105591"><ele>107.0</ele><time>2026-04-19T11:15:27Z</time></trkpt><trkpt lat="55.760957082801276" lon="52.42573500651306"><ele>107.0</ele><time>2026-04-19T11:15:30Z</time></trkpt><trkpt lat="55.76091470506547" lon="52.42562005461143"><ele>107.0</ele><time>2026-04-19T11:15:33Z</time></trkpt><trkpt lat="55.76088073427901" lon="52.42550894120204"><ele>107.00000000000001</ele><time>2026-04-19T11:15:36Z</time></trkpt><trkpt lat="55.76083618476259" lon="52.425420531898986"><ele>107.0</ele><time>2026-04-19T11:15:38Z</time></trkpt><trkpt lat="55.76078525588886" lon="52.425322879941355"><ele>107.00000000000001</ele><time>2026-04-19T11:15:41Z</time></trkpt><trkpt lat="55.760734621572986" lon="52.425224291064936"><ele>107.0</ele><time>2026-04-19T11:15:44Z</time></trkpt><trkpt lat="55.7606813925241" lon="52.42513638084651"><ele>107.0</ele><time>2026-04-19T11:15:48Z</time></trkpt><trkpt lat="55.76063415458337" lon="52.42504299491839"><ele>107.0</ele><time>2026-04-19T11:15:51Z</time></trkpt><trkpt lat="55.760579386963045" lon="52.42494065870035"><ele>107.0</ele><time>2026-04-19T11:15:54Z</time></trkpt><trkpt lat="55.760530985018406" lon="52.42485512131281"><ele>107.00000000000001</ele><time>2026-04-19T11:15:58Z</time></trkpt><trkpt lat="55.76054290781307" lon="52.42474420320461"><ele>107.0</ele><time>2026-04-19T11:16:02Z</time></trkpt><trkpt lat="55.76055908122388" lon="52.42463299705187"><ele>106.99999999999999</ele><time>2026-04-19T11:16:05Z</time></trkpt><trkpt lat="55.760484416240416" lon="52.42454277256495"><ele>107.0</ele><time>2026-04-19T11:16:08.001Z</time></trkpt><trkpt lat="55.760420629301734" lon="52.424424556938895"><ele>107.0</ele><time>2026-04-19T11:16:11.001Z</time></trkpt><trkpt lat="55.76036192438982" lon="52.42431178135335"><ele>107.0</ele><time>2026-04-19T11:16:14.001Z</time></trkpt><trkpt lat="55.760315644887186" lon="52.424226600127454"><ele>106.99999999999999</ele><time>2026-04-19T11:16:16.001Z</time></trkpt><trkpt lat="55.76025419971901" lon="52.424113847740564"><ele>107.0</ele><time>2026-04-19T11:16:19.001Z</time></trkpt><trkpt lat="55.760209430149615" lon="52.42403507672296"><ele>107.28571428571429</ele><time>2026-04-19T11:16:21.001Z</time></trkpt><trkpt lat="55.76017458198153" lon="52.423931209244465"><ele>107.57142857142857</ele><time>2026-04-19T11:16:23.001Z</time></trkpt><trkpt lat="55.76012004388112" lon="52.42384080560885"><ele>107.85714285714286</ele><time>2026-04-19T11:16:25.001Z</time></trkpt><trkpt lat="55.760063651946055" lon="52.42374947109194"><ele>108.14285714285714</ele><time>2026-04-19T11:16:27.001Z</time></trkpt><trkpt lat="55.760016939094555" lon="52.42365401719725"><ele>108.42857142857143</ele><time>2026-04-19T11:16:29.001Z</time></trkpt><trkpt lat="55.75996817639711" lon="52.423571609499206"><ele>108.71428571428572</ele><time>2026-04-19T11:16:31.001Z</time></trkpt><trkpt lat="55.75990605288367" lon="52.423460476579976"><ele>109.0</ele><time>2026-04-19T11:16:34.001Z</time></trkpt><trkpt lat="55.7598423673071" lon="52.423333966512494"><ele>109.00000000000001</ele><time>2026-04-19T11:16:37.001Z</time></trkpt><trkpt lat="55.759784675937944" lon="52.423221315785625"><ele>109.0</ele><time>2026-04-19T11:16:40.001Z</time></trkpt><trkpt lat="55.75972455627617" lon="52.42312140270085"><ele>109.0</ele><time>2026-04-19T11:16:43.001Z</time></trkpt><trkpt lat="55.75965256336413" lon="52.42302697173347"><ele>109.0</ele><time>2026-04-19T11:16:46.001Z</time></trkpt><trkpt lat="55.75958460615212" lon="52.42296984796347"><ele>109.00000000000001</ele><time>2026-04-19T11:16:48.001Z</time></trkpt><trkpt lat="55.75953454972935" lon="52.42286707403482"><ele>109.0</ele><time>2026-04-19T11:16:51.001Z</time></trkpt><trkpt lat="55.75947874478022" lon="52.42275826542456"><ele>109.00000000000001</ele><time>2026-04-19T11:16:54.001Z</time></trkpt><trkpt lat="55.75941892494835" lon="52.422654809153144"><ele>109.0</ele><time>2026-04-19T11:16:57.001Z</time></trkpt><trkpt lat="55.75936212444272" lon="52.42253981673821"><ele>109.0</ele><time>2026-04-19T11:17:00.001Z</time></trkpt><trkpt lat="55.75930535438723" lon="52.42243202241493"><ele>109.0</ele><time>2026-04-19T11:17:03.001Z</time></trkpt><trkpt lat="55.759252376647844" lon="52.42235507268886"><ele>109.00000000000001</ele><time>2026-04-19T11:17:06.001Z</time></trkpt><trkpt lat="55.75929345846738" lon="52.422239173151475"><ele>109.0</ele><time>2026-04-19T11:17:11.001Z</time></trkpt><trkpt lat="55.759345240274115" lon="52.42215809702747"><ele>109.0</ele><time>2026-04-19T11:17:14.001Z</time></trkpt><trkpt lat="55.759295617464645" lon="52.422260307098774"><ele>109.0</ele><time>2026-04-19T11:17:22.002Z</time></trkpt><trkpt lat="55.75923807253449" lon="52.42233795109489"><ele>109.0</ele><time>2026-04-19T11:17:25Z</time></trkpt><trkpt lat="55.75920081554345" lon="52.42245063389468"><ele>109.0</ele><time>2026-04-19T11:17:29Z</time></trkpt><trkpt lat="55.7591431911664" lon="52.42251319074861"><ele>109.0</ele><time>2026-04-19T11:17:32Z</time></trkpt><trkpt lat="55.75907786144755" lon="52.42246860756742"><ele>109.0</ele><time>2026-04-19T11:17:36Z</time></trkpt><trkpt lat="55.75903798423143" lon="52.422372362483436"><ele>109.0</ele><time>2026-04-19T11:17:40Z</time></trkpt><trkpt lat="55.75899130637902" lon="52.42228757265859"><ele>109.00000000000001</ele><time>2026-04-19T11:17:44Z</time></trkpt><trkpt lat="55.758942847896684" lon="52.422168392451916"><ele>109.0</ele><time>2026-04-19T11:17:47Z</time></trkpt><trkpt lat="55.758893008949315" lon="52.42207594758958"><ele>109.0</ele><time>2026-04-19T11:17:50Z</time></trkpt><trkpt lat="55.75883921782524" lon="52.42197850816251"><ele>109.0</ele><time>2026-04-19T11:17:53Z</time></trkpt><trkpt lat="55.758785876692826" lon="52.42187116208212"><ele>109.00000000000001</ele><time>2026-04-19T11:17:56Z</time></trkpt><trkpt lat="55.75872286933547" lon="52.421767516818015"><ele>109.0</ele><time>2026-04-19T11:18:00Z</time></trkpt><trkpt lat="55.75866819277766" lon="52.421707255389684"><ele>108.83333333333334</ele><time>2026-04-19T11:18:02Z</time></trkpt><trkpt lat="55.758603702210976" lon="52.421664438444566"><ele>108.66666666666667</ele><time>2026-04-19T11:18:05Z</time></trkpt><trkpt lat="55.758550596478315" lon="52.42179037336619"><ele>108.5</ele><time>2026-04-19T11:18:08Z</time></trkpt><trkpt lat="55.75848704479493" lon="52.42188773708203"><ele>108.33333333333334</ele><time>2026-04-19T11:18:11.001Z</time></trkpt><trkpt lat="55.75844278536735" lon="52.4220251311495"><ele>108.16666666666667</ele><time>2026-04-19T11:18:14.001Z</time></trkpt><trkpt lat="55.75839489633118" lon="52.422124018074406"><ele>108.0</ele><time>2026-04-19T11:18:16.001Z</time></trkpt><trkpt lat="55.758342857079306" lon="52.42221679351701"><ele>108.42857142857143</ele><time>2026-04-19T11:18:18.001Z</time></trkpt><trkpt lat="55.758286540449625" lon="52.42229506472037"><ele>108.85714285714286</ele><time>2026-04-19T11:18:20.001Z</time></trkpt><trkpt lat="55.75824148356693" lon="52.42238385390877"><ele>109.28571428571428</ele><time>2026-04-19T11:18:22.001Z</time></trkpt><trkpt lat="55.758196371860286" lon="52.422465797140966"><ele>109.71428571428572</ele><time>2026-04-19T11:18:24.001Z</time></trkpt><trkpt lat="55.75813953738116" lon="52.422545184313876"><ele>110.14285714285715</ele><time>2026-04-19T11:18:27.001Z</time></trkpt><trkpt lat="55.758092636008804" lon="52.422621834852244"><ele>110.57142857142857</ele><time>2026-04-19T11:18:29.001Z</time></trkpt><trkpt lat="55.75804376351322" lon="52.42269241606546"><ele>111.0</ele><time>2026-04-19T11:18:32.001Z</time></trkpt><trkpt lat="55.75798664181833" lon="52.422804870642246"><ele>111.33333333333333</ele><time>2026-04-19T11:18:35.001Z</time></trkpt><trkpt lat="55.75787694821293" lon="52.42298563219317"><ele>111.66666666666666</ele><time>2026-04-19T11:18:37.001Z</time></trkpt><trkpt lat="55.7578240054744" lon="52.42307374356375"><ele>112.0</ele><time>2026-04-19T11:18:39.001Z</time></trkpt><trkpt lat="55.75777787124723" lon="52.42315332499476"><ele>112.33333333333333</ele><time>2026-04-19T11:18:41.001Z</time></trkpt><trkpt lat="55.75772718408536" lon="52.4232376395017"><ele>112.66666666666666</ele><time>2026-04-19T11:18:43.001Z</time></trkpt><trkpt lat="55.75765786762237" lon="52.42334070915216"><ele>113.0</ele><time>2026-04-19T11:18:46.001Z</time></trkpt><trkpt lat="55.757598650806216" lon="52.42344693518337"><ele>112.99999999999999</ele><time>2026-04-19T11:18:49.001Z</time></trkpt><trkpt lat="55.75754677170801" lon="52.42354785168621"><ele>113.0</ele><time>2026-04-19T11:18:52.001Z</time></trkpt><trkpt lat="55.75749365219745" lon="52.42363398526184"><ele>113.0</ele><time>2026-04-19T11:18:54.001Z</time></trkpt><trkpt lat="55.75743915716202" lon="52.42375996995376"><ele>113.0</ele><time>2026-04-19T11:18:56.001Z</time></trkpt><trkpt lat="55.75737778413854" lon="52.42382858219809"><ele>112.99999999999999</ele><time>2026-04-19T11:18:58.001Z</time></trkpt><trkpt lat="55.75732559458181" lon="52.42390912078868"><ele>113.0</ele><time>2026-04-19T11:19:00.001Z</time></trkpt><trkpt lat="55.757277049027046" lon="52.42400941862739"><ele>113.16666666666666</ele><time>2026-04-19T11:19:03.001Z</time></trkpt><trkpt lat="55.75720916888788" lon="52.42412569663234"><ele>113.33333333333333</ele><time>2026-04-19T11:19:06.001Z</time></trkpt><trkpt lat="55.757164099562125" lon="52.42420833693561"><ele>113.5</ele><time>2026-04-19T11:19:08.001Z</time></trkpt><trkpt lat="55.7571130094026" lon="52.42428444340598"><ele>113.66666666666666</ele><time>2026-04-19T11:19:10.001Z</time></trkpt><trkpt lat="55.75706776297125" lon="52.42436824142993"><ele>113.83333333333333</ele><time>2026-04-19T11:19:12.001Z</time></trkpt><trkpt lat="55.75700010987359" lon="52.42446090658703"><ele>114.0</ele><time>2026-04-19T11:19:15.001Z</time></trkpt><trkpt lat="55.756935620004384" lon="52.4245324116871"><ele>114.0</ele><time>2026-04-19T11:19:18.002Z</time></trkpt><trkpt lat="55.75687471376187" lon="52.42463176789674"><ele>114.0</ele><time>2026-04-19T11:19:21.002Z</time></trkpt><trkpt lat="55.7568150591748" lon="52.42472682750781"><ele>114.0</ele><time>2026-04-19T11:19:24.002Z</time></trkpt><trkpt lat="55.75676032102964" lon="52.424810707234535"><ele>114.0</ele><time>2026-04-19T11:19:27.002Z</time></trkpt><trkpt lat="55.75670337178822" lon="52.42491422472675"><ele>114.0</ele><time>2026-04-19T11:19:31Z</time></trkpt><trkpt lat="55.75665031933319" lon="52.42501618732325"><ele>114.0</ele><time>2026-04-19T11:19:34Z</time></trkpt><trkpt lat="55.75660274897556" lon="52.42510351388711"><ele>114.14285714285714</ele><time>2026-04-19T11:19:35Z</time></trkpt><trkpt lat="55.75655688381134" lon="52.4251831105593"><ele>114.28571428571428</ele><time>2026-04-19T11:19:37Z</time></trkpt><trkpt lat="55.75650769253487" lon="52.42526373343056"><ele>114.42857142857142</ele><time>2026-04-19T11:19:39Z</time></trkpt><trkpt lat="55.75645926629611" lon="52.425354819739006"><ele>114.57142857142856</ele><time>2026-04-19T11:19:41Z</time></trkpt><trkpt lat="55.75641023800059" lon="52.425437621365205"><ele>114.71428571428571</ele><time>2026-04-19T11:19:43Z</time></trkpt><trkpt lat="55.75636552036174" lon="52.425518991726996"><ele>114.85714285714283</ele><time>2026-04-19T11:19:45Z</time></trkpt><trkpt lat="55.756321562321276" lon="52.42559944971103"><ele>114.99999999999999</ele><time>2026-04-19T11:19:47Z</time></trkpt><trkpt lat="55.756251470330426" lon="52.42571499028896"><ele>114.99999999999999</ele><time>2026-04-19T11:19:50Z</time></trkpt><trkpt lat="55.75620196072726" lon="52.42579828691056"><ele>115.0</ele><time>2026-04-19T11:19:52Z</time></trkpt><trkpt lat="55.75615221625806" lon="52.4258927856701"><ele>114.99999999999999</ele><time>2026-04-19T11:19:54Z</time></trkpt><trkpt lat="55.75609878907424" lon="52.42597743782277"><ele>114.99999999999999</ele><time>2026-04-19T11:19:56Z</time></trkpt><trkpt lat="55.75604674516155" lon="52.426067258487265"><ele>115.0</ele><time>2026-04-19T11:19:58Z</time></trkpt><trkpt lat="55.7559959173974" lon="52.426156065263946"><ele>114.99999999999999</ele><time>2026-04-19T11:20:00Z</time></trkpt><trkpt lat="55.75594653122127" lon="52.42624624153279"><ele>114.99999999999999</ele><time>2026-04-19T11:20:02Z</time></trkpt><trkpt lat="55.75589521547103" lon="52.42633246767802"><ele>114.7142857142857</ele><time>2026-04-19T11:20:04Z</time></trkpt><trkpt lat="55.75584371486896" lon="52.42642164534459"><ele>114.42857142857142</ele><time>2026-04-19T11:20:06Z</time></trkpt><trkpt lat="55.75579212451122" lon="52.42650911253751"><ele>114.14285714285714</ele><time>2026-04-19T11:20:08Z</time></trkpt><trkpt lat="55.75574027800482" lon="52.42660021159843"><ele>113.85714285714285</ele><time>2026-04-19T11:20:10.001Z</time></trkpt><trkpt lat="55.75568825537166" lon="52.42669091194119"><ele>113.57142857142856</ele><time>2026-04-19T11:20:12.001Z</time></trkpt><trkpt lat="55.7556421961025" lon="52.42676941642231"><ele>113.28571428571429</ele><time>2026-04-19T11:20:15.001Z</time></trkpt><trkpt lat="55.75556750994857" lon="52.426873628215496"><ele>113.0</ele><time>2026-04-19T11:20:16.001Z</time></trkpt><trkpt lat="55.75551286292072" lon="52.426969777001034"><ele>113.0</ele><time>2026-04-19T11:20:18.001Z</time></trkpt><trkpt lat="55.755462778107734" lon="52.427060530819055"><ele>113.0</ele><time>2026-04-19T11:20:20.001Z</time></trkpt><trkpt lat="55.75541741410444" lon="52.42714982071077"><ele>113.0</ele><time>2026-04-19T11:20:22.001Z</time></trkpt><trkpt lat="55.755365914422136" lon="52.42723857572321"><ele>113.0</ele><time>2026-04-19T11:20:24.001Z</time></trkpt><trkpt lat="55.75531370920021" lon="52.42733413277916"><ele>113.0</ele><time>2026-04-19T11:20:26.001Z</time></trkpt><trkpt lat="55.75526172513808" lon="52.42742436726517"><ele>113.0</ele><time>2026-04-19T11:20:28.001Z</time></trkpt><trkpt lat="55.755216462229036" lon="52.42750851452483"><ele>113.0</ele><time>2026-04-19T11:20:30.001Z</time></trkpt><trkpt lat="55.75516854367361" lon="52.42758342605245"><ele>112.83333333333333</ele><time>2026-04-19T11:20:32.001Z</time></trkpt><trkpt lat="55.75511973009788" lon="52.4276684363335"><ele>112.66666666666666</ele><time>2026-04-19T11:20:34.001Z</time></trkpt><trkpt lat="55.75506672736323" lon="52.42776976646402"><ele>112.5</ele><time>2026-04-19T11:20:36.001Z</time></trkpt><trkpt lat="55.755003057195246" lon="52.42787582861304"><ele>112.33333333333334</ele><time>2026-04-19T11:20:39.001Z</time></trkpt><trkpt lat="55.75494032189592" lon="52.42798332325902"><ele>112.16666666666667</ele><time>2026-04-19T11:20:42.001Z</time></trkpt><trkpt lat="55.75488431984248" lon="52.42808500312816"><ele>112.0</ele><time>2026-04-19T11:20:45.001Z</time></trkpt><trkpt lat="55.75480576760981" lon="52.42815991621305"><ele>111.83333333333334</ele><time>2026-04-19T11:20:48.001Z</time></trkpt><trkpt lat="55.75472866934349" lon="52.42811554918848"><ele>111.66666666666667</ele><time>2026-04-19T11:20:51.001Z</time></trkpt><trkpt lat="55.75464744786705" lon="52.428126913262986"><ele>111.5</ele><time>2026-04-19T11:20:54.001Z</time></trkpt><trkpt lat="55.754590157237885" lon="52.42824673957607"><ele>111.33333333333334</ele><time>2026-04-19T11:20:57.001Z</time></trkpt><trkpt lat="55.75453325010411" lon="52.42834391105745"><ele>111.16666666666667</ele><time>2026-04-19T11:21:02.001Z</time></trkpt><trkpt lat="55.754480019148644" lon="52.42843325182479"><ele>111.0</ele><time>2026-04-19T11:21:06.001Z</time></trkpt><trkpt lat="55.75441746217817" lon="52.42849664558211"><ele>111.28571428571428</ele><time>2026-04-19T11:22:19.001Z</time></trkpt><trkpt lat="55.75435685064301" lon="52.42853683416777"><ele>111.57142857142858</ele><time>2026-04-19T11:22:22.001Z</time></trkpt><trkpt lat="55.75431261355635" lon="52.42863691816883"><ele>111.85714285714286</ele><time>2026-04-19T11:22:25.001Z</time></trkpt><trkpt lat="55.75425596365975" lon="52.4287148289585"><ele>112.14285714285714</ele><time>2026-04-19T11:22:28.001Z</time></trkpt><trkpt lat="55.75419573703125" lon="52.42880357168073"><ele>112.42857142857142</ele><time>2026-04-19T11:22:32.001Z</time></trkpt><trkpt lat="55.75413169509879" lon="52.42883586934994"><ele>112.71428571428572</ele><time>2026-04-19T11:22:37.001Z</time></trkpt><trkpt lat="55.75407759947365" lon="52.42876734177605"><ele>113.0</ele><time>2026-04-19T11:22:42.001Z</time></trkpt><trkpt lat="55.75402276477097" lon="52.42870780859233"><ele>112.99999999999999</ele><time>2026-04-19T11:22:45.001Z</time></trkpt><trkpt lat="55.753983041358694" lon="52.4285835859956"><ele>113.0</ele><time>2026-04-19T11:22:48.001Z</time></trkpt><trkpt lat="55.75391332152571" lon="52.428504607499015"><ele>113.0</ele><time>2026-04-19T11:22:51.001Z</time></trkpt><trkpt lat="55.753865473875344" lon="52.428426618222936"><ele>113.0</ele><time>2026-04-19T11:22:54.001Z</time></trkpt><trkpt lat="55.753817388659584" lon="52.428319958375155"><ele>112.99999999999999</ele><time>2026-04-19T11:22:57.001Z</time></trkpt><trkpt lat="55.75377048699282" lon="52.42821697177388"><ele>113.0</ele><time>2026-04-19T11:23:00.001Z</time></trkpt><trkpt lat="55.75371421177851" lon="52.428109484725255"><ele>112.99999999999999</ele><time>2026-04-19T11:23:03.001Z</time></trkpt><trkpt lat="55.75366048762592" lon="52.42802236716236"><ele>113.0</ele><time>2026-04-19T11:23:06.002Z</time></trkpt><trkpt lat="55.753617558944775" lon="52.42791417584054"><ele>113.0</ele><time>2026-04-19T11:23:09.002Z</time></trkpt><trkpt lat="55.753559984024605" lon="52.427812062772475"><ele>113.0</ele><time>2026-04-19T11:23:12.002Z</time></trkpt><trkpt lat="55.75349907893046" lon="52.427695074891204"><ele>112.99999999999999</ele><time>2026-04-19T11:23:16.002Z</time></trkpt><trkpt lat="55.75344915290116" lon="52.42758875366034"><ele>113.0</ele><time>2026-04-19T11:23:19.002Z</time></trkpt><trkpt lat="55.7533965237098" lon="52.42750030860843"><ele>113.16666666666666</ele><time>2026-04-19T11:23:21.002Z</time></trkpt><trkpt lat="55.7533581470455" lon="52.42740766627858"><ele>113.33333333333333</ele><time>2026-04-19T11:23:23.002Z</time></trkpt><trkpt lat="55.7533028056745" lon="52.42727913769867"><ele>113.5</ele><time>2026-04-19T11:23:26.002Z</time></trkpt><trkpt lat="55.75324515633123" lon="52.427158855222295"><ele>113.66666666666666</ele><time>2026-04-19T11:23:29.002Z</time></trkpt><trkpt lat="55.75317710145797" lon="52.427068915344286"><ele>113.83333333333333</ele><time>2026-04-19T11:23:32.002Z</time></trkpt><trkpt lat="55.753109696224016" lon="52.42694867848292"><ele>114.0</ele><time>2026-04-19T11:23:35.002Z</time></trkpt><trkpt lat="55.753059723478664" lon="52.4268737194133"><ele>113.66666666666667</ele><time>2026-04-19T11:23:37.002Z</time></trkpt><trkpt lat="55.752988574273644" lon="52.42676007092583"><ele>113.33333333333334</ele><time>2026-04-19T11:23:40.002Z</time></trkpt><trkpt lat="55.75292797448993" lon="52.4266454814647"><ele>113.0</ele><time>2026-04-19T11:23:43Z</time></trkpt><trkpt lat="55.75286046358573" lon="52.42653245588987"><ele>112.66666666666667</ele><time>2026-04-19T11:23:46.001Z</time></trkpt><trkpt lat="55.752813069760535" lon="52.426458495026075"><ele>112.33333333333334</ele><time>2026-04-19T11:23:48.001Z</time></trkpt><trkpt lat="55.7527649866055" lon="52.42638080113587"><ele>112.0</ele><time>2026-04-19T11:23:51.001Z</time></trkpt><trkpt lat="55.75270988154692" lon="52.42627879992134"><ele>112.16666666666667</ele><time>2026-04-19T11:23:54.001Z</time></trkpt><trkpt lat="55.75266274677564" lon="52.42616594136435"><ele>112.33333333333334</ele><time>2026-04-19T11:23:57.001Z</time></trkpt><trkpt lat="55.75261744558471" lon="52.426048356096366"><ele>112.5</ele><time>2026-04-19T11:24:00.001Z</time></trkpt><trkpt lat="55.75255832190492" lon="52.425944751697024"><ele>112.66666666666666</ele><time>2026-04-19T11:24:03.001Z</time></trkpt><trkpt lat="55.75250081746865" lon="52.4258293233561"><ele>112.83333333333333</ele><time>2026-04-19T11:24:06.001Z</time></trkpt><trkpt lat="55.75243872550055" lon="52.42571055395209"><ele>113.0</ele><time>2026-04-19T11:24:09Z</time></trkpt><trkpt lat="55.75238753674027" lon="52.42559816727386"><ele>112.99999999999999</ele><time>2026-04-19T11:24:12Z</time></trkpt><trkpt lat="55.75231639054564" lon="52.42548797243655"><ele>113.0</ele><time>2026-04-19T11:24:15Z</time></trkpt><trkpt lat="55.752250296705824" lon="52.4254260578616"><ele>113.0</ele><time>2026-04-19T11:24:17Z</time></trkpt><trkpt lat="55.752182218687736" lon="52.425336477887"><ele>113.0</ele><time>2026-04-19T11:24:20Z</time></trkpt><trkpt lat="55.75214680239717" lon="52.42524000000663"><ele>112.99999999999999</ele><time>2026-04-19T11:24:22Z</time></trkpt><trkpt lat="55.7521011012106" lon="52.425119518840496"><ele>113.0</ele><time>2026-04-19T11:24:25Z</time></trkpt><trkpt lat="55.75204146500083" lon="52.424992595165094"><ele>112.99999999999999</ele><time>2026-04-19T11:24:27Z</time></trkpt><trkpt lat="55.751977990408335" lon="52.42487558334176"><ele>113.0</ele><time>2026-04-19T11:24:29Z</time></trkpt><trkpt lat="55.7519153293345" lon="52.424791640668424"><ele>113.0</ele><time>2026-04-19T11:24:31Z</time></trkpt><trkpt lat="55.75185805393441" lon="52.42470450099661"><ele>113.0</ele><time>2026-04-19T11:24:33Z</time></trkpt><trkpt lat="55.751789228429" lon="52.42463027665692"><ele>112.99999999999999</ele><time>2026-04-19T11:24:35Z</time></trkpt><trkpt lat="55.75172441253353" lon="52.42454694995895"><ele>113.0</ele><time>2026-04-19T11:24:37Z</time></trkpt><trkpt lat="55.75167503968799" lon="52.424471205533166"><ele>113.49999999999999</ele><time>2026-04-19T11:24:39Z</time></trkpt><trkpt lat="55.751616616190915" lon="52.424365878288285"><ele>114.0</ele><time>2026-04-19T11:24:42Z</time></trkpt><trkpt lat="55.75159537492325" lon="52.42424875125796"><ele>114.5</ele><time>2026-04-19T11:24:43Z</time></trkpt><trkpt lat="55.75154130218384" lon="52.424150962421514"><ele>115.0</ele><time>2026-04-19T11:24:45Z</time></trkpt><trkpt lat="55.751489434294676" lon="52.424059242307685"><ele>115.49999999999999</ele><time>2026-04-19T11:24:47Z</time></trkpt><trkpt lat="55.75143654449562" lon="52.42396362117588"><ele>116.0</ele><time>2026-04-19T11:24:49Z</time></trkpt><trkpt lat="55.751392465370266" lon="52.42383560455114"><ele>115.71428571428572</ele><time>2026-04-19T11:24:52Z</time></trkpt><trkpt lat="55.751353888153815" lon="52.42373370828337"><ele>115.42857142857143</ele><time>2026-04-19T11:24:54Z</time></trkpt><trkpt lat="55.75131546049914" lon="52.42363864622653"><ele>115.14285714285714</ele><time>2026-04-19T11:24:56Z</time></trkpt><trkpt lat="55.75127607357139" lon="52.42354937984978"><ele>114.85714285714286</ele><time>2026-04-19T11:24:58.001Z</time></trkpt><trkpt lat="55.751231072274145" lon="52.42346762914732"><ele>114.57142857142856</ele><time>2026-04-19T11:25:00.001Z</time></trkpt><trkpt lat="55.75114802892513" lon="52.42348904726531"><ele>114.28571428571428</ele><time>2026-04-19T11:25:02.001Z</time></trkpt><trkpt lat="55.75108602139845" lon="52.423399848728046"><ele>114.0</ele><time>2026-04-19T11:25:06.001Z</time></trkpt><trkpt lat="55.751037212422425" lon="52.42327936125458"><ele>114.4</ele><time>2026-04-19T11:25:09.001Z</time></trkpt><trkpt lat="55.7509693802815" lon="52.42318574551492"><ele>114.80000000000001</ele><time>2026-04-19T11:25:12.001Z</time></trkpt><trkpt lat="55.75089341667225" lon="52.42304755151967"><ele>115.19999999999999</ele><time>2026-04-19T11:25:15.001Z</time></trkpt><trkpt lat="55.750823614678126" lon="52.42291762446209"><ele>115.6</ele><time>2026-04-19T11:25:18.001Z</time></trkpt><trkpt lat="55.750762696201974" lon="52.42278673218972"><ele>116.0</ele><time>2026-04-19T11:25:20.001Z</time></trkpt><trkpt lat="55.7507092992536" lon="52.42268017026763"><ele>115.99999999999999</ele><time>2026-04-19T11:25:22.001Z</time></trkpt><trkpt lat="55.75065172879685" lon="52.422578984887274"><ele>116.0</ele><time>2026-04-19T11:25:24.001Z</time></trkpt><trkpt lat="55.75061706494061" lon="52.422448010275154"><ele>116.0</ele><time>2026-04-19T11:25:26.001Z</time></trkpt><trkpt lat="55.750555856173314" lon="52.42237596237377"><ele>116.0</ele><time>2026-04-19T11:25:28.001Z</time></trkpt><trkpt lat="55.75050135383361" lon="52.422301527303986"><ele>115.99999999999999</ele><time>2026-04-19T11:25:30.001Z</time></trkpt><trkpt lat="55.75045838786599" lon="52.42220611356948"><ele>116.0</ele><time>2026-04-19T11:25:33.001Z</time></trkpt><trkpt lat="55.75039774481578" lon="52.42211180731815"><ele>115.66666666666666</ele><time>2026-04-19T11:25:35.001Z</time></trkpt><trkpt lat="55.75036990642395" lon="52.42182462663366"><ele>115.33333333333333</ele><time>2026-04-19T11:25:37.001Z</time></trkpt><trkpt lat="55.750314769821586" lon="52.42174601567693"><ele>115.0</ele><time>2026-04-19T11:25:39.001Z</time></trkpt><trkpt lat="55.75026280830485" lon="52.421663788904965"><ele>114.66666666666666</ele><time>2026-04-19T11:25:41.001Z</time></trkpt><trkpt lat="55.75021083317018" lon="52.421580996693955"><ele>114.33333333333333</ele><time>2026-04-19T11:25:43.001Z</time></trkpt><trkpt lat="55.750160098337844" lon="52.4215068133353"><ele>114.0</ele><time>2026-04-19T11:25:45.001Z</time></trkpt><trkpt lat="55.75011187716597" lon="52.42142803275113"><ele>114.28571428571428</ele><time>2026-04-19T11:25:47.001Z</time></trkpt><trkpt lat="55.75004626595496" lon="52.421351805846896"><ele>114.57142857142856</ele><time>2026-04-19T11:25:49Z</time></trkpt><trkpt lat="55.74999103505534" lon="52.4212659315058"><ele>114.85714285714286</ele><time>2026-04-19T11:25:51Z</time></trkpt><trkpt lat="55.749944422117395" lon="52.42117493712251"><ele>115.14285714285714</ele><time>2026-04-19T11:25:53Z</time></trkpt><trkpt lat="55.74990096480096" lon="52.42108721666299"><ele>115.42857142857143</ele><time>2026-04-19T11:25:55Z</time></trkpt><trkpt lat="55.74982658095321" lon="52.42107166330538"><ele>115.71428571428572</ele><time>2026-04-19T11:25:58Z</time></trkpt><trkpt lat="55.74976338575814" lon="52.420973572256244"><ele>116.00000000000001</ele><time>2026-04-19T11:26:01Z</time></trkpt><trkpt lat="55.74970459620732" lon="52.420875811458515"><ele>116.00000000000001</ele><time>2026-04-19T11:26:03Z</time></trkpt><trkpt lat="55.74965565523648" lon="52.42075726310682"><ele>116.0</ele><time>2026-04-19T11:26:05Z</time></trkpt><trkpt lat="55.74960487752086" lon="52.42066731130764"><ele>116.00000000000001</ele><time>2026-04-19T11:26:07Z</time></trkpt><trkpt lat="55.74955792111422" lon="52.42058419791362"><ele>116.00000000000001</ele><time>2026-04-19T11:26:09Z</time></trkpt><trkpt lat="55.74952553970367" lon="52.420479003526985"><ele>116.0</ele><time>2026-04-19T11:26:11Z</time></trkpt><trkpt lat="55.74948720564632" lon="52.42037492783568"><ele>116.00000000000001</ele><time>2026-04-19T11:26:13Z</time></trkpt><trkpt lat="55.74943955274173" lon="52.42027460103085"><ele>116.00000000000001</ele><time>2026-04-19T11:26:15Z</time></trkpt><trkpt lat="55.74940068699085" lon="52.420173281119524"><ele>115.99999999999999</ele><time>2026-04-19T11:26:17Z</time></trkpt><trkpt lat="55.749364902870845" lon="52.42006470149062"><ele>116.0</ele><time>2026-04-19T11:26:19Z</time></trkpt><trkpt lat="55.74934717517028" lon="52.41994808512916"><ele>116.0</ele><time>2026-04-19T11:26:21Z</time></trkpt><trkpt lat="55.74930977628596" lon="52.41984963841697"><ele>116.0</ele><time>2026-04-19T11:26:23Z</time></trkpt><trkpt lat="55.749256617315915" lon="52.419708939380804"><ele>115.99999999999999</ele><time>2026-04-19T11:26:26Z</time></trkpt><trkpt lat="55.749210266565534" lon="52.4196298374426"><ele>116.0</ele><time>2026-04-19T11:26:28Z</time></trkpt><trkpt lat="55.74915374931919" lon="52.419513450144144"><ele>115.49999999999999</ele><time>2026-04-19T11:26:31.001Z</time></trkpt><trkpt lat="55.749089438704544" lon="52.4193984296841"><ele>115.0</ele><time>2026-04-19T11:26:34.001Z</time></trkpt><trkpt lat="55.74902074069173" lon="52.41930067754578"><ele>114.5</ele><time>2026-04-19T11:26:37.001Z</time></trkpt><trkpt lat="55.74895843645388" lon="52.41925480241885"><ele>114.0</ele><time>2026-04-19T11:26:40.001Z</time></trkpt><trkpt lat="55.74889114448769" lon="52.41916566810328"><ele>113.49999999999999</ele><time>2026-04-19T11:26:44.001Z</time></trkpt><trkpt lat="55.74881300550741" lon="52.419026461271926"><ele>113.0</ele><time>2026-04-19T11:26:47.001Z</time></trkpt><trkpt lat="55.74876991722764" lon="52.41894243509361"><ele>113.0</ele><time>2026-04-19T11:26:49.001Z</time></trkpt><trkpt lat="55.74872265545117" lon="52.41886776229438"><ele>113.0</ele><time>2026-04-19T11:26:51.001Z</time></trkpt><trkpt lat="55.74867540042661" lon="52.41878875885324"><ele>113.0</ele><time>2026-04-19T11:26:53.001Z</time></trkpt><trkpt lat="55.748631440354735" lon="52.41870458017839"><ele>113.0</ele><time>2026-04-19T11:26:55.001Z</time></trkpt><trkpt lat="55.74857360881412" lon="52.41859904820103"><ele>113.0</ele><time>2026-04-19T11:26:58.001Z</time></trkpt><trkpt lat="55.74852887295059" lon="52.418515449238036"><ele>113.0</ele><time>2026-04-19T11:27:00.001Z</time></trkpt><trkpt lat="55.74846439592356" lon="52.418397623145204"><ele>113.0</ele><time>2026-04-19T11:27:03.001Z</time></trkpt><trkpt lat="55.74840438131487" lon="52.41828287482778"><ele>113.16666666666666</ele><time>2026-04-19T11:27:06.001Z</time></trkpt><trkpt lat="55.74834511742814" lon="52.418187429632916"><ele>113.33333333333333</ele><time>2026-04-19T11:27:09.001Z</time></trkpt><trkpt lat="55.74828314803631" lon="52.418079414046304"><ele>113.5</ele><time>2026-04-19T11:27:12.001Z</time></trkpt><trkpt lat="55.74823192734311" lon="52.41800169488955"><ele>113.66666666666666</ele><time>2026-04-19T11:27:14.001Z</time></trkpt><trkpt lat="55.748181071701154" lon="52.417915833536235"><ele>113.83333333333333</ele><time>2026-04-19T11:27:17.001Z</time></trkpt><trkpt lat="55.748125971200245" lon="52.41780530442501"><ele>114.0</ele><time>2026-04-19T11:27:21.001Z</time></trkpt><trkpt lat="55.748079736627496" lon="52.417714775661864"><ele>114.0</ele><time>2026-04-19T11:27:23.001Z</time></trkpt><trkpt lat="55.74801992471495" lon="52.41761381344278"><ele>114.0</ele><time>2026-04-19T11:27:26.001Z</time></trkpt><trkpt lat="55.74796518385664" lon="52.41753645635978"><ele>114.0</ele><time>2026-04-19T11:27:29.001Z</time></trkpt><trkpt lat="55.747917150849396" lon="52.41742814030992"><ele>114.0</ele><time>2026-04-19T11:27:33.001Z</time></trkpt><trkpt lat="55.747861128077695" lon="52.41732505715856"><ele>114.0</ele><time>2026-04-19T11:27:37.001Z</time></trkpt><trkpt lat="55.74781863939669" lon="52.41723032783213"><ele>114.0</ele><time>2026-04-19T11:27:40.001Z</time></trkpt><trkpt lat="55.74776033199478" lon="52.41711875636259"><ele>114.28571428571428</ele><time>2026-04-19T11:27:43.001Z</time></trkpt><trkpt lat="55.74770804681319" lon="52.41700146518998"><ele>114.57142857142856</ele><time>2026-04-19T11:27:46.002Z</time></trkpt><trkpt lat="55.74766662168732" lon="52.41690970414476"><ele>114.85714285714286</ele><time>2026-04-19T11:27:48.002Z</time></trkpt><trkpt lat="55.74762272893798" lon="52.416829304856634"><ele>115.14285714285714</ele><time>2026-04-19T11:27:50.002Z</time></trkpt><trkpt lat="55.74757973394672" lon="52.41674184960795"><ele>115.42857142857143</ele><time>2026-04-19T11:27:52.002Z</time></trkpt><trkpt lat="55.747535054300066" lon="52.41665704414363"><ele>115.71428571428572</ele><time>2026-04-19T11:27:54.002Z</time></trkpt><trkpt lat="55.74748985137073" lon="52.41657191953299"><ele>116.00000000000001</ele><time>2026-04-19T11:27:56.001Z</time></trkpt><trkpt lat="55.747430721188785" lon="52.41645689711698"><ele>115.99999999999999</ele><time>2026-04-19T11:27:59.001Z</time></trkpt><trkpt lat="55.7473630476406" lon="52.41635421310311"><ele>116.0</ele><time>2026-04-19T11:28:02Z</time></trkpt><trkpt lat="55.74727261889275" lon="52.416267014908826"><ele>116.0</ele><time>2026-04-19T11:28:05Z</time></trkpt><trkpt lat="55.74721077882067" lon="52.416179871544244"><ele>116.0</ele><time>2026-04-19T11:28:07Z</time></trkpt><trkpt lat="55.74716723038041" lon="52.416064625825555"><ele>115.99999999999999</ele><time>2026-04-19T11:28:10Z</time></trkpt><trkpt lat="55.74710034471658" lon="52.415969739490215"><ele>116.0</ele><time>2026-04-19T11:28:13Z</time></trkpt><trkpt lat="55.74704479486583" lon="52.415908517037316"><ele>116.16666666666666</ele><time>2026-04-19T11:28:15Z</time></trkpt><trkpt lat="55.747011486162414" lon="52.4158123874386"><ele>116.33333333333333</ele><time>2026-04-19T11:28:17Z</time></trkpt><trkpt lat="55.74695552664251" lon="52.41570340055609"><ele>116.5</ele><time>2026-04-19T11:28:20Z</time></trkpt><trkpt lat="55.74689779735833" lon="52.41559926981871"><ele>116.66666666666666</ele><time>2026-04-19T11:28:23Z</time></trkpt><trkpt lat="55.74683689662007" lon="52.415510348308786"><ele>116.83333333333333</ele><time>2026-04-19T11:28:26Z</time></trkpt><trkpt lat="55.74679793760862" lon="52.415387517290945"><ele>117.0</ele><time>2026-04-19T11:28:29Z</time></trkpt><trkpt lat="55.7467453277099" lon="52.41527770927322"><ele>116.66666666666667</ele><time>2026-04-19T11:28:32Z</time></trkpt><trkpt lat="55.74667379663498" lon="52.41518712362581"><ele>116.33333333333334</ele><time>2026-04-19T11:28:35Z</time></trkpt><trkpt lat="55.74661070499065" lon="52.41512268432501"><ele>116.0</ele><time>2026-04-19T11:28:38Z</time></trkpt><trkpt lat="55.74656513974759" lon="52.41500698852033"><ele>115.66666666666667</ele><time>2026-04-19T11:28:41Z</time></trkpt><trkpt lat="55.74649495131629" lon="52.41490610030615"><ele>115.33333333333334</ele><time>2026-04-19T11:28:44Z</time></trkpt><trkpt lat="55.74644981127419" lon="52.41482064910695"><ele>115.0</ele><time>2026-04-19T11:28:46Z</time></trkpt><trkpt lat="55.74640317494976" lon="52.414742914837426"><ele>114.99999999999999</ele><time>2026-04-19T11:28:48Z</time></trkpt><trkpt lat="55.74636150822374" lon="52.41465695661324"><ele>115.0</ele><time>2026-04-19T11:28:50Z</time></trkpt><trkpt lat="55.746314210723966" lon="52.41457554708283"><ele>114.99999999999999</ele><time>2026-04-19T11:28:52.001Z</time></trkpt><trkpt lat="55.74627521018797" lon="52.41448226332001"><ele>114.99999999999999</ele><time>2026-04-19T11:28:54.001Z</time></trkpt><trkpt lat="55.74623767941494" lon="52.4143881459401"><ele>115.0</ele><time>2026-04-19T11:28:57.001Z</time></trkpt><trkpt lat="55.74617547891692" lon="52.41427233263897"><ele>114.99999999999999</ele><time>2026-04-19T11:29:00.001Z</time></trkpt><trkpt lat="55.746120867796684" lon="52.41415277236659"><ele>114.99999999999999</ele><time>2026-04-19T11:29:03.001Z</time></trkpt><trkpt lat="55.74605281061738" lon="52.414046966280445"><ele>115.50000000000001</ele><time>2026-04-19T11:29:06.001Z</time></trkpt><trkpt lat="55.7460095320093" lon="52.41396000746308"><ele>116.0</ele><time>2026-04-19T11:29:08.001Z</time></trkpt><trkpt lat="55.74596436364762" lon="52.41388040638864"><ele>116.5</ele><time>2026-04-19T11:29:10.001Z</time></trkpt><trkpt lat="55.745916093228914" lon="52.41378011229609"><ele>117.0</ele><time>2026-04-19T11:29:12.001Z</time></trkpt><trkpt lat="55.74587394708669" lon="52.41368150688751"><ele>117.50000000000001</ele><time>2026-04-19T11:29:15.001Z</time></trkpt><trkpt lat="55.74580542065075" lon="52.413570902647656"><ele>118.0</ele><time>2026-04-19T11:29:18.001Z</time></trkpt><trkpt lat="55.74574361623748" lon="52.413447858375285"><ele>118.00000000000001</ele><time>2026-04-19T11:29:20.001Z</time></trkpt><trkpt lat="55.7456883141543" lon="52.4133636860475"><ele>118.0</ele><time>2026-04-19T11:29:23.001Z</time></trkpt><trkpt lat="55.74563070411789" lon="52.41325325449951"><ele>118.0</ele><time>2026-04-19T11:29:26.001Z</time></trkpt><trkpt lat="55.74557771999604" lon="52.413139606737715"><ele>118.0</ele><time>2026-04-19T11:29:29.001Z</time></trkpt><trkpt lat="55.74550753451035" lon="52.413032800567805"><ele>118.00000000000001</ele><time>2026-04-19T11:29:32.001Z</time></trkpt><trkpt lat="55.74544455007696" lon="52.41291082652199"><ele>118.0</ele><time>2026-04-19T11:29:35.001Z</time></trkpt><trkpt lat="55.745380649749315" lon="52.412798376503375"><ele>118.0</ele><time>2026-04-19T11:29:38.001Z</time></trkpt><trkpt lat="55.74532016360735" lon="52.412684745909495"><ele>118.00000000000001</ele><time>2026-04-19T11:29:41.001Z</time></trkpt><trkpt lat="55.74523882171291" lon="52.41259564345275"><ele>118.00000000000001</ele><time>2026-04-19T11:29:44.001Z</time></trkpt><trkpt lat="55.7451722593224" lon="52.41248072120137"><ele>118.0</ele><time>2026-04-19T11:29:47.001Z</time></trkpt><trkpt lat="55.74511753667544" lon="52.412362012518656"><ele>118.0</ele><time>2026-04-19T11:29:50.001Z</time></trkpt><trkpt lat="55.74505489907237" lon="52.412243191807995"><ele>118.00000000000001</ele><time>2026-04-19T11:29:53.001Z</time></trkpt><trkpt lat="55.7450067434253" lon="52.41216920951864"><ele>118.0</ele><time>2026-04-19T11:29:55.001Z</time></trkpt><trkpt lat="55.74494631977501" lon="52.412044902384366"><ele>118.0</ele><time>2026-04-19T11:29:58.001Z</time></trkpt><trkpt lat="55.74491918281267" lon="52.41190472101532"><ele>118.0</ele><time>2026-04-19T11:30:01Z</time></trkpt><trkpt lat="55.74488247781965" lon="52.41180636427559"><ele>118.00000000000001</ele><time>2026-04-19T11:30:03Z</time></trkpt><trkpt lat="55.7448272297441" lon="52.4116834000937"><ele>118.0</ele><time>2026-04-19T11:30:06Z</time></trkpt><trkpt lat="55.74477028814001" lon="52.41158049058835"><ele>118.00000000000001</ele><time>2026-04-19T11:30:09Z</time></trkpt><trkpt lat="55.74470546319966" lon="52.411460839310436"><ele>118.0</ele><time>2026-04-19T11:30:12Z</time></trkpt><trkpt lat="55.74464245518235" lon="52.4113380650108"><ele>118.0</ele><time>2026-04-19T11:30:15Z</time></trkpt><trkpt lat="55.744594725570416" lon="52.41125873122222"><ele>118.0</ele><time>2026-04-19T11:30:17Z</time></trkpt><trkpt lat="55.74454566720875" lon="52.41118023393543"><ele>118.00000000000001</ele><time>2026-04-19T11:30:19Z</time></trkpt><trkpt lat="55.74449238920223" lon="52.411059407997854"><ele>118.0</ele><time>2026-04-19T11:30:22Z</time></trkpt><trkpt lat="55.7444261887281" lon="52.410956784478685"><ele>118.00000000000001</ele><time>2026-04-19T11:30:25Z</time></trkpt><trkpt lat="55.744375472422966" lon="52.410882698381776"><ele>118.0</ele><time>2026-04-19T11:30:27Z</time></trkpt><trkpt lat="55.744338489311495" lon="52.4107902641732"><ele>118.0</ele><time>2026-04-19T11:30:29Z</time></trkpt><trkpt lat="55.74427820617148" lon="52.41069175298234"><ele>118.0</ele><time>2026-04-19T11:30:32Z</time></trkpt><trkpt lat="55.744210870932875" lon="52.41059278237929"><ele>118.00000000000001</ele><time>2026-04-19T11:30:35Z</time></trkpt><trkpt lat="55.744151816021954" lon="52.41046813042815"><ele>118.0</ele><time>2026-04-19T11:30:38Z</time></trkpt><trkpt lat="55.74410234918687" lon="52.41039089352464"><ele>118.0</ele><time>2026-04-19T11:30:40Z</time></trkpt><trkpt lat="55.74399894383631" lon="52.410143367170896"><ele>118.00000000000001</ele><time>2026-04-19T11:30:42Z</time></trkpt><trkpt lat="55.74394369593803" lon="52.41006777820154"><ele>118.00000000000001</ele><time>2026-04-19T11:30:44Z</time></trkpt><trkpt lat="55.74388932588063" lon="52.409980506905555"><ele>118.0</ele><time>2026-04-19T11:30:46Z</time></trkpt><trkpt lat="55.743841702465616" lon="52.40988940532701"><ele>118.0</ele><time>2026-04-19T11:30:48Z</time></trkpt><trkpt lat="55.743768719107926" lon="52.40978949965487"><ele>118.0</ele><time>2026-04-19T11:30:51.001Z</time></trkpt><trkpt lat="55.74369874622886" lon="52.409770364263906"><ele>118.0</ele><time>2026-04-19T11:30:53.001Z</time></trkpt><trkpt lat="55.743626565430624" lon="52.40974411318198"><ele>118.0</ele><time>2026-04-19T11:30:55.001Z</time></trkpt><trkpt lat="55.743561329631575" lon="52.409713108577016"><ele>118.0</ele><time>2026-04-19T11:30:57.001Z</time></trkpt><trkpt lat="55.743488698755975" lon="52.40966643456054"><ele>118.0</ele><time>2026-04-19T11:30:59.001Z</time></trkpt><trkpt lat="55.74342154216172" lon="52.40970332155503"><ele>118.0</ele><time>2026-04-19T11:31:01.001Z</time></trkpt><trkpt lat="55.74333901587105" lon="52.40968140057108"><ele>118.0</ele><time>2026-04-19T11:31:04.001Z</time></trkpt><trkpt lat="55.743258339908856" lon="52.40964089812564"><ele>118.00000000000001</ele><time>2026-04-19T11:31:08.001Z</time></trkpt><trkpt lat="55.74318139396389" lon="52.40960851588235"><ele>118.0</ele><time>2026-04-19T11:31:11.001Z</time></trkpt><trkpt lat="55.7431061054093" lon="52.40956047923127"><ele>118.0</ele><time>2026-04-19T11:31:14.001Z</time></trkpt><trkpt lat="55.74300030777695" lon="52.40949368270287"><ele>118.0</ele><time>2026-04-19T11:31:17.001Z</time></trkpt><trkpt lat="55.74291650446982" lon="52.40946526228133"><ele>118.00000000000001</ele><time>2026-04-19T11:31:19.001Z</time></trkpt><trkpt lat="55.74284967355997" lon="52.4094246639051"><ele>118.0</ele><time>2026-04-19T11:31:21.001Z</time></trkpt><trkpt lat="55.74277917883269" lon="52.409401523182645"><ele>118.0</ele><time>2026-04-19T11:31:23.001Z</time></trkpt><trkpt lat="55.742712696704785" lon="52.40936152414702"><ele>118.0</ele><time>2026-04-19T11:31:25.001Z</time></trkpt><trkpt lat="55.74264692925531" lon="52.40935383104494"><ele>118.0</ele><time>2026-04-19T11:31:27.001Z</time></trkpt><trkpt lat="55.742577536076276" lon="52.409303090365704"><ele>118.0</ele><time>2026-04-19T11:31:29.001Z</time></trkpt><trkpt lat="55.74250894011458" lon="52.40927942075264"><ele>118.0</ele><time>2026-04-19T11:31:31.001Z</time></trkpt><trkpt lat="55.74242828181228" lon="52.40923314541215"><ele>118.0</ele><time>2026-04-19T11:31:34.001Z</time></trkpt><trkpt lat="55.74236738168148" lon="52.40919656911356"><ele>118.0</ele><time>2026-04-19T11:31:36.001Z</time></trkpt><trkpt lat="55.742278626587684" lon="52.40914373042486"><ele>118.00000000000001</ele><time>2026-04-19T11:31:39.001Z</time></trkpt><trkpt lat="55.74221715275507" lon="52.40910395500498"><ele>118.0</ele><time>2026-04-19T11:31:41.001Z</time></trkpt><trkpt lat="55.742135050917724" lon="52.40904815298856"><ele>118.0</ele><time>2026-04-19T11:31:44.001Z</time></trkpt><trkpt lat="55.742058645677126" lon="52.40900352920652"><ele>118.0</ele><time>2026-04-19T11:31:47.001Z</time></trkpt><trkpt lat="55.74198861932823" lon="52.40903181777387"><ele>118.00000000000001</ele><time>2026-04-19T11:31:50.001Z</time></trkpt><trkpt lat="55.74190731729824" lon="52.408984955779765"><ele>118.0</ele><time>2026-04-19T11:31:53.001Z</time></trkpt><trkpt lat="55.741829264771205" lon="52.40892050363188"><ele>117.57142857142857</ele><time>2026-04-19T11:31:56.001Z</time></trkpt><trkpt lat="55.74176075799396" lon="52.40887833333798"><ele>117.14285714285714</ele><time>2026-04-19T11:32:00.001Z</time></trkpt><trkpt lat="55.74169545661894" lon="52.40884801386836"><ele>116.71428571428571</ele><time>2026-04-19T11:32:03.001Z</time></trkpt><trkpt lat="55.74163202328693" lon="52.408812744521406"><ele>116.28571428571428</ele><time>2026-04-19T11:32:07Z</time></trkpt><trkpt lat="55.741573391446614" lon="52.408767804595385"><ele>115.85714285714286</ele><time>2026-04-19T11:32:10Z</time></trkpt><trkpt lat="55.74149483026332" lon="52.40872561612957"><ele>115.42857142857142</ele><time>2026-04-19T11:32:13Z</time></trkpt><trkpt lat="55.74140892602511" lon="52.40867597064061"><ele>114.99999999999999</ele><time>2026-04-19T11:32:16Z</time></trkpt><trkpt lat="55.7413236475445" lon="52.40862644141483"><ele>114.99999999999999</ele><time>2026-04-19T11:32:19Z</time></trkpt><trkpt lat="55.74124349624824" lon="52.408574324487816"><ele>115.0</ele><time>2026-04-19T11:32:22Z</time></trkpt><trkpt lat="55.741165843779356" lon="52.40852983342834"><ele>114.99999999999999</ele><time>2026-04-19T11:32:25Z</time></trkpt><trkpt lat="55.74109978616309" lon="52.40850523225923"><ele>114.99999999999999</ele><time>2026-04-19T11:32:29Z</time></trkpt><trkpt lat="55.74103002894668" lon="52.40847862561074"><ele>115.0</ele><time>2026-04-19T11:32:33Z</time></trkpt><trkpt lat="55.740969880982995" lon="52.408430612574"><ele>114.99999999999999</ele><time>2026-04-19T11:32:37Z</time></trkpt><trkpt lat="55.740905872902474" lon="52.40838308462758"><ele>114.99999999999999</ele><time>2026-04-19T11:32:41Z</time></trkpt><trkpt lat="55.74084904809663" lon="52.40832000307265"><ele>114.99999999999999</ele><time>2026-04-19T11:32:46Z</time></trkpt><trkpt lat="55.740818543441335" lon="52.408221891007685"><ele>115.0</ele><time>2026-04-19T11:32:50Z</time></trkpt><trkpt lat="55.74078547109191" lon="52.408122373076125"><ele>114.99999999999999</ele><time>2026-04-19T11:32:54.001Z</time></trkpt><trkpt lat="55.740737371609704" lon="52.40803656938542"><ele>114.99999999999999</ele><time>2026-04-19T11:32:59.001Z</time></trkpt><trkpt lat="55.740673997550196" lon="52.407986022370615"><ele>115.0</ele><time>2026-04-19T11:33:07.001Z</time></trkpt><trkpt lat="55.74061766495716" lon="52.407921213454934"><ele>114.99999999999999</ele><time>2026-04-19T11:33:21.001Z</time></trkpt><trkpt lat="55.74053391188942" lon="52.40789509550696"><ele>114.99999999999999</ele><time>2026-04-19T11:33:30.001Z</time></trkpt><trkpt lat="55.74082095214669" lon="52.407239954200456"><ele>115.0</ele><time>2026-04-19T11:33:51.07Z</time></trkpt><trkpt lat="55.740554608675616" lon="52.407351366571156"><ele>115.0</ele><time>2026-04-19T11:33:53.001Z</time></trkpt><trkpt lat="55.740567980632626" lon="52.407066856577295"><ele>115.0</ele><time>2026-04-19T11:33:54.001Z</time></trkpt><trkpt lat="55.740503704359114" lon="52.40709012595055"><ele>115.14285714285712</ele><time>2026-04-19T11:34:02.001Z</time></trkpt><trkpt lat="55.7404528240199" lon="52.407000367112595"><ele>115.28571428571428</ele><time>2026-04-19T11:34:09.001Z</time></trkpt><trkpt lat="55.74043381607895" lon="52.40688432406987"><ele>115.42857142857143</ele><time>2026-04-19T11:34:17Z</time></trkpt><trkpt lat="55.74038109620404" lon="52.406783810372566"><ele>115.57142857142857</ele><time>2026-04-19T11:34:21Z</time></trkpt><trkpt lat="55.74031135420399" lon="52.40670010157656"><ele>115.71428571428572</ele><time>2026-04-19T11:34:25Z</time></trkpt><trkpt lat="55.74025038679235" lon="52.40663710916231"><ele>115.85714285714288</ele><time>2026-04-19T11:34:28Z</time></trkpt><trkpt lat="55.74019097116006" lon="52.40657225675546"><ele>116.00000000000001</ele><time>2026-04-19T11:34:31Z</time></trkpt><trkpt lat="55.740129502886155" lon="52.406511402785945"><ele>115.99999999999999</ele><time>2026-04-19T11:34:34Z</time></trkpt><trkpt lat="55.740062554338984" lon="52.40645402025221"><ele>116.0</ele><time>2026-04-19T11:34:36Z</time></trkpt><trkpt lat="55.74001445252298" lon="52.40637526924075"><ele>116.0</ele><time>2026-04-19T11:34:39Z</time></trkpt><trkpt lat="55.73993963639082" lon="52.406293630257494"><ele>116.0</ele><time>2026-04-19T11:34:42Z</time></trkpt><trkpt lat="55.73986039526554" lon="52.40626689154721"><ele>115.99999999999999</ele><time>2026-04-19T11:34:45Z</time></trkpt><trkpt lat="55.739799424683795" lon="52.40621977169729"><ele>116.0</ele><time>2026-04-19T11:34:47Z</time></trkpt><trkpt lat="55.73971276368455" lon="52.40620564150382"><ele>115.99999999999999</ele><time>2026-04-19T11:34:50Z</time></trkpt><trkpt lat="55.73964765639795" lon="52.40621498280421"><ele>116.0</ele><time>2026-04-19T11:34:52Z</time></trkpt><trkpt lat="55.739570488132415" lon="52.4061898895722"><ele>116.0</ele><time>2026-04-19T11:34:55Z</time></trkpt><trkpt lat="55.73948800569022" lon="52.40615240324355"><ele>116.0</ele><time>2026-04-19T11:34:57Z</time></trkpt><trkpt lat="55.739409951480035" lon="52.406096192586844"><ele>115.99999999999999</ele><time>2026-04-19T11:35:00Z</time></trkpt><trkpt lat="55.739321350273414" lon="52.406060645797496"><ele>116.0</ele><time>2026-04-19T11:35:03.001Z</time></trkpt><trkpt lat="55.739237100333256" lon="52.40601274711028"><ele>116.00000000000001</ele><time>2026-04-19T11:35:06.001Z</time></trkpt><trkpt lat="55.73917069611316" lon="52.40599155778781"><ele>116.0</ele><time>2026-04-19T11:35:08.001Z</time></trkpt><trkpt lat="55.73910433766342" lon="52.405963112199515"><ele>116.00000000000001</ele><time>2026-04-19T11:35:10.001Z</time></trkpt><trkpt lat="55.73910533376328" lon="52.40581844178849"><ele>116.00000000000001</ele><time>2026-04-19T11:35:13.001Z</time></trkpt><trkpt lat="55.73909343109389" lon="52.405690556623334"><ele>116.0</ele><time>2026-04-19T11:35:15.001Z</time></trkpt><trkpt lat="55.73909266039436" lon="52.40555240313933"><ele>116.00000000000001</ele><time>2026-04-19T11:35:18.001Z</time></trkpt><trkpt lat="55.73904587552425" lon="52.405474472236335"><ele>116.00000000000001</ele><time>2026-04-19T11:35:21.001Z</time></trkpt><trkpt lat="55.73897425083193" lon="52.40540745987253"><ele>116.49999999999999</ele><time>2026-04-19T11:35:24.001Z</time></trkpt><trkpt lat="55.73889841574982" lon="52.40533468941603"><ele>117.0</ele><time>2026-04-19T11:35:27.001Z</time></trkpt><trkpt lat="55.73881447516493" lon="52.405283471973384"><ele>117.5</ele><time>2026-04-19T11:35:30.001Z</time></trkpt><trkpt lat="55.738746545140216" lon="52.40520536555364"><ele>118.0</ele><time>2026-04-19T11:35:33.001Z</time></trkpt><trkpt lat="55.73875372826102" lon="52.405070123561394"><ele>118.49999999999999</ele><time>2026-04-19T11:35:36.001Z</time></trkpt><trkpt lat="55.738774469474144" lon="52.40494318477563"><ele>119.0</ele><time>2026-04-19T11:35:38.001Z</time></trkpt><trkpt lat="55.73878994614266" lon="52.40480623694944"><ele>119.33333333333333</ele><time>2026-04-19T11:35:41.001Z</time></trkpt><trkpt lat="55.73880568580874" lon="52.404647371828794"><ele>119.66666666666666</ele><time>2026-04-19T11:35:44.001Z</time></trkpt><trkpt lat="55.73882274134787" lon="52.40450314782762"><ele>120.0</ele><time>2026-04-19T11:35:47.001Z</time></trkpt><trkpt lat="55.73877822204511" lon="52.40440748871619"><ele>120.33333333333334</ele><time>2026-04-19T11:35:50.001Z</time></trkpt><trkpt lat="55.73872382226248" lon="52.404346892412"><ele>120.66666666666667</ele><time>2026-04-19T11:35:52.001Z</time></trkpt><trkpt lat="55.73863265797094" lon="52.4043079733631"><ele>121.0</ele><time>2026-04-19T11:35:55.001Z</time></trkpt><trkpt lat="55.73854309092288" lon="52.40425184297412"><ele>121.42857142857142</ele><time>2026-04-19T11:35:58.001Z</time></trkpt><trkpt lat="55.7384761513368" lon="52.40422498754801"><ele>121.85714285714285</ele><time>2026-04-19T11:36:00.001Z</time></trkpt><trkpt lat="55.73840930000197" lon="52.404194714381646"><ele>122.28571428571428</ele><time>2026-04-19T11:36:02.001Z</time></trkpt><trkpt lat="55.73834633614952" lon="52.40416007391201"><ele>122.71428571428572</ele><time>2026-04-19T11:36:04.001Z</time></trkpt><trkpt lat="55.73828373801112" lon="52.40414673398383"><ele>123.14285714285715</ele><time>2026-04-19T11:36:06.001Z</time></trkpt><trkpt lat="55.73822177876961" lon="52.40410581461466"><ele>123.57142857142858</ele><time>2026-04-19T11:36:08.001Z</time></trkpt><trkpt lat="55.73813486202158" lon="52.404055065073585"><ele>124.0</ele><time>2026-04-19T11:36:11.001Z</time></trkpt><trkpt lat="55.73807078854945" lon="52.404023116697516"><ele>124.0</ele><time>2026-04-19T11:36:13.001Z</time></trkpt><trkpt lat="55.73799182352701" lon="52.403962086428876"><ele>124.00000000000001</ele><time>2026-04-19T11:36:16.001Z</time></trkpt><trkpt lat="55.73789945334739" lon="52.40392910556325"><ele>124.0</ele><time>2026-04-19T11:36:19Z</time></trkpt><trkpt lat="55.73783798245921" lon="52.40399900115686"><ele>124.0</ele><time>2026-04-19T11:37:03Z</time></trkpt><trkpt lat="55.73782074324303" lon="52.404109007149586"><ele>124.00000000000001</ele><time>2026-04-19T11:37:07Z</time></trkpt><trkpt lat="55.73780250008631" lon="52.40421794284707"><ele>124.0</ele><time>2026-04-19T11:37:10Z</time></trkpt><trkpt lat="55.73775314609479" lon="52.404297761041484"><ele>124.0</ele><time>2026-04-19T11:37:13.072Z</time></trkpt><trkpt lat="55.73782458500399" lon="52.4043520665389"><ele>124.0</ele><time>2026-04-19T11:37:14.074Z</time></trkpt><trkpt lat="55.73787784651874" lon="52.40428971881962"><ele>124.0</ele><time>2026-04-19T11:37:52.016Z</time></trkpt><trkpt lat="55.73791468053157" lon="52.404174105465195"><ele>124.0</ele><time>2026-04-19T11:37:54.018Z</time></trkpt><trkpt lat="55.73779789071604" lon="52.40434174953643"><ele>124.0</ele><time>2026-04-19T11:38:18.008Z</time></trkpt><trkpt lat="55.73772057798909" lon="52.40442656882728"><ele>124.0</ele><time>2026-04-19T11:38:21.009Z</time></trkpt><trkpt lat="55.7381919022874" lon="52.40481957762271"><ele>123.5</ele><time>2026-04-19T11:38:44.01Z</time></trkpt><trkpt lat="55.73831729989159" lon="52.40539912534287"><ele>123.0</ele><time>2026-04-19T11:38:45.01Z</time></trkpt><trkpt lat="55.73828475590688" lon="52.40564227297307"><ele>122.0</ele><time>2026-04-19T11:38:46.011Z</time></trkpt><trkpt lat="55.738275568748215" lon="52.40580688751878"><ele>121.00000000000001</ele><time>2026-04-19T11:38:47.011Z</time></trkpt><trkpt lat="55.7383152182141" lon="52.40611649810284"><ele>120.00000000000001</ele><time>2026-04-19T11:38:48.01Z</time></trkpt><trkpt lat="55.73839078237102" lon="52.40615810964616"><ele>119.0</ele><time>2026-04-19T11:38:49.01Z</time></trkpt><trkpt lat="55.738419963796396" lon="52.40629572027461"><ele>118.0</ele><time>2026-04-19T11:38:50.011Z</time></trkpt><trkpt lat="55.7386238335833" lon="52.40624059854175"><ele>118.0</ele><time>2026-04-19T11:38:56.011Z</time></trkpt><trkpt lat="55.73859297072286" lon="52.40609233250695"><ele>118.0</ele><time>2026-04-19T11:38:58.014Z</time></trkpt><trkpt lat="55.73843581958419" lon="52.40563920542875"><ele>118.0</ele><time>2026-04-19T11:38:59.014Z</time></trkpt><trkpt lat="55.73835399223479" lon="52.40533790643004"><ele>118.0</ele><time>2026-04-19T11:39:00.015Z</time></trkpt><trkpt lat="55.73826964678492" lon="52.405221388876754"><ele>118.0</ele><time>2026-04-19T11:39:01.014Z</time></trkpt><trkpt lat="55.73804778733104" lon="52.405659691367035"><ele>118.0</ele><time>2026-04-19T11:39:02.014Z</time></trkpt><trkpt lat="55.737977243335386" lon="52.40560371425464"><ele>119.66666666666667</ele><time>2026-04-19T11:39:03.014Z</time></trkpt><trkpt lat="55.73786856129078" lon="52.40540693158342"><ele>121.33333333333334</ele><time>2026-04-19T11:39:09.015Z</time></trkpt><trkpt lat="55.737897563774546" lon="52.40524007234021"><ele>123.0</ele><time>2026-04-19T11:39:14.018Z</time></trkpt><trkpt lat="55.73781037471573" lon="52.404474800848995"><ele>124.0</ele><time>2026-04-19T11:39:20.014Z</time></trkpt><trkpt lat="55.73775982359513" lon="52.40431240189246"><ele>124.0</ele><time>2026-04-19T11:39:28.013Z</time></trkpt><trkpt lat="55.73776926470743" lon="52.404188051299506"><ele>124.0</ele><time>2026-04-19T11:39:33.013Z</time></trkpt></trkseg></trk></gpx>